[[{"header":{"parameterUnit":"m.s-1","parameterCategory":1,"la1":30.6,"la2":29.2853,"lo1":-89.7004,"lo2":-87.6739,"dy":0.0162,"dx":0.0183,"nx":112,"ny":82,"refTime":"2023-08-08T06:00:00:Z","depth":0,"parameterNumber":2,"parameterNumberName":"U-component_of_WINDS"},"data":[0.0,0.0,0.0,0.0,0.0,0.0,0.0,0.0,0.0,0.0,0.0,0.0,0.0,0.0,0.0,0.0,0.0,0.0,0.0,0.0,0.0,0.0,0.0,0.0,0.0,0.0,0.0,0.0,0.0,0.0,0.0,0.0,0.0,0.0,0.0,0.0,0.0,0.0,0.0,0.0,0.0,0.0,0.0,0.0,0.0,0.0,0.0,0.0,0.0,0.0,0.0,0.0,0.0,0.0,0.0,0.0,0.0,0.0,0.0,0.0,0.0,0.0,0.0,0.0,0.0,0.0,0.0,0.0,0.0,0.0,0.0,0.0,0.0,0.0,0.0,0.0,0.0,0.0,0.0,0.0,0.0,0.0,0.0,0.0,0.0,0.0,0.0,0.0,0.0,0.0,-4.1555,-4.6911,-5.7469,-6.4518,-6.5442,-6.4826,-6.0578,-5.159,0.0,0.0,0.0,0.0,0.0,0.0,0.0,0.0,0.0,0.0,0.0,0.0,0.0,0.0,0.0,0.0,0.0,0.0,0.0,0.0,0.0,0.0,0.0,0.0,0.0,0.0,0.0,0.0,0.0,0.0,0.0,0.0,0.0,0.0,0.0,0.0,0.0,0.0,0.0,0.0,0.0,0.0,0.0,0.0,0.0,0.0,0.0,0.0,0.0,0.0,0.0,0.0,0.0,0.0,0.0,0.0,0.0,0.0,0.0,0.0,0.0,0.0,0.0,0.0,0.0,0.0,0.0,0.0,0.0,0.0,0.0,0.0,0.0,0.0,0.0,0.0,0.0,0.0,0.0,0.0,0.0,0.0,0.0,0.0,0.0,0.0,0.0,0.0,0.0,0.0,0.0,0.0,0.0,0.0,0.0,0.0,0.0,0.0,0.0,0.0,0.0,0.0,0.0,0.0,-4.3741,-5.4807,-6.1717,-6.6334,-6.812,-6.458,-5.947,-5.2821,0.0,0.0,0.0,0.0,0.0,0.0,0.0,0.0,0.0,0.0,0.0,0.0,0.0,0.0,0.0,0.0,0.0,0.0,0.0,0.0,0.0,0.0,0.0,0.0,0.0,0.0,0.0,0.0,0.0,0.0,0.0,0.0,0.0,0.0,0.0,0.0,0.0,0.0,0.0,0.0,0.0,0.0,0.0,0.0,0.0,0.0,0.0,0.0,0.0,0.0,0.0,0.0,0.0,0.0,0.0,0.0,0.0,0.0,0.0,0.0,0.0,0.0,0.0,0.0,0.0,0.0,0.0,0.0,0.0,0.0,0.0,0.0,0.0,0.0,0.0,0.0,0.0,0.0,0.0,0.0,0.0,0.0,0.0,0.0,0.0,0.0,0.0,0.0,0.0,0.0,0.0,0.0,0.0,0.0,0.0,0.0,0.0,0.0,0.0,0.0,0.0,0.0,0.0,-4.2817,-4.8142,-5.7839,-6.3102,-6.6273,-6.7196,-6.4241,-5.9439,-5.2606,-4.9251,0.0,0.0,0.0,0.0,0.0,0.0,0.0,0.0,0.0,0.0,0.0,0.0,0.0,0.0,0.0,0.0,0.0,0.0,0.0,0.0,0.0,0.0,0.0,0.0,0.0,0.0,0.0,0.0,0.0,0.0,0.0,0.0,0.0,0.0,0.0,0.0,0.0,0.0,0.0,0.0,0.0,0.0,0.0,0.0,0.0,0.0,0.0,0.0,0.0,0.0,0.0,0.0,0.0,0.0,0.0,0.0,0.0,0.0,0.0,0.0,0.0,0.0,0.0,0.0,0.0,0.0,0.0,0.0,0.0,0.0,0.0,0.0,0.0,0.0,0.0,0.0,0.0,0.0,0.0,0.0,0.0,0.0,0.0,0.0,0.0,0.0,0.0,0.0,0.0,0.0,0.0,0.0,0.0,0.0,0.0,0.0,0.0,0.0,0.0,0.0,0.0,0.0,-4.8019,-5.2021,-5.9039,-6.3595,-6.6088,-6.5903,-6.341,-5.8947,-5.2144,-4.7896,0.0,0.0,0.0,0.0,0.0,0.0,0.0,0.0,0.0,0.0,0.0,0.0,0.0,0.0,0.0,0.0,0.0,0.0,0.0,0.0,0.0,0.0,0.0,0.0,0.0,0.0,0.0,0.0,0.0,0.0,0.0,0.0,0.0,0.0,0.0,0.0,0.0,0.0,0.0,0.0,0.0,0.0,0.0,0.0,0.0,0.0,0.0,0.0,0.0,0.0,0.0,0.0,0.0,0.0,0.0,0.0,0.0,0.0,0.0,0.0,0.0,0.0,0.0,0.0,0.0,0.0,0.0,0.0,0.0,0.0,0.0,0.0,0.0,0.0,0.0,0.0,0.0,0.0,0.0,0.0,0.0,0.0,0.0,0.0,0.0,0.0,0.0,0.0,0.0,0.0,0.0,0.0,0.0,0.0,0.0,0.0,0.0,0.0,0.0,0.0,0.0,0.0,-4.8696,-5.3622,-5.9193,-6.4026,-6.6581,-6.5965,-6.1717,-5.6946,-5.2021,-4.6142,0.0,0.0,0.0,0.0,0.0,0.0,0.0,0.0,0.0,0.0,0.0,0.0,0.0,0.0,0.0,0.0,0.0,0.0,0.0,0.0,0.0,0.0,0.0,0.0,0.0,0.0,0.0,0.0,0.0,0.0,0.0,0.0,0.0,0.0,0.0,0.0,0.0,0.0,0.0,0.0,0.0,0.0,0.0,0.0,0.0,0.0,0.0,0.0,0.0,0.0,0.0,0.0,0.0,0.0,0.0,0.0,0.0,0.0,0.0,0.0,0.0,0.0,0.0,0.0,0.0,0.0,0.0,0.0,0.0,0.0,0.0,0.0,0.0,0.0,0.0,0.0,0.0,0.0,0.0,0.0,0.0,0.0,0.0,0.0,0.0,0.0,0.0,0.0,0.0,0.0,0.0,0.0,0.0,0.0,0.0,0.0,0.0,0.0,0.0,0.0,0.0,0.0,-4.9651,-5.4422,-5.9839,-6.3933,-6.5996,-6.5349,-6.2056,-5.7469,-5.1467,0.0,0.0,0.0,0.0,0.0,0.0,0.0,0.0,0.0,0.0,0.0,0.0,0.0,0.0,0.0,0.0,0.0,0.0,0.0,0.0,0.0,0.0,0.0,0.0,0.0,0.0,0.0,0.0,0.0,0.0,0.0,0.0,0.0,0.0,0.0,0.0,0.0,0.0,0.0,0.0,0.0,0.0,0.0,0.0,0.0,0.0,0.0,0.0,0.0,0.0,0.0,0.0,0.0,0.0,0.0,0.0,0.0,0.0,0.0,0.0,0.0,0.0,0.0,0.0,0.0,0.0,0.0,0.0,0.0,0.0,0.0,0.0,0.0,0.0,0.0,0.0,0.0,0.0,0.0,0.0,0.0,0.0,0.0,0.0,0.0,0.0,0.0,0.0,0.0,0.0,0.0,0.0,0.0,0.0,0.0,0.0,0.0,0.0,0.0,0.0,0.0,0.0,-4.5588,-5.0051,-5.4545,-5.9316,-6.3287,-6.5134,-6.3995,-6.0824,-5.6453,-5.0728,0.0,0.0,0.0,0.0,0.0,0.0,0.0,0.0,0.0,0.0,0.0,0.0,0.0,0.0,0.0,0.0,0.0,0.0,0.0,0.0,0.0,0.0,0.0,0.0,0.0,0.0,0.0,0.0,0.0,0.0,0.0,0.0,0.0,0.0,0.0,0.0,0.0,0.0,0.0,0.0,0.0,0.0,0.0,0.0,0.0,0.0,0.0,0.0,0.0,0.0,0.0,0.0,0.0,0.0,0.0,0.0,0.0,0.0,0.0,0.0,0.0,0.0,0.0,0.0,0.0,0.0,0.0,0.0,0.0,0.0,0.0,0.0,0.0,0.0,0.0,0.0,0.0,0.0,0.0,0.0,0.0,0.0,0.0,0.0,0.0,0.0,0.0,0.0,0.0,0.0,0.0,0.0,0.0,0.0,0.0,0.0,0.0,0.0,0.0,0.0,0.0,0.0,-4.5064,-4.9774,-5.4022,-5.7487,-6.2056,-6.4057,-6.1994,-5.7469,-5.3314,0.0,0.0,0.0,0.0,0.0,0.0,0.0,0.0,0.0,0.0,0.0,0.0,0.0,0.0,0.0,0.0,0.0,0.0,0.0,0.0,0.0,0.0,0.0,0.0,0.0,0.0,0.0,0.0,0.0,0.0,0.0,0.0,0.0,0.0,0.0,0.0,0.0,0.0,0.0,0.0,0.0,0.0,0.0,0.0,0.0,0.0,0.0,0.0,0.0,0.0,0.0,0.0,0.0,0.0,0.0,0.0,0.0,0.0,0.0,0.0,0.0,0.0,0.0,0.0,0.0,0.0,0.0,0.0,0.0,0.0,0.0,0.0,0.0,0.0,0.0,0.0,0.0,0.0,0.0,0.0,0.0,0.0,0.0,0.0,0.0,0.0,0.0,0.0,0.0,0.0,0.0,0.0,0.0,0.0,0.0,0.0,0.0,0.0,0.0,0.0,0.0,0.0,0.0,-4.5834,-5.0882,-5.5438,-5.8824,-6.2148,-6.3687,-6.261,-5.8608,-5.4299,-4.9959,0.0,0.0,0.0,0.0,0.0,0.0,0.0,0.0,0.0,0.0,0.0,0.0,0.0,0.0,0.0,0.0,0.0,0.0,0.0,0.0,0.0,0.0,0.0,0.0,0.0,0.0,0.0,0.0,0.0,0.0,0.0,0.0,0.0,0.0,0.0,0.0,0.0,0.0,0.0,0.0,0.0,0.0,0.0,0.0,0.0,0.0,0.0,0.0,0.0,0.0,0.0,0.0,0.0,0.0,0.0,0.0,0.0,0.0,0.0,0.0,0.0,0.0,0.0,0.0,0.0,0.0,0.0,0.0,0.0,0.0,0.0,0.0,0.0,0.0,0.0,0.0,0.0,0.0,0.0,0.0,0.0,0.0,0.0,0.0,0.0,0.0,0.0,0.0,0.0,0.0,0.0,0.0,0.0,0.0,0.0,0.0,0.0,0.0,0.0,0.0,0.0,0.0,-4.5434,-5.079,-5.5438,-5.827,-6.1255,-6.2641,-6.1686,-5.8362,-5.4206,-4.9158,0.0,0.0,0.0,0.0,0.0,0.0,0.0,0.0,0.0,0.0,0.0,0.0,0.0,0.0,0.0,0.0,0.0,0.0,0.0,0.0,0.0,0.0,0.0,0.0,0.0,0.0,0.0,0.0,0.0,0.0,0.0,0.0,0.0,0.0,0.0,0.0,0.0,0.0,0.0,0.0,0.0,0.0,0.0,0.0,0.0,0.0,0.0,0.0,0.0,0.0,0.0,0.0,0.0,0.0,0.0,0.0,0.0,0.0,0.0,0.0,0.0,0.0,0.0,0.0,0.0,0.0,0.0,0.0,0.0,0.0,0.0,0.0,0.0,0.0,0.0,0.0,0.0,0.0,0.0,0.0,0.0,0.0,0.0,0.0,0.0,0.0,0.0,0.0,0.0,0.0,0.0,0.0,0.0,0.0,0.0,0.0,0.0,0.0,0.0,0.0,0.0,0.0,-4.4572,-5.0112,-5.4607,-5.6779,-5.987,-6.1255,-5.9901,-5.7315,-5.3498,-4.8142,0.0,0.0,0.0,0.0,0.0,0.0,0.0,0.0,0.0,0.0,0.0,0.0,0.0,0.0,0.0,0.0,0.0,0.0,0.0,0.0,0.0,0.0,0.0,0.0,0.0,0.0,0.0,0.0,0.0,0.0,0.0,0.0,0.0,0.0,0.0,0.0,0.0,0.0,0.0,0.0,0.0,0.0,0.0,0.0,0.0,0.0,0.0,0.0,0.0,0.0,0.0,0.0,0.0,0.0,0.0,0.0,0.0,0.0,0.0,0.0,-4.0226,-3.8435,0.0,0.0,0.0,0.0,0.0,0.0,0.0,0.0,0.0,0.0,0.0,0.0,0.0,0.0,0.0,0.0,0.0,0.0,0.0,0.0,0.0,0.0,0.0,0.0,0.0,0.0,0.0,0.0,0.0,0.0,0.0,0.0,0.0,0.0,0.0,0.0,0.0,0.0,0.0,0.0,-4.6573,-5.1374,-5.5499,-5.8085,-6.0424,-6.1255,-5.9901,-5.7777,-5.4453,-4.9558,-4.5557,0.0,0.0,0.0,0.0,0.0,0.0,0.0,0.0,0.0,0.0,0.0,0.0,0.0,0.0,0.0,0.0,0.0,0.0,0.0,0.0,0.0,0.0,0.0,0.0,0.0,0.0,0.0,0.0,0.0,0.0,0.0,0.0,0.0,0.0,0.0,0.0,0.0,0.0,0.0,0.0,0.0,0.0,0.0,0.0,0.0,0.0,0.0,0.0,0.0,0.0,0.0,0.0,0.0,0.0,0.0,0.0,0.0,0.0,0.0,-4.5728,-4.3388,0.0,0.0,0.0,0.0,0.0,0.0,0.0,0.0,0.0,0.0,0.0,0.0,0.0,0.0,0.0,0.0,0.0,0.0,0.0,0.0,0.0,0.0,0.0,0.0,0.0,0.0,0.0,0.0,0.0,0.0,0.0,0.0,0.0,0.0,0.0,0.0,0.0,0.0,0.0,0.0,-4.7219,-5.1775,-5.5776,-5.8485,-6.0301,-6.0763,-5.9408,-5.7438,-5.436,-4.9959,-4.6181,0.0,0.0,0.0,0.0,0.0,0.0,0.0,0.0,0.0,0.0,0.0,0.0,0.0,0.0,0.0,0.0,0.0,0.0,0.0,0.0,0.0,0.0,0.0,0.0,0.0,0.0,0.0,0.0,0.0,0.0,0.0,0.0,0.0,0.0,0.0,0.0,0.0,0.0,0.0,0.0,0.0,0.0,0.0,0.0,0.0,0.0,0.0,0.0,0.0,0.0,0.0,0.0,0.0,-5.2089,-5.3909,-5.2953,-5.4666,-5.6054,-5.6823,-5.3314,-5.0625,-4.8538,-4.7099,0.0,0.0,0.0,0.0,0.0,0.0,0.0,0.0,0.0,0.0,0.0,0.0,0.0,0.0,0.0,0.0,0.0,0.0,0.0,0.0,0.0,0.0,-4.6172,-4.7527,-4.9466,-4.9743,-4.491,0.0,0.0,0.0,0.0,0.0,0.0,0.0,0.0,0.0,0.0,0.0,-4.7588,-5.1929,-5.5776,-5.8485,-5.9778,-5.9901,-5.8547,-5.6761,-5.4022,-5.0112,-4.688,-4.3895,0.0,0.0,0.0,0.0,0.0,0.0,0.0,0.0,0.0,0.0,0.0,0.0,0.0,0.0,0.0,0.0,0.0,0.0,0.0,0.0,0.0,0.0,0.0,0.0,0.0,0.0,0.0,0.0,0.0,0.0,0.0,0.0,-3.4299,-3.387,0.0,0.0,0.0,0.0,0.0,0.0,0.0,0.0,0.0,0.0,0.0,0.0,0.0,-4.4239,-4.7387,-5.0665,-5.2984,-5.4353,-5.9772,-6.1936,-6.1239,-6.2756,-6.4377,-6.6088,-6.498,0.0,-5.353,-5.1054,0.0,0.0,0.0,0.0,0.0,0.0,0.0,0.0,0.0,0.0,0.0,0.0,0.0,0.0,0.0,0.0,0.0,0.0,0.0,0.0,0.0,0.0,-5.1097,-5.2452,-5.2606,-5.2544,-5.2868,-4.9343,-4.5649,-4.4295,-4.334,-4.2448,0.0,0.0,0.0,0.0,0.0,0.0,-4.8974,-5.2513,-5.5776,-5.8485,-5.8947,-5.8485,-5.7179,-5.6207,-5.4206,-5.079,-4.845,-4.5988,-4.3316,-4.0662,0.0,0.0,0.0,0.0,0.0,0.0,0.0,0.0,0.0,0.0,0.0,0.0,0.0,0.0,0.0,0.0,0.0,0.0,0.0,0.0,0.0,0.0,0.0,0.0,0.0,0.0,0.0,0.0,0.0,-3.4272,-3.5221,-3.3647,-3.5167,-3.5669,0.0,0.0,0.0,0.0,0.0,0.0,0.0,0.0,0.0,-4.6292,-4.6971,-4.8573,-5.1395,-5.6103,-5.8578,-5.884,-6.5293,-6.7665,-6.6363,-6.8503,-6.9905,-7.0736,-7.0459,-6.8304,-6.458,-5.9162,-5.5284,-5.2421,0.0,0.0,0.0,0.0,-4.9928,-5.1682,-5.2236,-5.3314,-5.4237,-5.2944,0.0,0.0,0.0,0.0,0.0,0.0,0.0,-4.8696,-5.0205,-5.2852,-5.5468,-5.6823,-5.7777,-5.8239,-5.7685,-5.5099,-5.1929,-4.8635,-4.7558,-4.6449,-4.4233,-4.294,0.0,0.0,0.0,-4.7373,-5.042,-5.3437,-5.6176,-5.8547,-5.8793,-5.8393,-5.7457,-5.633,-5.4576,-5.199,-4.9528,-4.7311,-4.5341,-4.2694,-4.0755,0.0,0.0,0.0,0.0,0.0,0.0,0.0,0.0,0.0,0.0,0.0,0.0,0.0,0.0,0.0,0.0,0.0,0.0,0.0,0.0,0.0,0.0,0.0,0.0,0.0,0.0,0.0,0.0,-3.5357,-3.6578,-3.4066,-3.7066,-3.819,0.0,0.0,0.0,0.0,0.0,0.0,-4.5017,-4.6319,-4.8409,-5.1557,-5.2235,-5.3673,-5.6088,-6.0778,-6.3233,-6.3427,-6.9396,-7.1774,-7.0872,-7.2884,-7.3845,-7.3999,-7.3845,-7.366,-7.2952,-6.5811,-6.1286,-5.8535,-5.473,-5.3375,-5.356,-5.3868,-5.5191,-5.6946,-5.7931,-5.9162,-5.9932,-5.7562,-5.5653,-5.3714,-5.082,0.0,0.0,0.0,0.0,-5.1805,-5.436,-5.6638,-5.8731,-6.0424,-6.1963,-6.261,-6.0917,-5.9624,-5.7408,-5.2637,-5.1313,-5.002,-4.7127,-4.5688,0.0,-4.4671,-4.6757,-4.9312,-5.1898,-5.4114,-5.6176,-5.8054,-5.7962,-5.7469,-5.6792,-5.5776,-5.433,-5.2329,-5.0266,-4.845,-4.6911,-4.4449,-4.2479,-4.1058,0.0,0.0,0.0,0.0,0.0,0.0,0.0,0.0,0.0,0.0,0.0,0.0,0.0,0.0,0.0,0.0,0.0,0.0,0.0,0.0,0.0,0.0,0.0,0.0,0.0,0.0,0.0,0.0,0.0,-3.5927,-4.0784,0.0,0.0,0.0,0.0,-4.3465,-4.6102,-4.8761,-5.12,-5.2506,-5.4786,-5.8395,-5.9073,-6.0538,-6.2899,-6.4625,-6.6788,-6.9292,-7.18,-7.3875,-7.5624,-7.575,-7.6215,-7.6769,-7.6154,-7.5507,-7.443,-6.8243,-6.5226,-6.4026,-5.9316,-5.7869,-5.8362,-5.7795,-5.9593,-6.2148,-6.0332,-6.0578,-6.1779,-6.224,-6.0609,-5.8208,-5.6779,-5.4914,0.0,0.0,-5.4853,-5.5869,-5.7993,-5.9101,-6.0363,-6.301,-6.3718,-6.3564,-6.2825,-6.2117,-6.0209,-5.539,-5.2975,-5.119,-4.9743,0.0,-4.8142,-4.7496,-4.9189,-5.1282,-5.3345,-5.4252,-5.5315,-5.6779,-5.5715,-5.4621,-5.3991,-5.3868,-5.2944,-5.0913,-5.0667,-4.9682,-4.765,-4.5588,-4.3864,-4.254,-3.9862,0.0,0.0,0.0,0.0,0.0,0.0,0.0,0.0,0.0,0.0,0.0,0.0,0.0,0.0,0.0,0.0,0.0,0.0,0.0,0.0,0.0,0.0,0.0,0.0,0.0,0.0,0.0,0.0,-4.2195,-4.6672,0.0,-4.5614,-4.6808,-4.811,-4.8897,-5.1394,-5.3917,-5.6305,-5.7581,-5.9507,-6.2329,-6.2628,-6.3969,-6.6568,-6.7561,-6.949,-7.237,-7.3499,-7.5019,-7.6646,-7.6646,-7.68,-7.7016,-7.6769,-7.6523,-7.6092,-7.3476,-7.0952,-6.852,-6.5934,-6.4826,-6.4641,-6.4395,-6.5319,-6.655,-6.5411,-6.5349,-6.5288,-6.2425,-6.027,-5.8516,-5.7241,-5.6546,-5.6577,-5.7685,-5.8793,-5.9993,-6.1625,-6.2548,-6.3318,-6.4272,-6.4518,-6.421,-6.3071,-6.2641,-6.1686,-5.9131,-5.6638,-5.4391,-5.2606,-5.1713,-5.1036,-5.0359,-5.1621,-5.3067,-5.4191,-5.4945,-5.553,-5.6023,-5.5253,-5.4591,-5.4345,-5.356,-5.239,-5.079,-4.9866,-4.845,-4.6388,-4.5187,-4.3741,-4.1986,-4.0108,-3.8138,0.0,0.0,0.0,0.0,0.0,0.0,0.0,0.0,0.0,0.0,0.0,0.0,0.0,0.0,0.0,0.0,0.0,0.0,0.0,0.0,0.0,0.0,0.0,0.0,0.0,0.0,-4.7296,-4.7106,-5.1855,-5.4026,-5.1204,-5.2588,-5.3972,-5.4786,-5.7065,-5.929,-6.1298,-6.2329,-6.3686,-6.545,-6.5504,-6.667,-6.8955,-6.993,-7.1635,-7.4129,-7.5015,-7.5996,-7.7016,-7.7016,-7.7016,-7.7016,-7.7016,-7.7016,-7.6985,-7.6523,-7.4892,-7.246,-7.089,-6.9997,-6.9566,-6.9105,-6.9351,-6.9782,-6.8889,-6.7997,-6.6735,-6.3564,-6.1594,-6.0363,-5.9716,-5.9655,-6.0055,-6.1194,-6.2148,-6.3041,-6.3964,-6.4549,-6.4888,-6.4888,-6.4888,-6.4518,-6.3102,-6.2825,-6.2364,-6.0763,-5.9008,-5.7223,-5.5407,-5.4514,-5.3837,-5.316,-5.3806,-5.4545,-5.5007,-5.5253,-5.5284,-5.5037,-5.4453,-5.3914,-5.3745,-5.2883,-5.159,-4.9774,-4.8789,-4.7373,-4.5341,-4.4641,-4.3525,-4.1955,-3.9868,-3.7767,-3.5683,0.0,0.0,0.0,0.0,0.0,0.0,0.0,0.0,0.0,0.0,0.0,0.0,0.0,0.0,0.0,0.0,0.0,0.0,0.0,0.0,0.0,0.0,0.0,-4.1408,-4.6998,-5.0932,-5.0471,-5.6115,-5.8666,-5.5166,-5.853,-6.0945,-6.0945,-6.3116,-6.4934,-6.6128,-6.6725,-6.7295,-6.7941,-6.7968,-6.8751,-7.0339,-7.1769,-7.3234,-7.4787,-7.6227,-7.695,-7.7016,-7.7016,-7.7016,-7.7016,-7.7016,-7.7016,-7.7016,-7.7016,-7.6646,-7.5846,-7.3845,-7.3045,-7.286,-7.1506,-7.1413,-7.1783,-7.0367,-6.8181,-6.5996,-6.5934,-6.5011,-6.4026,-6.4703,-6.4426,-6.3995,-6.4703,-6.4888,-6.4888,-6.4888,-6.4888,-6.4888,-6.4888,-6.4888,-6.4518,-6.3102,-6.2825,-6.221,-6.0209,-5.9809,-5.9347,-5.8042,-5.7272,-5.6594,-5.5838,-5.5715,0.0,-5.5684,-5.513,-5.4406,-5.376,-5.3129,-5.2452,-5.1775,-5.1652,-5.0482,-4.7742,-4.7527,-4.6573,-4.461,-4.3901,-4.3223,-4.2509,-3.9143,-3.7109,-3.645,0.0,0.0,0.0,0.0,0.0,0.0,0.0,0.0,0.0,0.0,0.0,0.0,0.0,0.0,0.0,0.0,0.0,0.0,0.0,0.0,0.0,0.0,-4.7568,-4.7568,-5.2126,-5.6359,-5.8802,-6.1841,-6.3333,-6.2329,-6.3713,-6.4663,-6.4663,-6.6047,-6.7051,-6.7403,-6.7566,-6.8235,-6.9551,-6.9551,-7.0825,-7.3444,-7.2811,-7.3823,-7.636,-7.5631,-7.593,-7.7016,-7.7016,-7.7016,-7.7016,-7.7016,-7.7016,-7.7016,-7.7016,-7.6892,-7.6646,-7.56,-7.4584,-7.366,-7.3291,-7.2645,-7.1783,-7.0367,-6.9105,-6.7812,-6.6365,-6.5657,-6.5288,-6.498,-6.4764,-6.4641,-6.4826,-6.4888,-6.4888,-6.4888,-6.4888,-6.4888,-6.4888,-6.4888,-6.4518,-6.3102,-6.2825,-6.2364,-6.0824,-6.0116,-5.9347,-5.8042,-5.7672,-5.7303,-5.6625,-5.6023,-5.5684,-5.5684,-5.4699,-5.3883,-5.3699,-5.356,-5.2975,-5.1805,-5.082,-4.9281,-4.7004,-4.5495,-4.4024,-4.2479,-4.2232,-4.1586,-4.0385,-3.8901,-3.7798,0.0,0.0,0.0,0.0,0.0,0.0,0.0,0.0,0.0,0.0,0.0,0.0,0.0,0.0,0.0,0.0,0.0,0.0,0.0,0.0,0.0,0.0,-4.963,-5.3347,-5.5355,-5.8042,-6.0837,-6.3713,-6.5395,-6.6318,-6.6318,-6.6644,-6.7162,-6.7781,-6.8441,-6.9129,-6.9821,-6.9821,-7.0266,-7.1117,-7.119,-7.2314,-7.4719,-7.3862,-7.4651,-7.7016,-7.6094,-7.616,-7.7016,-7.7016,-7.7016,-7.7016,-7.7016,-7.7016,-7.7016,-7.7016,-7.6862,-7.6523,0.0,0.0,0.0,0.0,-7.2029,-7.0982,-7.0182,-6.9074,-6.7873,-6.6704,-6.5934,-6.5411,-6.5011,-6.4888,-6.4888,-6.4888,-6.4888,-6.4888,-6.4888,-6.4888,-6.4888,-6.4888,-6.4672,-6.4149,-6.3041,-6.2579,-6.1994,-6.064,-6.0055,0.0,-5.8362,-5.8011,-5.758,-5.6902,-5.6471,-5.6023,-5.5745,-5.5007,-5.433,-5.373,-5.3714,-5.3067,-5.1436,-5.0297,0.0,0.0,0.0,-4.2848,-4.1217,-4.1155,0.0,0.0,0.0,-3.8813,-3.8698,-3.7689,0.0,0.0,-3.5224,-3.4754,0.0,0.0,0.0,0.0,0.0,0.0,0.0,0.0,0.0,0.0,0.0,0.0,0.0,0.0,0.0,0.0,-5.4704,-5.8666,-6.3197,-6.3876,-6.4527,-6.6128,-6.7322,-6.805,-6.8122,-6.8198,-6.8827,-7.0339,-7.0487,-7.1044,-7.2456,-7.2528,0.0,0.0,0.0,-7.3444,-7.4924,-7.4924,-7.5661,-7.7016,-7.7016,-7.7016,-7.7016,-7.7016,-7.7016,-7.7016,-7.7016,-7.6985,-7.6892,-7.6985,-7.6585,-7.5815,-7.5076,-7.4399,-7.363,-7.1629,-7.0521,-6.9997,-6.9936,0.0,0.0,-6.6981,-6.6057,-6.5011,-6.4918,-6.4888,-6.4888,-6.4888,-6.4888,-6.4888,-6.4888,-6.4826,-6.4764,-6.4764,-6.4241,-6.3533,-6.2856,-6.224,-6.144,-6.0147,-5.9839,-5.9593,-5.9008,-5.827,-5.7611,-5.7025,-5.6779,-5.6471,-5.5776,-5.5561,-5.5007,-5.3837,-5.3714,0.0,-5.0882,-5.0082,-4.8296,-4.5041,-4.4055,-4.2756,-4.0905,-4.0782,-4.0751,-4.0843,-4.0248,-4.0279,-4.0935,-3.9636,-3.9313,-3.9896,-3.8296,-3.7514,0.0,0.0,0.0,0.0,0.0,0.0,0.0,0.0,0.0,0.0,0.0,0.0,0.0,0.0,0.0,-5.5301,-5.9371,-6.3035,-6.5911,-6.6725,-6.7159,-6.7512,-6.819,-6.8919,-6.9681,-6.9774,-7.0413,-7.1956,-7.2028,-7.2171,-7.2456,-7.2528,-7.3023,-7.4208,-7.4277,-7.5022,-7.6523,-7.6589,-7.6722,-7.7016,-7.7016,0.0,-7.7016,-7.7016,-7.7016,-7.7016,-7.7016,-7.6708,-7.6246,-7.68,-7.6308,-7.5076,-7.3845,-7.3291,-7.2983,-7.1475,-7.0828,-7.0644,-7.009,-6.9289,-6.8335,-6.7258,-6.6365,-6.5596,-6.5072,-6.4888,0.0,-6.4888,-6.4888,-6.4888,-6.4888,-6.4457,-6.4026,-6.4026,-6.3502,-6.2825,-6.2148,-6.1902,-6.1563,-6.0763,-6.0178,-5.9747,-5.9624,-5.8577,-5.7765,-5.7641,-5.6607,-5.5838,-5.5715,-5.476,-5.4022,-5.3745,-5.3714,-5.2914,-5.0882,-5.0082,-4.8696,-4.6357,-4.4579,-4.3439,-4.3039,-4.2479,-4.2448,-4.2971,-4.2861,-4.3137,-4.3802,-4.2995,-4.2677,-4.2757,-3.9617,-3.8222,0.0,0.0,0.0,0.0,0.0,0.0,0.0,0.0,0.0,0.0,0.0,-4.6211,0.0,0.0,-5.6577,-6.0158,-6.3008,-6.5395,-6.7213,-6.8606,-6.9385,-6.9081,-6.9302,-6.996,-7.1219,-7.1335,-7.1956,-7.3514,-7.3584,-7.3932,-7.4749,-7.4749,-7.509,-7.5796,-7.5863,-7.6227,-7.7016,-7.7016,-7.7016,-7.7016,-7.7016,-7.7016,-7.7016,-7.7016,-7.7016,-7.7016,-7.7016,-7.6646,-7.5969,-7.5661,-7.5107,-7.4338,-7.2614,-7.1937,-7.1813,-7.0767,-7.0182,-6.9843,-6.9505,-6.8951,-6.8243,-6.7227,-6.6457,-6.578,-6.5103,-6.4888,-6.4888,-6.4888,-6.4888,-6.4888,-6.4888,-6.4641,-6.4272,-6.3903,-6.3318,-6.2641,-6.1963,-6.1532,-6.1194,-6.0855,-6.0517,-6.0178,-5.9839,-5.8947,-5.8227,-5.7857,-5.6933,-5.6084,-5.5745,-5.513,-5.4453,-5.3775,-5.3714,-5.2914,-5.0882,-4.9127,-4.7558,-4.6172,-4.4856,-4.4117,-4.4117,-4.3771,-4.3741,-4.4117,-4.4456,-4.4795,-4.5095,-4.5095,-4.5095,-4.5064,-4.3304,-4.2144,0.0,0.0,0.0,0.0,0.0,0.0,0.0,0.0,-4.5204,-4.7271,-4.9576,-5.1987,-5.4386,-5.7662,-6.1054,-6.4147,-6.5889,-6.723,-6.8187,-7.0118,-7.1319,-7.1101,-7.0939,-7.1405,-7.2811,-7.2953,-7.3514,-7.4992,-7.5128,-7.5728,-7.695,-7.7016,-7.7016,-7.7016,-7.7016,-7.7016,-7.7016,-7.7016,-7.7016,-7.7016,-7.7016,-7.7016,-7.7016,-7.7016,-7.7016,-7.7016,-7.6739,-7.6308,-7.5723,-7.4368,-7.3783,-7.363,-7.1813,-7.0952,-7.0613,-6.9936,-6.9351,-6.8889,-6.8889,-6.8366,-6.7627,-6.7104,-6.6365,-6.5596,-6.5072,-6.4888,-6.4888,-6.4888,-6.4888,-6.4888,-6.4888,-6.4703,-6.4334,-6.3779,-6.301,-6.2271,-6.1717,-6.1194,-6.0794,-6.0794,-6.0794,-6.0578,-5.9901,-5.9224,-5.8547,-5.7919,-5.7241,-5.6563,-5.5776,-5.5592,-5.5037,-5.3837,-5.3498,-5.2575,-5.0667,-4.8327,-4.6757,-4.6203,-4.5526,-4.5157,-4.5157,-4.5033,-4.5033,-4.5157,-4.5711,-4.6049,-4.6172,-4.6449,-4.6665,-4.6788,-4.6511,-4.5895,-3.9893,-3.949,-4.0327,-4.2731,-4.3628,-4.5543,0.0,0.0,-5.3355,-5.5736,-5.7668,-5.899,-5.9176,-6.1651,-6.4201,-6.5694,-6.8059,-6.9755,-6.9895,-7.132,-7.2828,-7.4031,-7.3479,-7.3382,-7.4337,-7.4415,-7.506,-7.6656,-7.6722,-7.6818,-7.7016,-7.7016,-7.7016,-7.7016,-7.7016,-7.7016,-7.7016,-7.7016,-7.7016,-7.7016,-7.7016,-7.7016,-7.7016,-7.7016,-7.7016,-7.6954,-7.5754,-7.5169,-7.5015,-7.366,-7.3106,-7.3014,-7.2183,-7.1105,-6.9936,-6.9259,-6.8951,-6.8889,-6.8889,-6.8058,-6.7012,-6.695,-6.6057,-6.5011,-6.4918,-6.4888,-6.4888,-6.4888,-6.4888,-6.4888,-6.4888,-6.3964,-6.301,-6.2948,-6.1963,-6.1009,-6.0917,-6.0855,-6.0794,-6.0794,-6.0794,-6.0578,-5.9901,-5.9224,-5.8547,-5.7919,-5.7241,-5.6563,-5.5776,-5.5191,-5.4545,-5.3806,-5.2637,-5.1344,-4.9928,-4.8943,-4.8358,-4.8296,-4.765,-4.725,-4.725,-4.6696,-4.6665,-4.725,-4.7342,-4.7681,-4.8266,-4.7157,-4.6911,-4.7465,-4.6265,-4.5926,-4.3187,-4.3063,0.0,0.0,-4.9157,-5.2139,-5.6617,-5.8171,-5.9414,-6.1938,-6.3946,-6.5343,-6.5617,-6.7537,-6.922,0.0,-7.0776,-7.1553,-7.1553,-7.249,-7.3171,-7.2939,-7.3417,-7.4359,-7.5869,-7.5662,-7.5897,-7.6919,-7.7016,-7.7016,-7.7016,-7.7016,-7.7016,-7.7016,-7.7016,-7.7016,-7.7016,-7.7016,-7.7016,-7.7016,-7.7016,-7.7016,-7.7016,-7.7016,-7.68,-7.6338,-7.4584,-7.3845,-7.3722,-7.2337,-7.1783,-7.1721,-7.1044,-7.0398,-6.9874,-6.9566,-6.9228,-6.8889,-6.8889,-6.8274,-6.7442,-6.7042,-6.6273,-6.5411,-6.5011,-6.4888,-6.4888,-6.4888,-6.4888,-6.4795,-6.4395,-6.3841,-6.3195,-6.2425,-6.1809,-6.1286,-6.0886,-6.0794,-6.0794,-6.0794,-6.0794,-6.0455,-5.9378,-5.8978,-5.827,-5.6792,-5.6717,-5.6361,-5.5284,-5.4837,-5.4129,-5.2698,-5.1682,-5.0728,-4.9774,-4.9035,-4.8604,-4.8604,-4.8358,-4.8204,-4.8204,-4.7927,-4.7896,-4.8173,-4.8204,-4.8327,-4.8604,-4.805,-4.7711,-4.7588,-4.7034,-4.6911,-4.4849,0.0,0.0,-5.0759,-5.4668,-5.8485,-6.1594,-6.3604,-6.5436,-6.7661,-6.8926,-6.9696,-6.9894,-7.0715,-7.1399,-7.1644,-7.2169,-7.2566,-7.2566,-7.3274,-7.3274,-7.1948,-7.2235,-7.3229,-7.4892,-7.5476,-7.6,-7.6677,-7.6923,-7.7016,-7.7016,-7.7016,-7.7016,-7.7016,-7.7016,-7.7016,-7.7016,-7.7016,-7.7016,-7.7016,-7.7016,-7.7016,-7.7016,-7.6831,-7.6184,-7.5076,-7.363,-7.2768,-7.2337,-7.1321,-7.0798,-7.0582,-7.009,-6.9659,-6.9351,-6.9351,-6.9043,-6.8612,-6.8612,-6.8058,-6.7289,-6.6796,-6.618,-6.5534,-6.5042,-6.4888,-6.4888,-6.4888,-6.4764,-6.4487,-6.3964,-6.3687,-6.3256,-6.2086,-6.1809,-6.1625,-6.0948,-6.0794,-6.0763,-6.0547,-6.0517,-6.0086,-5.8731,-5.8485,-5.7931,-5.6238,-5.6269,-5.5992,-5.4591,-5.4252,-5.3529,-5.1898,-5.1097,-5.042,-4.9743,-4.9035,-4.8604,-4.8604,-4.8604,-4.8604,-4.8604,-4.8604,-4.8604,-4.8604,-4.8604,-4.8604,-4.8604,-4.8419,-4.8081,-4.7619,-4.7619,-4.7619,0.0,0.0,-4.9909,-5.5269,-5.9593,-6.3656,-6.7689,-7.0213,-7.2025,-7.322,-7.2498,-7.134,-7.0534,-6.9348,-6.8769,-6.9377,-7.1285,-7.2671,-7.2671,-7.3438,-7.3475,-7.2121,-7.0244,-6.932,0.0,-7.3106,-7.5323,-7.6,-7.6646,-7.7016,-7.7016,-7.7016,-7.7016,-7.7016,-7.7016,-7.7016,-7.7016,-7.7016,-7.7016,-7.7016,-7.7016,-7.7016,-7.6985,-7.6338,-7.4953,-7.3076,-7.3014,-7.2214,-7.0952,-7.0921,-7.0521,-6.9936,-6.9905,-6.9105,-6.7997,-6.7997,-6.7966,-6.7966,-6.7966,-6.7073,-6.5965,-6.5934,-6.5472,-6.4918,-6.4918,-6.4888,-6.4888,-6.4888,-6.4395,-6.3841,-6.3841,-6.3349,-6.2671,-6.1963,-6.1809,-6.1625,-6.0948,-6.0794,-6.0609,-5.9963,-5.9809,-5.9378,-5.8073,-5.7857,-5.7611,-5.6871,-5.6146,-5.5253,-5.3929,-5.3191,-5.2513,-5.1775,-5.1097,-5.042,-4.9743,-4.9035,-4.8604,-4.8604,-4.8604,-4.8604,-4.8604,-4.8604,-4.8604,-4.8604,-4.8604,-4.8604,-4.8604,-4.7958,-4.7619,-4.7619,-4.7619,-4.7619,0.0,0.0,-5.5392,-6.0794,-6.4857,-6.8458,-7.2121,-7.3814,-7.4641,-7.4619,-7.2416,-7.0127,-6.8997,-6.7668,-6.7125,-6.824,-7.0518,-7.2385,-7.2843,-7.3499,-7.2829,-6.9659,-6.9443,0.0,0.0,0.0,0.0,-7.3876,-7.5046,-7.5877,-7.6338,-7.6769,-7.7016,-7.7016,-7.7016,-7.7016,-7.7016,-7.7016,-7.7016,-7.7016,-7.7016,-7.7016,-7.6954,-7.5384,-7.4307,-7.3537,-7.1259,-6.9997,-6.9536,-6.9105,-6.852,-6.7997,-6.8889,-6.8427,-6.7319,-6.775,-6.735,-6.6642,-6.7104,-6.6673,-6.5903,-6.5903,-6.5442,-6.4888,-6.4888,-6.4888,-6.4888,-6.4888,-6.4734,-6.4426,-6.3964,-6.3318,-6.2641,-6.1963,-6.1471,-6.1071,-6.0855,-6.0794,-6.0732,-6.0517,-6.0086,-5.9501,-5.8608,-5.8054,-5.7426,-5.6207,-5.5468,-5.473,-5.3837,-5.3129,-5.2452,-5.1775,-5.1498,-5.0913,-4.9774,-4.9466,-4.9127,-4.8635,-4.8604,-4.8604,-4.8604,-4.8604,-4.8604,-4.8604,-4.8604,-4.8389,-4.7958,-4.8173,-4.7588,-4.6296,-4.7188,-4.7127,-5.0851,-5.5684,-6.0547,-6.575,-6.9413,-7.2368,-7.4799,-7.5323,-7.4953,-7.3783,-7.0428,-6.7165,-6.5349,-6.3502,-6.2794,-6.4395,-6.6735,-6.9012,-7.0921,-7.1352,-7.0675,-6.852,-6.8397,-6.7904,0.0,0.0,0.0,-7.246,-7.4338,-7.5569,-7.6,-7.6646,-7.7016,-7.7016,-7.7016,-7.7016,-7.7016,-7.7016,-7.7016,-7.7016,-7.7016,-7.6769,-7.6246,-7.4707,-7.3445,-7.2398,-6.9936,-6.8612,-6.815,-6.775,-6.7319,-6.7012,-6.7843,-6.7504,-6.6611,-6.7042,-6.6488,-6.5657,-6.6334,-6.6119,-6.5534,-6.5534,-6.5257,-6.4888,-6.4888,-6.4888,-6.4888,-6.4888,-6.4703,-6.4395,-6.3933,-6.3502,-6.2948,-6.2025,-6.1656,-6.1379,-6.0886,-6.0794,-6.0732,-6.0486,-5.9901,-5.9224,-5.8547,-5.7919,-5.7087,-5.5869,-5.513,-5.4437,-5.3806,-5.3129,-5.2544,-5.2113,-5.1836,-5.1344,-5.0482,-5.0205,-4.9743,-4.9035,-4.9004,-4.8881,-4.8635,-4.8604,-4.8604,-4.8604,-4.8604,-4.8296,-4.7619,-4.8296,-4.7681,-4.5988,-4.7342,-4.725,-5.5639,-6.0547,-6.5288,-6.9967,-7.3076,-7.5169,-7.5784,-7.4799,-7.3137,-7.089,-6.6642,-6.2456,0.0,0.0,-5.6067,-5.8239,-6.0455,-6.3318,-6.7412,-6.7504,-6.7627,0.0,0.0,0.0,0.0,0.0,0.0,-7.1813,-7.4399,-7.5907,-7.6,-7.6646,-7.7016,-7.7016,-7.7016,-7.7016,-7.7016,-7.7016,-7.7016,-7.7016,-7.6985,-7.6308,-7.5015,-7.4245,-7.2429,-6.9905,-6.9105,-6.8058,-6.6858,-6.6858,-6.6858,-6.6827,-6.6888,-6.6488,-6.5842,-6.5903,-6.5472,-6.498,-6.5626,-6.5442,-6.4888,-6.4888,-6.4888,-6.4888,-6.4888,-6.4888,-6.4888,-6.4888,-6.4395,-6.3872,-6.3872,-6.3841,-6.3502,-6.221,-6.2364,-6.2425,-6.1132,-6.0824,-6.0609,-5.9963,-5.9255,-5.8577,-5.7949,-5.7272,-5.6563,-5.5807,-5.513,-5.4468,-5.3822,-5.316,-5.2729,-5.276,-5.2144,-5.1744,-5.1713,-5.1097,-5.0389,-4.9712,-4.9651,-4.9312,-4.8635,-4.8604,-4.8604,-4.8604,-4.8604,-4.8296,-4.7619,-4.8296,-4.7927,-4.6634,-4.7958,-4.7835,-6.0086,-6.5103,-6.9874,-7.3137,-7.4491,-7.4922,-7.4584,-7.2645,-6.9659,-6.5072,-5.9963,-5.5161,0.0,0.0,0.0,-5.5253,-6.0024,0.0,-6.815,-6.9813,0.0,-6.972,0.0,-7.009,-6.9228,-7.0675,0.0,0.0,-7.3353,-7.443,-7.5938,-7.6646,-7.7016,-7.7016,-7.7016,-7.7016,-7.7016,-7.7016,-7.7016,-7.7016,-7.6492,-7.6092,-7.5692,-7.3476,-7.1813,-7.0521,-6.8366,-6.695,-6.615,-6.615,-6.5873,-6.5503,-6.6519,-6.6211,-6.5226,-6.5719,-6.5472,-6.4918,-6.5103,-6.5042,-6.4888,-6.4888,-6.4888,-6.4888,-6.4888,-6.4888,-6.4888,-6.4888,-6.4764,-6.4641,-6.4641,-6.4241,-6.3749,-6.3379,-6.2671,-6.1963,-6.1625,-6.1163,-6.0763,-6.0578,-5.9593,-5.8577,-5.7949,-5.7272,-5.6563,-5.5807,-5.513,-5.4621,-5.4437,-5.3437,-5.2914,-5.3406,-5.2852,-5.2236,-5.1744,-5.1097,-5.0389,-4.9712,-4.9189,-4.882,-4.8635,-4.8604,-4.8604,-4.8604,-4.8604,-4.8296,-4.7619,-4.8296,-4.7927,-4.6603,-4.7465,-4.7127,-6.4734,-6.9228,-7.3137,-7.4984,-7.5015,-7.3999,-7.1813,-6.852,-6.4272,-5.8547,-5.3529,0.0,0.0,0.0,0.0,0.0,0.0,0.0,-6.6457,-6.8397,-6.9782,0.0,-7.169,0.0,-7.1721,-7.2737,-7.366,0.0,-7.4307,-7.4799,-7.5938,-7.6646,-7.7016,-7.7016,-7.7016,-7.7016,-7.7016,-7.7016,-7.7016,-7.7016,-7.6338,-7.5846,-7.5476,-7.3076,-7.1259,-6.9905,-6.7812,-6.6365,-6.5472,-6.5472,-6.5226,-6.498,-6.5719,-6.5565,-6.4949,-6.5319,-6.5226,-6.4888,-6.4888,-6.4888,-6.4888,-6.4888,-6.4888,-6.4888,-6.4888,-6.4888,-6.4888,-6.4888,-6.4888,-6.4888,-6.4888,-6.4611,-6.4149,-6.3533,-6.2794,-6.2086,-6.1502,-6.1071,-6.0701,-6.0424,-5.9501,-5.8577,-5.7949,-5.7272,-5.6686,-5.6238,-5.5592,-5.5161,-5.5161,-5.3714,-5.2852,-5.3252,-5.2944,-5.2575,-5.2175,-5.1805,-5.1159,-5.0205,-4.9743,-4.9251,-4.8635,-4.8604,-4.8604,-4.8604,-4.8604,-4.8296,-4.7619,-4.8296,-4.7927,-4.6603,-4.7281,-4.688,-6.9197,-7.2737,-7.5261,-7.5846,-7.4769,-7.2491,-6.8335,-6.3564,-5.8239,-5.2021,0.0,-4.4079,-4.1401,-4.214,-4.4202,-4.7373,0.0,-5.7131,-6.4057,-6.5842,-6.8058,-7.246,-7.2706,-7.3014,-7.4276,-7.4399,-7.4892,-7.6061,-7.6154,-7.6154,-7.6154,-7.6708,-7.7016,-7.7016,-7.7016,-7.7016,-7.7016,-7.7016,-7.6985,-7.6892,-7.6215,-7.5538,-7.4799,-7.2768,-7.0798,-6.8951,-6.7535,-6.6211,-6.5042,-6.4949,-6.4888,-6.4888,-6.4888,-6.4888,-6.4888,-6.4888,-6.4888,-6.4888,-6.4888,-6.4888,-6.4888,-6.4888,-6.4888,-6.4888,-6.4888,-6.4888,-6.4888,-6.4888,-6.4888,-6.4888,-6.4888,-6.4888,-6.458,-6.3256,-6.2887,-6.2487,-6.1194,-6.0855,-6.064,-6.0055,-5.9316,-5.8608,-5.7993,-5.7303,-5.6779,-5.6686,-5.6023,-5.553,-5.5438,-5.3929,-5.2852,-5.2852,-5.276,-5.2667,-5.2575,-5.2575,-5.2021,-5.0636,-5.0574,-4.9989,-4.8666,-4.8604,-4.8604,-4.8604,-4.8604,-4.8327,-4.7742,-4.8327,-4.7958,-4.6726,-4.725,-4.6788,-7.2306,-7.4522,-7.5846,-7.5969,-7.3691,-7.0244,-6.5626,-6.0024,0.0,0.0,0.0,-4.057,-3.7892,-3.94,0.0,-4.8419,0.0,0.0,0.0,0.0,-7.0151,0.0,0.0,0.0,0.0,0.0,0.0,0.0,-7.6831,-7.6831,-7.6831,-7.6954,-7.7016,-7.7016,-7.7016,-7.7016,-7.7016,-7.7016,-7.6739,-7.6184,-7.5507,-7.483,-7.4091,-7.2029,-7.0582,-6.9628,-6.772,-6.6457,-6.5688,-6.5134,-6.4888,-6.4888,-6.4888,-6.4888,-6.4888,-6.4888,-6.4888,-6.4888,-6.4888,-6.4888,-6.4888,-6.4888,-6.4888,-6.4888,-6.4888,-6.4888,-6.4888,-6.4888,-6.4888,-6.4888,-6.4888,-6.4888,-6.4672,-6.3841,-6.3225,-6.261,-6.1809,-6.1194,-6.0763,-6.064,-5.9624,-5.8731,-5.8639,-5.7641,-5.6594,-5.5961,-5.5315,-5.4699,-5.4145,-5.3775,-5.356,-5.356,-5.3037,-5.2483,-5.1929,-5.1867,-5.1313,-4.9959,-4.9866,-4.9497,-4.8666,-4.8604,-4.8604,-4.8604,-4.8604,-4.8543,-4.845,-4.8543,-4.8204,-4.7434,-4.6973,-4.6357,-7.326,-7.523,-7.6461,-7.6092,-7.2398,-6.7319,-6.1502,0.0,0.0,0.0,0.0,-3.8046,-3.6722,0.0,0.0,0.0,0.0,0.0,0.0,0.0,0.0,0.0,0.0,0.0,0.0,0.0,-7.7016,-7.7016,-7.7016,-7.7016,-7.7016,-7.7016,-7.7016,-7.7016,-7.7016,-7.7016,-7.7016,-7.7016,-7.6677,-7.6,-7.5323,-7.4461,-7.3414,-7.169,-7.0336,-6.9289,-6.7627,-6.6519,-6.5842,-6.5165,-6.4888,-6.4888,-6.4888,-6.4888,-6.4888,-6.4888,-6.4888,-6.4888,-6.4888,-6.4888,-6.4888,-6.4888,-6.4888,-6.4888,-6.4888,-6.4888,-6.4888,-6.4888,-6.4888,-6.4826,-6.4426,-6.4334,-6.4087,-6.301,-6.2271,-6.1686,-6.1348,-6.104,-6.0794,-6.0794,-5.9716,-5.8793,-5.8793,-5.7703,-5.6686,-5.6347,-5.5653,-5.5007,-5.4283,-5.3929,-5.3591,-5.3221,-5.2914,-5.2452,-5.1775,-5.1713,-5.1128,-4.9774,-4.9682,-4.9374,-4.8635,-4.8604,-4.8604,-4.8604,-4.8604,-4.8604,-4.8604,-4.8604,-4.8081,-4.7065,-4.6757,-4.6049,-7.3568,-7.5476,-7.6615,-7.5784,-7.0982,-6.4703,-5.7869,-5.1067,0.0,0.0,-3.6969,-3.6507,-3.6507,0.0,0.0,0.0,0.0,0.0,0.0,0.0,0.0,0.0,0.0,0.0,0.0,0.0,0.0,-7.7016,-7.7016,-7.7016,-7.7016,-7.7016,-7.7016,-7.7016,-7.7016,-7.7016,-7.7016,-7.7016,-7.6615,-7.5784,-7.5261,-7.4214,-7.2737,-7.1475,-7.0244,-6.9012,-6.7566,-6.6611,-6.6057,-6.5226,-6.4888,-6.4888,-6.4888,-6.4888,-6.4888,-6.4888,-6.4888,-6.4888,-6.4888,-6.4888,-6.4888,-6.4888,-6.4888,-6.4888,-6.4888,-6.4888,-6.4888,-6.4888,-6.4795,-6.4549,-6.3964,-6.3718,-6.3318,-6.2086,-6.1286,-6.0794,-6.0794,-6.0794,-6.0794,-6.0794,-5.9716,-5.8793,-5.8793,-5.7703,-5.681,-5.681,-5.6146,-5.5468,-5.4775,-5.4099,-5.3468,-5.279,-5.2698,-5.2452,-5.1775,-5.1713,-5.1128,-4.9774,-4.9682,-4.9374,-4.8635,-4.8604,-4.8604,-4.8604,-4.8604,-4.8604,-4.8604,-4.8604,-4.7927,-4.6603,-4.6603,-4.5865,-7.3999,-7.5507,-7.5784,-7.4491,-6.9597,-6.3287,-5.6484,0.0,0.0,0.0,-3.6969,-3.6507,-3.6507,-3.6692,0.0,0.0,0.0,0.0,0.0,0.0,0.0,0.0,0.0,0.0,0.0,0.0,-7.7016,-7.7016,-7.7016,-7.7016,-7.7016,-7.7016,-7.7016,-7.7016,-7.7016,-7.7016,-7.7016,-7.7016,-7.6369,-7.5076,-7.5015,-7.3968,-7.2029,-7.1259,-7.049,-6.969,-6.775,-6.6888,-6.6735,-6.5442,-6.4888,-6.4888,-6.4888,-6.4888,-6.4888,-6.4888,-6.4888,-6.4888,-6.4888,-6.4888,-6.4888,-6.4888,-6.4888,-6.4888,-6.4888,-6.4888,-6.4888,-6.4888,-6.4426,-6.3903,-6.3841,-6.3379,-6.2733,-6.1994,-6.1286,-6.0794,-6.0794,-6.0794,-6.0794,-6.0794,-5.9716,-5.8793,-5.8793,-5.7703,-5.681,-5.681,-5.6146,-5.5468,-5.4775,-5.4099,-5.3468,-5.279,-5.2698,-5.2452,-5.1775,-5.1713,-5.1128,-4.9774,-4.9682,-4.9374,-4.8635,-4.8604,-4.8604,-4.8604,-4.8604,-4.8604,-4.8604,-4.8604,-4.7927,-4.6603,-4.6603,-4.5865,-7.0675,-7.363,-7.4984,-7.3229,-6.7873,-6.1379,-5.4976,0.0,0.0,-3.7707,-3.6692,-3.6507,-3.6507,-3.6507,-3.703,0.0,0.0,0.0,0.0,0.0,0.0,0.0,0.0,0.0,0.0,0.0,-7.7016,-7.7016,-7.7016,-7.7016,-7.7016,-7.7016,-7.7016,-7.7016,-7.7016,-7.6831,-7.64,-7.64,-7.5723,-7.4399,-7.4399,-7.3322,-7.1321,-7.1044,-7.009,-6.8643,-6.7442,-6.6673,-6.6242,-6.5288,-6.4888,-6.4888,-6.4888,-6.4888,-6.4888,-6.4888,-6.4888,-6.4888,-6.4888,-6.4888,-6.4888,-6.4888,-6.4888,-6.4888,-6.4888,-6.458,-6.4241,-6.4241,-6.3749,-6.3133,-6.2702,-6.2117,-6.1532,-6.1255,-6.1009,-6.0794,-6.0794,-6.0794,-6.0794,-6.0794,-6.0024,-5.9255,-5.8854,-5.7993,-5.7272,-5.6871,-5.5807,-5.5007,-5.4714,-5.373,-5.3006,-5.2729,-5.2698,-5.2452,-5.1775,-5.1713,-5.1128,-4.9774,-4.9682,-4.9374,-4.8635,-4.8604,-4.8604,-4.8604,-4.8604,-4.8604,-4.8604,-4.8604,-4.8112,-4.7188,-4.6788,-4.608,-6.655,-7.0736,-7.3353,-7.1506,-6.5934,-5.9408,0.0,0.0,0.0,-3.7153,-3.6507,-3.6507,-3.6507,-3.6507,-3.6507,0.0,0.0,0.0,0.0,0.0,0.0,0.0,0.0,0.0,0.0,-7.5415,-7.7016,-7.7016,-7.7016,-7.7016,-7.7016,-7.6831,-7.6831,-7.7016,-7.6831,-7.6492,-7.6,-7.5815,-7.5015,-7.3691,-7.3691,-7.2614,-7.0613,-7.0398,-6.9443,-6.7873,-6.7012,-6.6334,-6.5842,-6.5165,-6.4888,-6.4888,-6.4888,-6.4888,-6.4888,-6.4888,-6.4888,-6.4888,-6.4888,-6.4888,-6.4888,-6.4888,-6.4764,-6.458,-6.458,-6.4241,-6.3779,-6.3595,-6.3041,-6.2364,-6.1686,-6.1163,-6.0794,-6.0794,-6.0794,-6.0794,-6.0794,-6.0794,-6.0794,-6.0794,-6.024,-5.9562,-5.8885,-5.8208,-5.758,-5.6902,-5.5776,-5.4898,-5.4714,-5.3714,-5.2944,-5.2729,-5.2698,-5.2513,-5.2052,-5.1805,-5.1221,-5.0051,-4.9805,-4.9374,-4.8635,-4.8604,-4.8604,-4.8604,-4.8604,-4.8604,-4.8604,-4.8604,-4.8266,-4.7588,-4.6911,-4.6111,-6.2148,-6.6827,-7.0613,-6.9259,-6.381,-5.7562,0.0,0.0,-3.9736,-3.7061,-3.6507,-3.6507,-3.6507,-3.6507,-3.6507,-3.6507,0.0,0.0,0.0,0.0,0.0,0.0,0.0,0.0,0.0,-7.3476,-7.7016,-7.7016,-7.7016,-7.7016,-7.7016,-7.64,-7.6338,-7.6985,-7.6369,-7.6031,-7.6,-7.5353,-7.4338,-7.2983,-7.2983,-7.1906,-6.9874,-6.9197,-6.8551,-6.7843,-6.6488,-6.5903,-6.5842,-6.5165,-6.4888,-6.4888,-6.4888,-6.4888,-6.4888,-6.4888,-6.4888,-6.4888,-6.4888,-6.4888,-6.4888,-6.4888,-6.4426,-6.3787,-6.3787,-6.3841,-6.3687,-6.301,-6.2333,-6.1656,-6.0978,-6.0794,-6.0794,-6.0794,-6.0794,-6.0794,-6.0794,-6.0794,-6.0794,-6.0794,-6.024,-5.9562,-5.8885,-5.8208,-5.758,-5.6902,-5.6146,-5.5438,-5.4775,-5.4099,-5.3468,-5.279,-5.2698,-5.2698,-5.2698,-5.2082,-5.1405,-5.0728,-5.0051,-4.9374,-4.8635,-4.8604,-4.8604,-4.8604,-4.8604,-4.8604,-4.8604,-4.8604,-4.8266,-4.7588,-4.6911,-4.5865,-5.4114,-5.7469,-5.9532,-5.8177,-5.4822,-5.082,-4.7004,0.0,-3.8631,-3.6846,-3.6507,-3.6507,-3.6507,-3.6507,-3.6938,-3.8323,0.0,0.0,0.0,0.0,0.0,0.0,0.0,0.0,0.0,0.0,-7.7016,-7.7016,-7.6585,-7.6338,-7.6338,-7.5692,-7.563,-7.6308,-7.5661,-7.5107,-7.4645,-7.443,-7.3876,-7.2983,-7.2521,-7.169,-7.0551,-6.9874,-6.8705,-6.7196,-6.6796,-6.6057,-6.5195,-6.498,-6.4888,-6.4888,-6.4888,-6.4888,-6.4888,-6.4888,-6.4888,-6.4888,-6.4888,-6.458,-6.418,-6.418,-6.3687,-6.3041,-6.2579,-6.2456,-6.2302,-6.1625,-6.1286,-6.1071,-6.0855,-6.0794,-6.0794,-6.0794,-6.0794,-6.0794,-6.0794,-6.0794,-6.0794,-6.0794,-6.024,-5.9562,-5.8885,-5.8208,-5.7426,-5.6207,-5.5468,-5.4745,-5.4068,-5.3437,-5.2944,-5.2729,-5.2698,-5.2698,-5.2698,-5.2513,-5.2113,-5.1436,-5.0759,-5.0051,-4.9374,-4.8881,-4.8604,-4.8604,-4.8604,-4.8604,-4.8604,-4.8604,-4.8266,-4.7588,-4.7373,-4.6573,0.0,-5.1251,-5.3345,-5.2236,-4.9682,0.0,0.0,0.0,-3.78,-3.6722,-3.6507,-3.6507,-3.6507,-3.6507,-3.6907,0.0,0.0,0.0,0.0,0.0,0.0,0.0,0.0,0.0,0.0,-7.5969,-7.7016,-7.7016,-7.64,-7.6,-7.6,-7.5138,-7.4707,-7.4861,-7.4707,-7.4307,-7.363,-7.3353,-7.2768,-7.1813,-7.1383,-7.0705,-6.9751,-6.9074,-6.7966,-6.6519,-6.6273,-6.5688,0.0,-6.4888,-6.4888,-6.4888,-6.4888,-6.4888,-6.4888,-6.4888,-6.4888,-6.4857,-6.458,-6.421,-6.3779,-6.3533,-6.2979,-6.2302,-6.1625,-6.144,-6.1348,-6.0917,-6.0794,-6.0794,-6.0794,-6.0794,-6.0794,-6.0794,-6.0794,-6.0794,-6.0794,-6.0794,-6.0794,-6.0794,-6.024,-5.9562,-5.8885,-5.8208,-5.7426,-5.6269,-5.5315,-5.4529,-5.4099,-5.3283,-5.2698,-5.2698,-5.2698,-5.2698,-5.2698,-5.2698,-5.2421,-5.1744,-5.1313,-5.0759,-5.0082,-4.9404,-4.9035,-4.9035,-4.8758,-4.8604,-4.8604,-4.8604,-4.8266,-4.7619,-4.7619,-4.688,0.0,0.0,0.0,0.0,0.0,0.0,0.0,0.0,0.0,-3.663,-3.6507,-3.6507,-3.6569,-3.6538,0.0,0.0,0.0,0.0,0.0,0.0,0.0,0.0,0.0,0.0,-7.0059,-7.4338,-7.6985,-7.6954,-7.6338,-7.5907,-7.5877,-7.4584,-7.3568,-7.2922,-7.3414,-7.3414,-7.2829,-7.2214,-7.1229,-6.9905,-6.9843,-6.9166,-6.7904,-6.7227,-6.655,-6.5873,-6.5226,-6.4949,-6.4888,-6.4888,-6.4888,-6.4888,-6.4888,-6.4888,-6.4888,-6.4826,-6.4857,-6.4795,-6.4026,-6.3749,-6.3626,-6.2918,-6.224,-6.1625,-6.0978,-6.0794,-6.0794,-6.0794,-6.0794,-6.0794,-6.0794,-6.0794,-6.0794,-6.0794,-6.0794,-6.0794,-6.0794,-6.0794,-6.0794,-6.0794,-6.0209,-5.9501,-5.8885,-5.8177,-5.7518,-5.684,-5.5622,-5.4745,-5.4683,-5.3591,-5.279,-5.279,-5.2729,-5.2698,-5.2698,-5.2698,-5.2452,-5.1805,-5.1744,-5.1436,-5.079,-5.0082,-4.9682,-4.9682,-4.8974,-4.8604,-4.8604,-4.8604,-4.8296,-4.7681,-4.7681,-4.6973,-3.8046,0.0,-4.0016,-3.9862,0.0,0.0,0.0,0.0,0.0,0.0,0.0,0.0,0.0,0.0,0.0,0.0,0.0,0.0,0.0,0.0,0.0,0.0,-7.1105,-7.3814,-7.3106,-7.5446,-7.68,-7.6277,-7.563,-7.5015,-7.4491,-7.3199,-7.2368,-7.2214,-7.1321,-7.1013,-7.1383,-7.1229,-7.0736,-6.9874,-6.9382,-6.8705,-6.7904,-6.7227,-6.655,-6.5903,-6.575,-6.538,-6.4888,-6.4888,-6.4888,-6.4888,-6.4888,-6.4888,-6.4826,-6.4272,-6.4426,-6.4703,-6.3472,-6.3071,-6.2856,-6.1656,-6.1163,-6.1009,-6.0855,-6.0794,-6.0794,-6.0794,-6.0794,-6.0794,-6.0794,-6.0794,-6.0794,-6.0794,-6.0794,-6.0794,-6.0794,-6.0794,-6.0794,-6.0794,-5.9839,-5.8978,-5.8824,-5.7826,-5.681,-5.6053,-5.5684,-5.5284,-5.4745,-5.3991,-5.3468,-5.3468,-5.3037,-5.2698,-5.2698,-5.2698,-5.2637,-5.2483,-5.199,-5.1621,-5.1467,-5.0328,-4.9682,-4.9682,-4.8974,-4.8604,-4.8604,-4.8604,-4.8543,-4.8358,-4.8358,-4.7927,-3.6846,-3.6723,-3.6507,-3.6507,-3.6507,-3.6507,0.0,0.0,0.0,0.0,0.0,0.0,0.0,0.0,0.0,0.0,0.0,0.0,0.0,0.0,0.0,0.0,-7.2645,-7.483,-7.5323,-7.6369,-7.6739,-7.6061,-7.5384,-7.4707,-7.403,-7.2706,-7.1813,-7.1506,-7.0151,-6.9597,-6.9967,-6.969,-6.9197,-6.852,-6.815,-6.7627,-6.6981,-6.6611,-6.6088,-6.5442,-6.5442,-6.5226,-6.4857,-6.4549,-6.4611,-6.4857,-6.4549,-6.4395,-6.4364,-6.3964,-6.3872,-6.3779,-6.2733,-6.2148,-6.1779,-6.104,-6.0794,-6.0794,-6.0794,-6.0794,-6.0794,-6.0794,-6.0794,-6.0794,-6.0794,-6.0794,-6.0794,-6.0794,-6.0794,-6.0794,-6.0794,-6.0794,-6.0794,-6.0794,-5.9716,-5.8793,-5.8793,-5.7703,-5.6686,-5.6238,-5.5899,-5.5561,-5.5222,-5.4607,-5.4006,-5.3699,-5.3406,-5.3037,-5.2729,-5.2698,-5.2698,-5.2698,-5.2359,-5.2175,-5.2175,-5.1159,-5.0328,-4.9682,-4.8974,-4.8604,-4.8604,-4.8604,-4.8604,-4.8604,-4.8604,-4.8235,-3.7394,-3.7186,-3.6785,-3.6662,-3.6631,-3.66,0.0,0.0,0.0,0.0,0.0,0.0,0.0,0.0,0.0,0.0,0.0,0.0,0.0,0.0,0.0,0.0,-7.2552,0.0,-7.6215,-7.6677,-7.6554,-7.5754,-7.5076,-7.4399,-7.3722,-7.2398,-7.1321,-7.0613,-6.9289,-6.8551,-6.8427,-6.7997,-6.7442,-6.6765,-6.6765,-6.6396,-6.575,-6.575,-6.5442,-6.4888,-6.4888,-6.4888,-6.4826,-6.4118,-6.418,-6.4672,-6.3964,-6.3687,-6.3602,-6.3564,-6.3225,-6.2702,-6.2056,-6.1379,-6.0794,-6.0794,-6.0794,-6.0794,-6.0794,-6.0794,-6.0794,-6.0794,-6.0794,-6.0794,-6.0794,-6.0794,-6.0794,-6.0794,-6.0794,-6.0794,-6.0794,-6.0794,-6.0763,-6.0671,-5.9716,-5.8885,-5.867,-5.7734,-5.6933,-5.684,-5.6286,-5.5869,-5.5869,-5.5284,-5.4668,-5.4083,-5.3929,-5.3591,-5.2914,-5.2852,-5.2821,-5.2729,-5.2698,-5.2667,-5.2575,-5.2021,-5.1067,-4.9712,-4.9097,-4.8727,-4.8604,-4.8604,-4.8604,-4.8604,-4.8604,-4.8296,-3.8142,-3.8247,-3.8052,-3.7432,-3.7268,-3.7118,0.0,0.0,0.0,0.0,0.0,0.0,0.0,0.0,0.0,0.0,0.0,0.0,0.0,0.0,-6.8027,-7.1413,0.0,-7.5661,-7.3783,-7.5138,-7.5661,-7.4399,-7.3691,-7.2983,-7.2306,-7.0982,-6.9905,-6.9228,-6.7904,-6.695,-6.6365,-6.6827,-6.6735,-6.6057,-6.6057,-6.5719,-6.5042,-6.5042,-6.5011,-6.4888,-6.4888,-6.4888,-6.4826,-6.4118,-6.3903,-6.3933,-6.3225,-6.2979,-6.2887,-6.2333,-6.2425,-6.2702,-6.2056,-6.1379,-6.0794,-6.0794,-6.0794,-6.0794,-6.0794,-6.0794,-6.0794,-6.0794,-6.0794,-6.0794,-6.0794,-6.0794,-6.0794,-6.0794,-6.0794,-6.0794,-6.0794,-6.0794,-6.064,-6.0055,-5.9778,-5.9285,-5.8165,-5.7795,-5.7457,-5.6902,-5.6717,-5.6656,-5.6656,-5.5992,-5.5499,-5.5407,-5.4914,-5.4252,-5.3622,-5.356,-5.3314,-5.276,-5.2698,-5.2452,-5.1898,-5.1744,-5.1067,-4.9712,-4.9589,-4.922,-4.8604,-4.8604,-4.8604,-4.8604,-4.8604,-4.8543,-3.8699,-3.8646,-3.8577,-3.9353,-3.902,-3.8433,0.0,0.0,0.0,0.0,0.0,0.0,0.0,0.0,0.0,0.0,0.0,-5.9747,-6.4303,-6.695,-6.9443,-7.2183,-7.4214,-7.5169,-7.4676,-7.5476,-7.5292,-7.3568,-7.2829,-7.2121,-7.1444,-6.9751,-6.8828,-6.8889,-6.7258,-6.6211,-6.5903,-6.5842,-6.5657,-6.5349,-6.5349,-6.5195,-6.4888,-6.4888,-6.4888,-6.4888,-6.4888,-6.4672,-6.4272,-6.3564,-6.3287,-6.3195,-6.2548,-6.2271,-6.2179,-6.1502,-6.144,-6.1686,-6.1379,-6.1071,-6.0794,-6.0794,-6.0794,-6.0794,-6.0794,-6.0794,-6.0794,-6.0794,-6.0794,-6.0794,-6.0794,-6.0794,-6.0794,-6.0794,-6.0794,-6.0794,-6.0794,-6.0794,-6.0701,-6.0393,-6.0055,-5.9593,-5.8978,-5.8547,-5.8258,-5.7949,-5.758,-5.7364,-5.7364,-5.6748,-5.6115,-5.5745,-5.5438,-5.4822,-5.3806,-5.3714,-5.3437,-5.276,-5.2698,-5.2575,-5.2267,-5.1898,-5.1405,-5.079,-5.042,-4.9897,-4.9189,-4.9189,-4.9004,-4.8604,-4.8604,-4.8604,-3.928,-3.9116,-3.9162,-4.0934,0.0,-3.9301,-4.0417,0.0,0.0,0.0,0.0,0.0,0.0,0.0,0.0,0.0,-6.1255,-6.4672,-6.7196,-6.9166,-7.1167,-7.3414,-7.4153,-7.4738,-7.5476,-7.5384,-7.4522,-7.2645,-7.1721,-7.0952,-7.0244,-6.8612,-6.7843,-6.8181,-6.6704,-6.5842,-6.5657,-6.5165,-6.4888,-6.4888,-6.4734,-6.4734,-6.4888,-6.4734,-6.4734,-6.4888,-6.4734,-6.4334,-6.3779,-6.2918,-6.2579,-6.2517,-6.184,-6.1563,-6.1502,-6.0978,-6.0794,-6.0794,-6.0794,-6.0794,-6.0794,-6.0794,-6.0794,-6.0794,-6.0794,-6.0794,-6.0794,-6.0794,-6.0794,-6.0794,-6.0794,-6.0794,-6.0794,-6.0794,-6.0794,-6.0794,-6.0794,-6.0794,-6.0763,-6.0609,-6.027,-5.9932,-5.9624,-5.9255,-5.8947,-5.8793,-5.8258,-5.7826,-5.7826,-5.7241,-5.6594,-5.5992,-5.593,-5.5407,-5.4083,-5.3806,-5.3437,-5.276,-5.2698,-5.2698,-5.2698,-5.2206,-5.1867,-5.1713,-5.119,-5.0605,-4.9928,-4.9928,-4.9651,-4.9097,-4.9097,-4.9004,-4.0044,-4.0169,-4.033,-4.1064,0.0,0.0,-4.3263,-4.3301,0.0,0.0,0.0,0.0,0.0,0.0,0.0,0.0,-6.3164,-6.7997,-7.1906,-7.3691,-7.4861,-7.5692,-7.5846,-7.5415,-7.4245,-7.3568,-7.2614,-7.1167,-6.9843,-6.8828,-6.8181,-6.7412,-6.6735,-6.615,-6.5996,-6.5596,-6.498,-6.4918,-6.4888,-6.4888,-6.4241,-6.4241,-6.4888,-6.421,-6.4272,-6.4857,-6.418,-6.3872,-6.3718,-6.2425,-6.1871,-6.1809,-6.1132,-6.0886,-6.0855,-6.0824,-6.0794,-6.0794,-6.0794,-6.0794,-6.0794,-6.0794,-6.0794,-6.0794,-6.0794,-6.0794,-6.0794,-6.0794,-6.0794,-6.0794,-6.0794,-6.0794,-6.0794,-6.0794,-6.0794,-6.0794,-6.0794,-6.0794,-6.0609,-5.9993,-6.0332,-6.0332,-5.907,-5.9347,-5.9501,-5.8885,-5.8258,-5.7826,-5.7826,-5.7241,-5.6779,-5.6748,-5.6717,-5.6146,-5.4745,-5.4037,-5.3437,-5.276,-5.2698,-5.2698,-5.2698,-5.2667,-5.2359,-5.1713,-5.1652,-5.1313,-5.0636,-5.0636,-5.0605,-5.0543,-5.0543,-5.0205,-4.0109,-4.0558,-4.1106,-4.1728,0.0,0.0,0.0,0.0,0.0,0.0,0.0,0.0,0.0,0.0,0.0,-6.1994,-6.6796,-7.089,-7.3291,-7.4399,-7.4953,-7.4769,-7.4399,-7.3753,-7.2829,-7.2521,-7.1598,-6.9782,-6.8797,-6.7997,-6.7319,-6.6273,-6.5719,-6.5903,-6.5503,-6.5165,-6.4888,-6.4457,-6.4241,-6.4241,-6.3964,-6.3749,-6.3595,-6.3318,-6.3349,-6.3595,-6.3318,-6.2948,-6.2517,-6.2025,-6.1563,-6.1163,-6.0886,-6.0794,-6.0794,-6.0794,-6.0794,-6.0794,-6.0794,-6.0794,-6.0794,-6.0794,-6.0794,-6.0794,-6.0794,-6.0794,-6.0794,-6.0794,-6.0794,-6.0794,-6.0794,-6.0794,-6.0794,-6.0794,-6.0794,-6.0794,-6.0794,-6.0794,-6.0732,-6.0455,-6.064,-6.064,-6.0116,-6.024,-6.0332,-6.0086,-5.9101,-5.8393,-5.8393,-5.7487,-5.681,-5.681,-5.6409,-5.5899,-5.5376,-5.473,-5.4006,-5.3375,-5.2944,-5.2698,-5.2698,-5.2698,-5.2575,-5.2329,-5.2329,-5.1805,-5.0697,-5.1128,-5.0882,-5.0082,-5.0513,-5.0543,-4.0113,-4.0538,-4.113,0.0,0.0,0.0,0.0,0.0,0.0,0.0,0.0,0.0,0.0,0.0,0.0,0.0,-6.8674,-7.2121,-7.3476,-7.4245,-7.4276,-7.3137,-7.2614,-7.1967,-7.1075,-7.0828,-7.0028,-6.8397,-6.7658,-6.6981,-6.6304,-6.5411,-6.5103,-6.5565,-6.4918,-6.4549,-6.4549,-6.3872,-6.341,-6.3195,-6.2979,-6.2856,-6.2794,-6.2579,-6.261,-6.2794,-6.2579,-6.224,-6.1779,-6.1563,-6.1101,-6.0486,-6.0486,-6.0332,-6.0178,-6.0393,-6.0332,-6.0178,-6.0393,-6.0332,-6.0178,-6.0424,-6.0486,-6.0486,-6.0486,-6.064,-6.0794,-6.0794,-6.0794,-6.0794,-6.0794,-6.0794,-6.0794,-6.0794,-6.0794,-6.0794,-6.0794,-6.0794,-6.0794,-6.0794,-6.0794,-6.0794,-6.0794,-6.0609,-6.0486,-6.0486,-5.9316,-5.8454,-5.8454,-5.7518,-5.681,-5.681,-5.6378,-5.593,-5.5715,-5.5284,-5.4668,-5.3775,-5.3498,-5.316,-5.2729,-5.2698,-5.2698,-5.2698,-5.2698,-5.2267,-5.1344,-5.1805,-5.1559,-5.0667,-5.1128,-5.1221,-4.0113,-4.0113,0.0,0.0,0.0,0.0,0.0,0.0,0.0,0.0,0.0,-5.7442,-5.7775,-5.7857,0.0,-6.4118,-6.8274,-7.1383,-7.2768,-7.3537,-7.3199,-7.1136,-7.0859,-7.0336,-6.9012,-6.8304,-6.7627,-6.695,-6.6273,-6.5596,-6.4918,-6.4888,-6.4888,-6.4888,-6.418,-6.381,-6.381,-6.3133,-6.2456,-6.1779,-6.1101,-6.1502,-6.2764,-6.2086,-6.2148,-6.2764,-6.2086,-6.1809,-6.1748,-6.1071,-6.0393,-5.9778,-5.9778,-5.9378,-5.8854,-5.9532,-5.9347,-5.8885,-5.9562,-5.9347,-5.8885,-5.9562,-5.9778,-5.9778,-5.9778,-6.024,-6.0794,-6.0794,-6.0794,-6.0794,-6.0794,-6.0794,-6.0794,-6.0794,-6.0794,-6.0794,-6.0794,-6.0794,-6.0794,-6.0794,-6.0794,-6.0794,-6.0794,-6.024,-5.9778,-5.9778,-5.8639,-5.7826,-5.7795,-5.7241,-5.681,-5.681,-5.681,-5.6532,-5.5745,-5.5715,-5.513,-5.3837,-5.4314,-5.4068,-5.276,-5.2729,-5.2729,-5.2698,-5.2698,-5.2698,-5.2698,-5.2698,-5.2698,-5.2698,-5.2698,-5.2359,-4.0113,0.0,0.0,0.0,0.0,0.0,0.0,0.0,0.0,0.0,0.0,-6.1784,-6.1162,-6.2236,-6.3402,-6.4011,-6.7535,-7.0336,-7.0767,-7.0982,-7.0551,-6.8982,-6.8397,-6.7935,-6.7535,-6.7319,-6.6919,-6.6273,-6.6027,-6.538,-6.421,-6.4149,-6.3933,-6.3441,-6.3225,-6.2887,-6.2425,-6.1748,-6.1071,-6.0393,-5.9686,-6.0086,-6.1379,-6.0701,-6.0763,-6.1379,-6.1194,-6.1101,-6.104,-6.0363,-5.9686,-5.907,-5.907,-5.8947,-5.8793,-5.9008,-5.8947,-5.8824,-5.9008,-5.8947,-5.8824,-5.9008,-5.907,-5.9162,-5.9655,-5.9932,-6.0178,-6.0671,-6.0794,-6.0794,-6.0794,-6.0794,-6.0794,-6.0794,-6.0794,-6.0794,-6.0794,-6.0794,-6.0794,-6.0794,-6.0794,-6.0794,-6.0794,-6.024,-5.9778,-5.9778,-5.8639,-5.7641,-5.7179,-5.6933,-5.681,-5.681,-5.681,-5.6717,-5.6502,-5.6502,-5.6053,-5.5161,-5.4853,-5.4068,-5.276,-5.316,-5.3191,-5.2729,-5.2698,-5.2483,-5.2021,-5.2483,-5.2483,-5.2021,-5.2483,-5.2606,-4.0113,0.0,0.0,0.0,0.0,0.0,0.0,0.0,0.0,0.0,0.0,-6.4766,-6.504,-6.4856,-6.4862,-6.5584,-6.7971,-6.96,-6.9164,-6.9484,-6.9104,-6.7346,-6.6765,-6.6396,-6.615,-6.5842,-6.5503,-6.5103,-6.4826,-6.4303,-6.3472,-6.341,-6.3225,-6.2825,-6.2302,-6.1809,-6.1409,-6.0455,-5.9778,-5.9378,-5.8701,-5.8947,-5.9993,-5.9562,-5.9624,-5.9993,-5.9993,-5.9993,-5.9932,-5.9255,-5.8762,-5.8362,-5.8362,-5.8258,-5.8073,-5.827,-5.8208,-5.8073,-5.83,-5.8258,-5.8073,-5.835,-5.8362,-5.8516,-5.9193,-5.9562,-5.9932,-6.0609,-6.0794,-6.0794,-6.0794,-6.0794,-6.0794,-6.0794,-6.0794,-6.0794,-6.0794,-6.0794,-6.0794,-6.0794,-6.0794,-6.0794,-6.0794,-6.0024,-5.9378,-5.9378,-5.8239,-5.7272,-5.6871,-5.681,-5.681,-5.681,-5.681,-5.681,-5.681,-5.681,-5.655,-5.5888,-5.5733,-5.4978,-5.3431,-5.3343,-5.3129,-5.2729,-5.2698,-5.2513,-5.2113,-5.2513,-5.2513,-5.2113,-5.2513,-5.2698,0.0,0.0,0.0,0.0,0.0,0.0,0.0,0.0,0.0,0.0,0.0,-6.6751,-6.8861,-6.6424,-6.5028,-6.8052,-6.9105,-6.9161,-6.8007,-6.8683,-6.8461,-6.6077,-6.5811,-6.5534,-6.4857,-6.421,-6.3756,-6.3749,-6.3102,-6.2702,-6.2641,-6.2579,-6.2517,-6.2456,-6.1194,-6.0486,-6.0424,-5.9131,-5.8485,-5.8393,-5.7777,-5.7808,-5.8423,-5.8608,-5.8731,-5.8793,-5.8793,-5.8762,-5.8639,-5.8073,-5.7795,-5.7734,-5.7734,-5.7364,-5.6871,-5.7487,-5.7333,-5.6902,-5.7518,-5.7333,-5.6902,-5.7518,-5.7734,-5.7857,-5.8535,-5.9131,-5.9747,-6.0486,-6.0701,-6.0732,-6.0794,-6.0794,-6.0794,-6.0794,-6.0794,-6.0794,-6.0794,-6.0794,-6.0794,-6.0794,-6.0794,-6.0794,-6.0794,-5.9767,-5.8874,-5.88,-5.769,-5.6858,-5.6858,-5.6858,-5.6858,-5.6858,-5.6858,-5.6858,-5.6858,-5.6858,-5.6676,-5.6263,-5.6729,-5.6326,-5.4656,-5.3568,-5.2866,-5.2743,-5.2743,-5.2743,-5.2743,-5.2743,-5.2743,-5.2743,-5.2743,-5.2743,0.0,0.0,0.0,0.0,0.0,0.0,0.0,0.0,0.0,0.0,-6.9264,-6.9994,-6.967,-6.9351,-6.9141,-6.8982,-6.9568,-6.9404,-6.78,-6.776,-6.726,-6.5362,-6.5103,-6.4826,-6.4118,-6.3903,-6.3541,-6.3071,-6.2394,-6.1809,-6.1255,-6.0732,-6.0178,-5.9655,-5.8854,-5.8227,-5.7672,-5.6792,-5.6115,-5.5592,-5.5468,-5.5468,-5.5653,-5.7254,-5.827,-5.8793,-5.8793,-5.8485,-5.8011,-5.7888,-5.7518,-5.7025,-5.7025,-5.6933,-5.684,-5.6964,-5.6933,-5.684,-5.6994,-5.6933,-5.684,-5.6994,-5.7025,-5.7148,-5.7826,-5.8134,-5.8454,-5.9655,-6.0024,-6.0116,-6.0671,-6.0794,-6.0794,-6.0794,-6.0794,-6.0794,-6.0794,-6.0794,-6.0794,-6.0794,-6.0794,-6.0794,-6.0794,-6.0321,-5.9625,-5.8736,-5.7913,-5.7353,-5.7353,-5.7353,-5.7353,-5.7353,-5.7353,-5.7353,-5.7353,-5.7353,-5.7291,-5.723,-5.6856,-5.6419,-5.6075,-5.5314,-5.4397,-5.3277,-5.3246,-5.3246,-5.3246,-5.3246,-5.3246,-5.3246,-5.3246,-5.3246,0.0,0.0,0.0,0.0,0.0,0.0,0.0,0.0,0.0,0.0,-6.9682,-7.1233,-7.1043,-7.0562,-6.9938,-6.8994,-6.9157,-6.8859,-6.7439,-6.7494,-6.7066,-6.5574,-6.508,-6.4315,-6.3131,-6.2632,-6.2086,-6.1409,-6.0732,-6.0209,-5.9839,-5.9193,-5.867,-5.83,-5.7315,-5.6607,-5.6317,-5.5561,-5.5068,-5.4683,-5.4683,-5.4683,-5.4714,-5.5838,-5.6515,-5.6854,-5.6854,-5.6823,-5.6761,-5.6453,-5.6484,-5.6748,-5.6053,-5.5992,-5.6207,-5.5899,-5.5776,-5.5776,-5.5776,-5.5992,-5.6238,-5.6238,-5.6532,-5.6933,-5.7611,-5.7826,-5.8042,-5.9008,-5.9532,-5.987,-6.0209,-6.0547,-6.0794,-6.0794,-6.0794,-6.0794,-6.0794,-6.0794,-6.0845,-6.0949,-6.1,-6.1052,-6.1155,-6.047,-5.9501,-5.8244,-5.7745,-5.7495,-5.7495,-5.7495,-5.7495,-5.7495,-5.7495,-5.7495,-5.7495,-5.7495,-5.7543,-5.7684,-5.734,-5.7088,-5.6866,-5.6521,-5.5538,-5.3908,-5.3877,-5.3721,-5.3377,-5.3377,-5.3377,-5.3377,-5.3377,-5.3377,0.0,0.0,0.0,0.0,0.0,0.0,0.0,0.0,0.0,-6.7531,-6.935,-7.1109,-7.1718,-7.0608,-6.9463,-6.8772,-6.8765,-6.8407,-6.7264,-6.7405,-6.7142,-6.587,-6.5044,-6.3993,-6.2504,-6.1656,-6.085,-5.9873,-5.9142,-5.861,-5.8369,-5.7549,-5.7069,-5.7069,-5.5715,-5.5007,-5.5007,-5.436,-5.3976,-5.3976,-5.4099,-5.416,-5.416,-5.4283,-5.4468,-5.4683,-5.4683,-5.5037,-5.5468,-5.4945,-5.5407,-5.63,-5.5161,-5.5068,-5.5468,-5.4914,-5.4683,-5.4683,-5.4683,-5.5161,-5.5684,-5.5684,-5.6224,-5.695,-5.7487,-5.7641,-5.7814,-5.8473,-5.9059,-5.9571,-5.9695,-6.0219,-6.0794,-6.0794,-6.0794,-6.0743,-6.0743,-6.0805,-6.0969,-6.1082,-6.1102,-6.1235,-6.1582,-6.0415,-5.9152,-5.8137,-5.7793,-5.7637,-5.7637,-5.7637,-5.7637,-5.7637,-5.7637,-5.7637,-5.7637,-5.7637,-5.7731,-5.7965,-5.7965,-5.7806,-5.7421,-5.739,-5.6608,-5.4916,-5.4791,-5.4384,-5.3696,-5.3696,-5.3634,-5.3509,-5.3509,-5.3509,0.0,0.0,0.0,0.0,0.0,0.0,0.0,0.0,0.0,0.0,-6.7921,-6.9417,-6.9519,-6.9461,-6.9359,-6.9073,-6.9311,-6.9059,-6.7645,-6.7107,-6.6415,-6.5236,-6.4477,-6.3764,-6.3145,-6.2936,-6.1999,-5.9975,-5.9012,-5.7948,-5.6557,-5.5039,-5.4268,-5.4268,-5.2944,-5.2236,-5.2236,-5.1559,-5.1221,-5.1251,-5.1836,-5.2113,-5.2144,-5.2698,-5.3622,-5.4683,-5.4683,-5.4745,-5.4806,-5.4714,-5.4806,-5.4929,-5.4745,-5.4745,-5.4806,-5.4714,-5.4683,-5.4683,-5.4683,-5.5161,-5.5684,-5.5684,-5.6289,-5.7019,-5.695,-5.7078,-5.7298,-5.7814,-5.8159,-5.8492,-5.9111,-5.9942,-6.064,-6.064,-6.064,-6.054,-6.0338,-6.0924,-6.1325,-6.0815,-6.069,-6.0927,-6.1822,-6.0303,-5.9238,-5.9806,-5.8939,-5.8182,-5.8182,-5.8182,-5.8182,-5.8182,-5.8182,-5.8182,-5.8182,-5.8182,-5.8228,-5.8228,-5.8228,-5.8243,-5.8148,-5.8116,-5.7737,-5.6857,-5.6257,-5.5595,-5.4857,-5.4857,-5.4585,-5.4017,-5.4017,-5.4017,0.0,0.0,0.0,0.0,0.0,0.0,0.0,0.0,0.0,-6.2945,-6.4438,-6.612,-6.77,-6.8132,-6.808,-6.7463,-6.7604,-6.757,-6.6913,-6.6356,-6.5775,-6.5194,-6.3936,-6.276,-6.1633,-6.1,-5.9892,-5.8109,-5.7689,-5.7066,-5.5889,-5.4783,-5.42,-5.42,-5.3162,-5.2581,-5.2613,-5.2245,-5.183,-5.1361,-5.1673,-5.1759,-5.1713,-5.2021,-5.2667,-5.3591,-5.3591,-5.3806,-5.4099,-5.3699,-5.4006,-5.4621,-5.3853,-5.3791,-5.4068,-5.3745,-5.3682,-5.3773,-5.3773,-5.4236,-5.49,-5.5225,-5.5906,-5.6588,-5.6896,-5.7115,-5.7368,-5.7583,-5.7973,-5.8394,-5.8705,-5.9394,-5.9942,-5.9942,-6.0121,-6.0045,-5.9572,-5.996,-6.0415,-6.0233,-6.068,-6.0952,-6.0546,-6.0011,-5.9554,-5.9222,-5.87,-5.8321,-5.8321,-5.8321,-5.8321,-5.8321,-5.8321,-5.8321,-5.8321,-5.8321,-5.8321,-5.8321,-5.8321,-5.8321,-5.8321,-5.8321,-5.8116,-5.78,-5.7105,-5.622,-5.5102,-5.5525,-5.5177,-5.4103,-5.4514,-5.4482,0.0,0.0,0.0,0.0,0.0,0.0,0.0,0.0,-5.9164,0.0,-6.0816,-6.2487,-6.4585,-6.5858,-6.6376,-6.5629,-6.5898,-6.6091,-6.5801,-6.5275,-6.4781,-6.4451,-6.3094,-6.1662,-6.0322,-5.9481,-5.8312,-5.6697,-5.6645,-5.6238,-5.5201,-5.4444,-5.402,-5.402,-5.3219,-5.2823,-5.2861,-5.2779,-5.2391,-5.1749,-5.1697,-5.1623,-5.1506,-5.1616,-5.199,-5.2452,-5.2637,-5.3006,-5.3437,-5.2914,-5.3314,-5.4068,-5.3098,-5.3037,-5.3406,-5.2883,-5.2863,-5.2997,-5.2997,-5.3599,-5.445,-5.4946,-5.5752,-5.6622,-5.7072,-5.7401,-5.759,-5.7543,-5.7917,-5.834,-5.834,-5.8919,-5.9468,-5.9468,-5.9613,-5.9726,-5.9569,-5.9519,-5.9673,-6.0401,-6.0847,-6.0834,-5.9981,-5.9949,-5.9696,-5.8685,-5.8401,-5.8321,-5.8321,-5.8321,-5.8321,-5.8321,-5.8321,-5.8321,-5.8321,-5.8321,-5.8321,-5.8321,-5.8321,-5.8321,-5.8321,-5.8321,-5.8321,-5.8321,-5.7769,-5.6884,-5.5607,-5.6189,-5.5715,-5.4387,-5.5083,-5.4925,0.0,0.0,0.0,0.0,0.0,0.0,0.0,0.0,0.0,-5.6541,-5.7878,-5.8942,-5.9113,-6.2098,-6.4457,-6.4264,-6.5156,-6.5516,-6.4371,-6.3734,-6.3127,-6.2333,-6.1544,-6.0863,-6.025,-6.0147,-5.9178,-5.6862,-5.6477,-5.5595,-5.3918,-5.2938,-5.2433,-5.2433,-5.1755,-5.1508,-5.1659,-5.1659,-5.1582,-5.1322,-5.1165,-5.1072,-5.0947,-5.1487,-5.1713,-5.1805,-5.2421,-5.2729,-5.276,-5.2729,-5.276,-5.2821,-5.2729,-5.2729,-5.276,-5.2729,-5.2729,-5.2698,-5.2698,-5.3773,-5.507,-5.5101,-5.6326,-5.7793,-5.7511,-5.7684,-5.7825,-5.759,-5.7715,-5.7934,-5.7934,-5.8656,-5.9302,-5.9302,-5.9302,-5.9681,-6.1024,-6.0218,-5.9902,-6.1891,-6.1245,-6.055,-6.1182,-6.0202,-5.9349,-5.9254,-5.8685,-5.8321,-5.8321,-5.8321,-5.8321,-5.8321,-5.8321,-5.8321,-5.8321,-5.8321,-5.8321,-5.8321,-5.8321,-5.8321,-5.8321,-5.8321,-5.8321,-5.8321,-5.8243,-5.7864,-5.7105,-5.7137,-5.6397,-5.5039,-5.5809,-5.5399,0.0,0.0,0.0,0.0,0.0,0.0,0.0,0.0,-5.2598,-5.3544,-5.5329,-5.6878,-5.7395,-5.9805,-6.1626,-6.1442,-6.2279,-6.2632,-6.1693,-6.1456,-6.101,-6.0183,-5.9356,-5.8736,-5.8565,-5.8118,-5.7295,-5.5962,-5.5859,-5.5349,-5.4262,-5.389,-5.372,-5.372,-5.3348,-5.3078,-5.2941,-5.2941,-5.2664,-5.2065,-5.2006,-5.1734,-5.124,-5.1426,-5.1476,-5.1511,-5.2251,-5.2621,-5.2698,-5.2698,-5.2698,-5.2698,-5.2698,-5.2819,-5.2953,-5.2953,-5.3175,-5.3396,-5.3396,-5.3796,-5.4402,-5.5277,-5.6008,-5.6709,-5.7496,-5.7918,-5.8136,-5.8011,-5.8058,-5.8182,-5.8182,-5.8418,-5.8654,-5.8654,-5.8654,-5.8906,-5.9854,-5.9665,-5.9538,-6.0297,-6.0739,-6.0803,-6.017,-5.9981,-5.9633,-5.878,-5.8432,-5.8321,-5.8321,-5.8321,-5.8321,-5.8321,-5.8321,-5.8321,-5.8321,-5.8321,-5.8321,-5.8321,-5.8321,-5.8321,-5.8321,-5.8321,-5.8321,-5.8321,-5.8321,-5.7927,-5.7231,-5.7674,-5.7168,-5.5809,-5.6536,-5.6094,0.0,0.0,0.0,0.0,0.0,0.0,0.0,0.0,-4.9383,-5.0774,-5.2494,-5.4115,-5.5426,-5.6909,-5.822,-5.9116,-5.9942,-6.0289,-5.953,-5.9426,-5.915,-5.8357,-5.7739,-5.7225,-5.695,-5.6469,-5.5884,-5.5128,-5.5189,-5.4876,-5.4055,-5.4261,-5.4296,-5.402,-5.3716,-5.3524,-5.3604,-5.354,-5.3345,-5.3043,-5.2768,-5.2332,-5.1869,-5.1829,-5.1788,-5.1778,-5.2565,-5.2635,-5.2242,-5.2766,-5.2816,-5.2613,-5.2829,-5.3055,-5.3188,-5.3188,-5.3409,-5.3671,-5.3671,-5.3871,-5.4323,-5.5453,-5.6001,-5.65,-5.7665,-5.8182,-5.8321,-5.8321,-5.8321,-5.8321,-5.8321,-5.8321,-5.8321,-5.8321,-5.8321,-5.8401,-5.8875,-5.897,-5.9159,-5.9886,-6.055,-6.0803,-6.0139,-6.017,-5.9918,-5.878,-5.8432,-5.8321,-5.8321,-5.8321,-5.8321,-5.8321,-5.8321,-5.8321,-5.8321,-5.8321,-5.8321,-5.8321,-5.8321,-5.8321,-5.8321,-5.8321,-5.8415,-5.8622,-5.8622,-5.8401,-5.7927,-5.8148,-5.7674,-5.6536,-5.7263,-5.6947,0.0,0.0,0.0,0.0,0.0,0.0,-4.2965,0.0,-4.5983,-4.8189,-4.9327,-5.0631,-5.2839,-5.3287,-5.4287,-5.7219,-5.8392,-5.8668,-5.7909,-5.784,-5.7564,-5.6805,-5.6702,-5.6391,-5.5598,-5.5497,-5.5219,-5.4494,-5.4425,-5.4052,-5.3138,-5.3759,-5.3827,-5.3104,-5.2506,-5.2567,-5.3356,-5.3201,-5.345,-5.4173,-5.3281,-5.2837,-5.2803,-5.2686,-5.2609,-5.2642,-5.3291,-5.2724,-5.1413,-5.2867,-5.3091,-5.2528,-5.3184,-5.3434,-5.3509,-5.3509,-5.3509,-5.3509,-5.3509,-5.4078,-5.4945,-5.5637,-5.6465,-5.734,-5.8113,-5.8335,-5.8335,-5.8367,-5.8367,-5.8321,-5.8321,-5.8321,-5.8321,-5.8321,-5.8321,-5.8321,-5.8321,-5.8352,-5.8906,-6.0961,-6.0803,-6.055,-6.1245,-6.0739,-6.0044,-5.938,-5.8717,-5.8321,-5.8321,-5.8321,-5.8321,-5.8321,-5.8321,-5.8321,-5.8321,-5.8321,-5.8321,-5.8352,-5.8321,-5.8321,-5.8352,-5.8352,-5.8622,-5.9286,-5.9317,-5.9349,-5.9349,-5.8654,-5.7927,-5.7263,-5.7927,-5.7895,-4.0894,0.0,0.0,0.0,0.0,0.0,0.0,0.0,-4.4113,-4.5285,-4.7044,-4.87,-4.9844,-5.0562,-5.139,-5.277,-5.5012,-5.6288,-5.5563,-5.5908,-5.577,-5.4494,-5.4356,-5.4011,-5.3222,-5.3118,-5.3049,-5.2843,-5.2839,-5.2739,-5.2437,-5.2643,-5.2643,-5.2437,-5.2291,-5.2261,-5.241,-5.2863,-5.321,-5.3415,-5.3673,-5.3616,-5.3247,-5.3177,-5.2861,-5.2362,-5.3129,-5.2876,-5.2058,-5.311,-5.3765,-5.4091,-5.4285,-5.4794,-5.541,-5.541,-5.5563,-5.5716,-5.5716,-5.5886,-5.6221,-5.6866,-5.7299,-5.7732,-5.9007,-5.9399,-5.9369,-5.9238,-5.9222,-5.912,-5.8427,-5.8321,-5.8321,-5.8321,-5.8321,-5.8321,-5.8321,-5.8654,-5.9349,-6.0392,-6.0866,-6.0992,-6.0645,-6.0044,-5.9349,-5.8654,-5.8401,-5.8321,-5.8321,-5.8321,-5.8321,-5.8321,-5.8321,-5.8321,-5.8321,-5.8321,-5.8496,-5.9001,-5.8559,-5.8496,-5.9001,-5.9033,-5.9096,-5.9317,-5.9791,-6.0012,-6.0012,-5.9349,-5.8654,-5.799,-5.7674,-5.7674,0.0,0.0,0.0,0.0,0.0,0.0,-4.0894,-4.1585,-4.2551,-4.3621,-4.4898,-4.6251,-4.7603,-4.801,-4.843,-4.9499,-5.1154,-5.2567,-5.3425,-5.3908,-5.3842,-5.3011,-5.2908,-5.2735,-5.2222,-5.2188,-5.2188,-5.2188,-5.2188,-5.2188,-5.2188,-5.1632,-5.1395,-5.1735,-5.1429,-5.1399,-5.1619,-5.197,-5.2485,-5.3201,-5.3584,-5.3768,-5.3848,-5.3848,-5.3616,-5.318,-5.3649,-5.3583,-5.3179,-5.3744,-5.4011,-5.4147,-5.4443,-5.5078,-5.5859,-5.5859,-5.62,-5.6614,-5.6614,-5.6614,-5.6674,-5.737,-5.7601,-5.7899,-5.9356,-5.9819,-5.9828,-6.005,-6.0118,-6.0022,-5.9531,-5.9088,-5.885,-5.885,-5.8564,-5.8321,-5.8321,-5.8812,-5.9412,-5.9823,-6.0708,-6.115,-6.0423,-5.9981,-5.9475,-5.8812,-5.8464,-5.8415,-5.8654,-5.8717,-5.8812,-5.9096,-5.9128,-5.9128,-5.9128,-5.9128,-5.9286,-5.9696,-5.9349,-5.9159,-5.9317,-5.957,-5.9728,-5.9728,-6.0392,-6.0739,-6.0739,-5.9791,-5.8938,-5.8289,-5.7548,-5.7611,0.0,0.0,0.0,-4.0929,-4.1101,0.0,-4.0963,-4.1032,-4.1516,-4.2689,-4.3,-4.369,-4.5734,-4.5569,-4.5604,-4.7113,-4.732,-4.839,-5.1395,-5.1877,-5.1946,-5.1946,-5.1946,-5.1912,-5.1808,-5.1877,-5.1912,-5.1808,-5.1808,-5.1843,-5.1946,-5.0631,-5.0218,-5.0976,-5.0355,-5.0321,-5.0976,-5.0896,-5.1619,-5.3149,-5.3132,-5.3576,-5.4391,-5.4391,-5.4391,-5.4391,-5.4391,-5.4391,-5.4391,-5.4494,-5.4124,-5.3618,-5.4213,-5.4878,-5.558,-5.5647,-5.6112,-5.6782,-5.6849,-5.6882,-5.6982,-5.7543,-5.7775,-5.8008,-5.9438,-5.9904,-6.0096,-6.0853,-6.0962,-6.092,-6.092,-6.0332,-5.9718,-5.9718,-5.9133,-5.861,-5.861,-5.9104,-5.9581,-5.9486,-6.0377,-6.0961,-6.0297,-6.017,-5.9949,-5.9286,-5.8812,-5.8685,-5.9222,-5.938,-5.9633,-6.0234,-6.0297,-6.0297,-6.0297,-6.0297,-6.0329,-6.0423,-6.0329,-6.0076,-5.957,-6.0107,-6.0423,-6.0423,-6.115,-6.1435,-6.1277,-5.9949,-5.9001,-5.8369,-5.7674,-5.7674,-4.1101,-4.1343,-4.1654,-4.1067,-4.2275,0.0,-4.1309,-4.1861,-4.2482,-4.155,-4.1826,-4.2378,-4.2802,-4.331,-4.3931,-4.4829,-4.4967,-4.601,-4.9016,-5.0045,-5.0424,-5.0424,-5.0424,-5.0183,-4.9533,-5.0045,-5.0183,-4.9499,-4.9465,-4.974,-5.039,-4.9533,-4.9424,-5.0183,-5.008,-5.008,-5.0218,-5.0774,-5.1222,-5.1563,-5.2774,-5.3429,-5.3632,-5.3632,-5.3632,-5.3632,-5.3632,-5.3632,-5.3667,-5.4253,-5.4783,-5.5173,-5.531,-5.5823,-5.6611,-5.7193,-5.7501,-5.774,-5.8322,-5.8527,-5.8562,-5.8699,-5.8733,-5.8904,-5.9828,-6.0547,-6.1118,-6.1834,-6.1454,-6.092,-6.092,-6.0754,-6.0628,-6.0628,-6.0501,-6.0374,-6.0374,-6.0965,-6.1293,-6.0703,-6.0122,-5.9665,-5.9538,-5.9507,-5.9254,-5.859,-5.9286,-5.976,-5.9349,-5.976,-6.017,-6.0297,-6.0297,-6.0297,-6.0297,-6.0297,-6.055,-6.115,-6.0613,-6.0518,-6.0961,-6.1119,-6.1182,-6.1182,-6.1877,-6.1656,-6.0518,-5.9696,-5.9222,-5.9096,-5.8401,-5.8148,-4.1205,-4.117,-4.155,-4.1964,-4.2344,0.0,0.0,-4.2033,-4.193,-4.155,-4.1447,-4.1585,-4.193,-4.2033,-4.2275,-4.3034,-4.3172,-4.3828,-4.5734,-4.701,-4.7734,-4.7734,-4.7734,-4.7734,-4.7672,-4.8079,-4.8286,-4.8224,-4.8224,-4.843,-4.8838,-4.8465,-4.843,-4.8838,-4.8872,-4.9045,-4.9424,-4.974,-5.0355,-5.1114,-5.1873,-5.2459,-5.2804,-5.2804,-5.2804,-5.2839,-5.3218,-5.3391,-5.346,-5.4218,-5.4736,-5.5046,-5.5046,-5.5529,-5.6253,-5.6633,-5.7253,-5.7943,-5.8323,-5.8702,-5.9012,-5.9012,-5.9012,-5.915,-5.9944,-6.0978,-6.2044,-6.2737,-6.2591,-6.2245,-6.2245,-6.1929,-6.1609,-6.1609,-6.125,-6.092,-6.092,-6.1218,-6.1309,-6.0945,-6.0455,-6.0093,-6.0093,-6.072,-6.0947,-6.0311,-6.1089,-6.1737,-6.1737,-6.2061,-6.2234,-6.2092,-6.2514,-6.2421,-6.1437,-6.1472,-6.1663,-6.1877,-6.1245,-6.0992,-6.1371,-6.1719,-6.1909,-6.1909,-6.1909,-6.1561,-6.0834,-5.9823,-5.9128,-5.878,-5.8432,-5.8321,-4.1757,-4.155,-4.1964,-4.2758,-4.2482,-4.2137,0.0,0.0,0.0,-4.1723,-4.1309,-4.1101,-4.1688,-4.1309,-4.1101,-4.1688,-4.1792,-4.2033,-4.2654,-4.3768,-4.4673,-4.5121,-4.519,-4.5458,-4.6079,-4.6148,-4.6458,-4.7189,-4.7148,-4.7113,-4.7224,-4.7258,-4.7327,-4.7465,-4.7603,-4.8051,-4.8775,-4.881,-4.9499,-5.0907,-5.1045,-5.1425,-5.1981,-5.1981,-5.1981,-5.2015,-5.2701,-5.3046,-5.3253,-5.3977,-5.4391,-5.4494,-5.4494,-5.4874,-5.5426,-5.5563,-5.6495,-5.7702,-5.784,-5.8392,-5.9012,-5.9012,-5.9012,-5.9185,-6.0116,-6.1289,-6.2427,-6.3324,-6.36,-6.36,-6.36,-6.3083,-6.2552,-6.2552,-6.1969,-6.1413,-6.1413,-6.1413,-6.1413,-6.1413,-6.1413,-6.1291,-6.0962,-6.2013,-6.2643,-6.1989,-6.2619,-6.3348,-6.3912,-6.4111,-6.42,-6.417,-6.4877,-6.4571,-6.2825,-6.3063,-6.3042,-6.2504,-6.2093,-6.1918,-6.1918,-6.2588,-6.2907,-6.2699,-6.2205,-6.1854,-6.1726,-6.045,-5.9341,-5.8464,-5.8384,-5.8413,-4.3345,-4.3871,-4.4432,-4.2595,-4.4044,-4.5113,-4.1895,0.0,-4.2551,-4.1309,0.0,-4.0929,-4.0998,0.0,0.0,-4.0998,-4.1032,-4.1067,-4.1136,-4.1309,-4.2171,-4.4173,-4.4414,-4.4483,-4.4552,-4.4552,-4.4872,-4.5604,-4.5044,-4.4975,-4.5638,-4.5673,-4.5983,-4.67,-4.7355,-4.8051,-4.8775,-4.881,-4.9252,-5.0149,-5.0804,-5.1149,-5.1188,-5.1188,-5.1188,-5.1252,-5.1321,-5.1735,-5.2394,-5.3218,-5.3908,-5.4494,-5.4494,-5.4563,-5.4701,-5.5391,-5.6184,-5.7012,-5.7667,-5.8392,-5.9012,-5.9012,-5.9012,-5.9288,-6.0737,-6.1289,-6.1737,-6.3186,-6.36,-6.36,-6.36,-6.3526,-6.3454,-6.3454,-6.338,-6.3305,-6.3305,-6.3305,-6.3305,-6.3305,-6.3305,-6.2783,-6.1168,-6.1574,-6.1914,-6.1152,-6.217,-6.3097,-6.3206,-6.3726,-6.4377,-6.5093,-6.5248,-6.4844,-6.38,-6.4505,-6.4347,-6.2769,-6.3387,-6.377,-6.377,-6.4539,-6.4638,-6.3902,-6.3803,-6.3518,-6.2903,-6.2068,-6.0845,-5.9159,-5.8559,-5.8714,-4.3483,-4.4285,-4.5156,-4.4191,-4.463,-4.4837,-4.3241,-4.2344,-4.1792,-4.1585,0.0,0.0,0.0,0.0,0.0,0.0,-4.0894,-4.0756,-4.0273,-4.0181,-4.0733,-4.2171,-4.2344,-4.2516,-4.293,-4.3379,-4.3793,-4.4078,-4.3828,-4.3793,-4.4113,-4.4113,-4.4458,-4.5216,-4.5561,-4.632,-4.75,-4.7527,-4.7913,-4.87,-4.8976,-4.9327,-4.974,-4.974,-5.0045,-5.0493,-5.0907,-5.1498,-5.2257,-5.308,-5.3839,-5.4494,-5.4494,-5.4494,-5.4563,-5.4874,-5.5736,-5.684,-5.715,-5.8012,-5.9012,-5.9012,-5.9012,-5.9219,-6.0323,-6.0668,-6.0978,-6.253,-6.2944,-6.3048,-6.3496,-6.36,-6.36,-6.36,-6.36,-6.36,-6.36,-6.36,-6.36,-6.36,-6.36,-6.3343,-6.2591,-6.3085,-6.3459,-6.3153,-6.4002,-6.4714,-6.4754,-6.4986,-6.5053,-6.4816,-6.5301,-6.522,-6.4096,-6.4128,-6.3991,-6.3514,-6.3463,-6.3649,-6.4046,-6.4024,-6.4024,-6.4123,-6.3295,-6.2732,-6.2477,-6.1748,-6.0962,-6.0184,-5.9502,-5.9587,-4.4113,-4.5044,-4.6121,-4.532,-4.4699,-4.4207,-4.3759,-4.2551,-4.155,-4.1688,-4.1619,0.0,0.0,0.0,-4.0894,-4.0894,0.0,-4.0722,-4.0112,-4.0008,-4.0146,-4.0549,-4.0791,-4.1101,-4.1654,-4.224,-4.2551,-4.2551,-4.2551,-4.2551,-4.2551,-4.2758,-4.3138,-4.3655,-4.3897,-4.4725,-4.6259,-4.6259,-4.6769,-4.7672,-4.7672,-4.8086,-4.881,-4.881,-4.9223,-5.0045,-5.0804,-5.1498,-5.2257,-5.308,-5.3839,-5.4494,-5.4494,-5.4494,-5.4494,-5.4494,-5.5357,-5.6495,-5.6736,-5.7771,-5.9012,-5.9012,-5.9012,-5.915,-5.9944,-6.0185,-6.053,-6.2048,-6.2324,-6.2324,-6.3082,-6.3289,-6.3289,-6.3289,-6.3427,-6.36,-6.36,-6.36,-6.36,-6.36,-6.36,-6.36,-6.36,-6.4048,-6.4393,-6.4393,-6.4876,-6.5324,-6.5531,-6.5566,-6.537,-6.488,-6.546,-6.5431,-6.4309,-6.4113,-6.4119,-6.4262,-6.3785,-6.3651,-6.3953,-6.3852,-6.3953,-6.4254,-6.3257,-6.2721,-6.2721,-6.1984,-6.1616,-6.1616,-6.0595,-6.0406,-4.5949,-4.6983,-4.801,-4.5044,-4.4311,-4.3931,-4.2413,-4.262,-4.2689,-4.124,-4.2102,-4.2689,-4.1205,-4.0929,-4.0894,-4.0894,-4.0894,0.0,0.0,-4.086,-4.0584,-3.9836,-4.0446,-4.0929,-4.0929,-4.0963,-4.0963,-4.0963,-4.0963,-4.0963,-4.0963,-4.1654,-4.2043,-4.2043,-4.2827,-4.394,-4.5432,-4.5432,-4.619,-4.7672,-4.7672,-4.8086,-4.881,-4.881,-4.9223,-5.0045,-5.0804,-5.1498,-5.2257,-5.308,-5.3839,-5.4494,-5.4494,-5.4494,-5.4494,-5.4494,-5.4977,-5.577,-5.6529,-5.7771,-5.9012,-5.9012,-5.9012,-5.915,-5.9944,-6.0185,-6.053,-6.2048,-6.1944,-6.153,-6.2324,-6.253,-6.253,-6.253,-6.3082,-6.36,-6.36,-6.36,-6.36,-6.36,-6.36,-6.36,-6.36,-6.36,-6.3634,-6.3634,-6.3669,-6.391,-6.4634,-6.4738,-6.5014,-6.5769,-6.5876,-6.5495,-6.4478,-6.5265,-6.5493,-6.4731,-6.4663,-6.4353,-6.3629,-6.5007,-6.5455,-6.4697,-6.4628,-6.4628,-6.4628,-6.387,-6.3491,-6.3454,-6.1696,-6.0972,-4.7844,-4.9292,-5.0326,-4.732,-4.6941,-4.6493,-4.3483,-4.3379,-4.3345,-4.1309,-4.2137,-4.2723,-4.117,-4.0894,-4.0894,0.0,-4.0894,-4.0722,0.0,-4.0112,-4.0008,-3.9733,-3.9939,-4.0342,-4.086,-3.9997,-3.9825,-4.0825,-4.0411,-4.0342,-4.086,-4.1136,-4.1516,-4.1999,-4.2275,-4.2896,-4.3906,-4.4423,-4.4906,-4.5458,-4.5914,-4.6845,-4.8051,-4.8051,-4.9016,-5.0735,-5.1011,-5.1839,-5.3011,-5.3287,-5.3839,-5.4494,-5.4494,-5.4494,-5.4494,-5.4494,-5.4977,-5.5773,-5.7081,-5.8185,-5.9012,-5.9012,-5.9012,-5.9047,-5.9323,-5.9426,-5.9737,-6.1254,-6.1151,-6.0978,-6.2772,-6.2841,-6.2599,-6.3082,-6.3427,-6.36,-6.36,-6.36,-6.36,-6.36,-6.36,-6.36,-6.36,-6.36,-6.36,-6.36,-6.36,-6.3669,-6.3945,-6.3979,-6.4083,-6.4324,-6.4358,-6.4418,-6.456,-6.4931,-6.4772,-6.4014,-6.3979,-6.4083,-6.4324,-6.4358,-6.4462,-6.4703,-6.422,-6.3979,-6.3979,-6.3703,-6.36,-6.36,-6.2969,-6.2685,-4.8879,-5.0257,-5.1188,-4.8706,-4.8224,-4.7603,-4.4665,-4.4354,-4.4182,-4.2482,-4.2689,-4.2965,-4.224,-4.1447,-4.0998,0.0,0.0,-4.0722,0.0,-4.0112,-4.0112,-4.0112,-4.0112,-4.0319,-4.086,-3.9756,-3.9526,-4.0791,-4.0146,-4.0043,-4.086,-4.0894,-4.1136,-4.1585,-4.1619,-4.1999,-4.2758,-4.3517,-4.4035,-4.4311,-4.5044,-4.619,-4.7672,-4.7672,-4.8913,-5.1114,-5.139,-5.2218,-5.3425,-5.3667,-5.408,-5.4494,-5.4494,-5.4494,-5.4494,-5.4494,-5.4977,-5.5805,-5.7081,-5.8012,-5.8668,-5.8909,-5.9012,-5.9012,-5.9012,-5.9012,-5.9288,-6.0565,-6.0565,-6.053,-6.2013,-6.2427,-6.2461,-6.2393,-6.3013,-6.3531,-6.3255,-6.3393,-6.36,-6.36,-6.36,-6.36,-6.36,-6.36,-6.36,-6.36,-6.36,-6.36,-6.36,-6.36,-6.36,-6.36,-6.36,-6.3772,-6.4255,-6.4324,-6.4117,-6.3634,-6.36,-6.3807,-6.4289,-6.3841,-6.4083,-6.5117,-6.4117,-6.3876,-6.4427,-6.3876,-6.36,-6.36,-6.36,-6.36]},{"header":{"parameterUnit":"m.s-1","parameterCategory":1,"la1":30.6,"la2":29.2853,"lo1":-89.7004,"lo2":-87.6739,"dy":0.0162,"dx":0.0183,"nx":112,"ny":82,"refTime":"2023-08-08T06:00:00:Z","depth":0,"parameterNumber":3,"parameterNumberName":"V-component_of_WINDS"},"data":[0.0,0.0,0.0,0.0,0.0,0.0,0.0,0.0,0.0,0.0,0.0,0.0,0.0,0.0,0.0,0.0,0.0,0.0,0.0,0.0,0.0,0.0,0.0,0.0,0.0,0.0,0.0,0.0,0.0,0.0,0.0,0.0,0.0,0.0,0.0,0.0,0.0,0.0,0.0,0.0,0.0,0.0,0.0,0.0,0.0,0.0,0.0,0.0,0.0,0.0,0.0,0.0,0.0,0.0,0.0,0.0,0.0,0.0,0.0,0.0,0.0,0.0,0.0,0.0,0.0,0.0,0.0,0.0,0.0,0.0,0.0,0.0,0.0,0.0,0.0,0.0,0.0,0.0,0.0,0.0,0.0,0.0,0.0,0.0,0.0,0.0,0.0,0.0,0.0,0.0,-3.2466,-3.6651,-4.49,-5.0407,-5.1129,-5.0648,-4.7329,-4.0306,0.0,0.0,0.0,0.0,0.0,0.0,0.0,0.0,0.0,0.0,0.0,0.0,0.0,0.0,0.0,0.0,0.0,0.0,0.0,0.0,0.0,0.0,0.0,0.0,0.0,0.0,0.0,0.0,0.0,0.0,0.0,0.0,0.0,0.0,0.0,0.0,0.0,0.0,0.0,0.0,0.0,0.0,0.0,0.0,0.0,0.0,0.0,0.0,0.0,0.0,0.0,0.0,0.0,0.0,0.0,0.0,0.0,0.0,0.0,0.0,0.0,0.0,0.0,0.0,0.0,0.0,0.0,0.0,0.0,0.0,0.0,0.0,0.0,0.0,0.0,0.0,0.0,0.0,0.0,0.0,0.0,0.0,0.0,0.0,0.0,0.0,0.0,0.0,0.0,0.0,0.0,0.0,0.0,0.0,0.0,0.0,0.0,0.0,0.0,0.0,0.0,0.0,0.0,0.0,-3.4174,-4.2724,-4.8219,-5.1826,-5.3221,-5.0455,-4.6463,-4.1268,0.0,0.0,0.0,0.0,0.0,0.0,0.0,0.0,0.0,0.0,0.0,0.0,0.0,0.0,0.0,0.0,0.0,0.0,0.0,0.0,0.0,0.0,0.0,0.0,0.0,0.0,0.0,0.0,0.0,0.0,0.0,0.0,0.0,0.0,0.0,0.0,0.0,0.0,0.0,0.0,0.0,0.0,0.0,0.0,0.0,0.0,0.0,0.0,0.0,0.0,0.0,0.0,0.0,0.0,0.0,0.0,0.0,0.0,0.0,0.0,0.0,0.0,0.0,0.0,0.0,0.0,0.0,0.0,0.0,0.0,0.0,0.0,0.0,0.0,0.0,0.0,0.0,0.0,0.0,0.0,0.0,0.0,0.0,0.0,0.0,0.0,0.0,0.0,0.0,0.0,0.0,0.0,0.0,0.0,0.0,0.0,0.0,0.0,0.0,0.0,0.0,0.0,0.0,-3.3452,-3.7613,-4.5188,-4.9301,-5.1778,-5.2499,-5.0191,-4.6439,-4.11,-3.8479,0.0,0.0,0.0,0.0,0.0,0.0,0.0,0.0,0.0,0.0,0.0,0.0,0.0,0.0,0.0,0.0,0.0,0.0,0.0,0.0,0.0,0.0,0.0,0.0,0.0,0.0,0.0,0.0,0.0,0.0,0.0,0.0,0.0,0.0,0.0,0.0,0.0,0.0,0.0,0.0,0.0,0.0,0.0,0.0,0.0,0.0,0.0,0.0,0.0,0.0,0.0,0.0,0.0,0.0,0.0,0.0,0.0,0.0,0.0,0.0,0.0,0.0,0.0,0.0,0.0,0.0,0.0,0.0,0.0,0.0,0.0,0.0,0.0,0.0,0.0,0.0,0.0,0.0,0.0,0.0,0.0,0.0,0.0,0.0,0.0,0.0,0.0,0.0,0.0,0.0,0.0,0.0,0.0,0.0,0.0,0.0,0.0,0.0,0.0,0.0,0.0,0.0,-3.7517,-4.0643,-4.6126,-4.9686,-5.1634,-5.1489,-4.9541,-4.6054,-4.0739,-3.7421,0.0,0.0,0.0,0.0,0.0,0.0,0.0,0.0,0.0,0.0,0.0,0.0,0.0,0.0,0.0,0.0,0.0,0.0,0.0,0.0,0.0,0.0,0.0,0.0,0.0,0.0,0.0,0.0,0.0,0.0,0.0,0.0,0.0,0.0,0.0,0.0,0.0,0.0,0.0,0.0,0.0,0.0,0.0,0.0,0.0,0.0,0.0,0.0,0.0,0.0,0.0,0.0,0.0,0.0,0.0,0.0,0.0,0.0,0.0,0.0,0.0,0.0,0.0,0.0,0.0,0.0,0.0,0.0,0.0,0.0,0.0,0.0,0.0,0.0,0.0,0.0,0.0,0.0,0.0,0.0,0.0,0.0,0.0,0.0,0.0,0.0,0.0,0.0,0.0,0.0,0.0,0.0,0.0,0.0,0.0,0.0,0.0,0.0,0.0,0.0,0.0,0.0,-3.8046,-4.1894,-4.6247,-5.0022,-5.2018,-5.1537,-4.8219,-4.4491,-4.0643,-3.605,0.0,0.0,0.0,0.0,0.0,0.0,0.0,0.0,0.0,0.0,0.0,0.0,0.0,0.0,0.0,0.0,0.0,0.0,0.0,0.0,0.0,0.0,0.0,0.0,0.0,0.0,0.0,0.0,0.0,0.0,0.0,0.0,0.0,0.0,0.0,0.0,0.0,0.0,0.0,0.0,0.0,0.0,0.0,0.0,0.0,0.0,0.0,0.0,0.0,0.0,0.0,0.0,0.0,0.0,0.0,0.0,0.0,0.0,0.0,0.0,0.0,0.0,0.0,0.0,0.0,0.0,0.0,0.0,0.0,0.0,0.0,0.0,0.0,0.0,0.0,0.0,0.0,0.0,0.0,0.0,0.0,0.0,0.0,0.0,0.0,0.0,0.0,0.0,0.0,0.0,0.0,0.0,0.0,0.0,0.0,0.0,0.0,0.0,0.0,0.0,0.0,0.0,-3.8791,-4.2519,-4.6752,-4.995,-5.1562,-5.1056,-4.8483,-4.49,-4.021,0.0,0.0,0.0,0.0,0.0,0.0,0.0,0.0,0.0,0.0,0.0,0.0,0.0,0.0,0.0,0.0,0.0,0.0,0.0,0.0,0.0,0.0,0.0,0.0,0.0,0.0,0.0,0.0,0.0,0.0,0.0,0.0,0.0,0.0,0.0,0.0,0.0,0.0,0.0,0.0,0.0,0.0,0.0,0.0,0.0,0.0,0.0,0.0,0.0,0.0,0.0,0.0,0.0,0.0,0.0,0.0,0.0,0.0,0.0,0.0,0.0,0.0,0.0,0.0,0.0,0.0,0.0,0.0,0.0,0.0,0.0,0.0,0.0,0.0,0.0,0.0,0.0,0.0,0.0,0.0,0.0,0.0,0.0,0.0,0.0,0.0,0.0,0.0,0.0,0.0,0.0,0.0,0.0,0.0,0.0,0.0,0.0,0.0,0.0,0.0,0.0,0.0,-3.5617,-3.9104,-4.2615,-4.6343,-4.9445,-5.0888,-4.9998,-4.7521,-4.4106,-3.9633,0.0,0.0,0.0,0.0,0.0,0.0,0.0,0.0,0.0,0.0,0.0,0.0,0.0,0.0,0.0,0.0,0.0,0.0,0.0,0.0,0.0,0.0,0.0,0.0,0.0,0.0,0.0,0.0,0.0,0.0,0.0,0.0,0.0,0.0,0.0,0.0,0.0,0.0,0.0,0.0,0.0,0.0,0.0,0.0,0.0,0.0,0.0,0.0,0.0,0.0,0.0,0.0,0.0,0.0,0.0,0.0,0.0,0.0,0.0,0.0,0.0,0.0,0.0,0.0,0.0,0.0,0.0,0.0,0.0,0.0,0.0,0.0,0.0,0.0,0.0,0.0,0.0,0.0,0.0,0.0,0.0,0.0,0.0,0.0,0.0,0.0,0.0,0.0,0.0,0.0,0.0,0.0,0.0,0.0,0.0,0.0,0.0,0.0,0.0,0.0,0.0,0.0,-3.5208,-3.8888,-4.2206,-4.4813,-4.8483,-5.0046,-4.8435,-4.49,-4.1653,0.0,0.0,0.0,0.0,0.0,0.0,0.0,0.0,0.0,0.0,0.0,0.0,0.0,0.0,0.0,0.0,0.0,0.0,0.0,0.0,0.0,0.0,0.0,0.0,0.0,0.0,0.0,0.0,0.0,0.0,0.0,0.0,0.0,0.0,0.0,0.0,0.0,0.0,0.0,0.0,0.0,0.0,0.0,0.0,0.0,0.0,0.0,0.0,0.0,0.0,0.0,0.0,0.0,0.0,0.0,0.0,0.0,0.0,0.0,0.0,0.0,0.0,0.0,0.0,0.0,0.0,0.0,0.0,0.0,0.0,0.0,0.0,0.0,0.0,0.0,0.0,0.0,0.0,0.0,0.0,0.0,0.0,0.0,0.0,0.0,0.0,0.0,0.0,0.0,0.0,0.0,0.0,0.0,0.0,0.0,0.0,0.0,0.0,0.0,0.0,0.0,0.0,0.0,-3.5809,-3.9753,-4.3313,-4.5958,-4.8555,-4.9758,-4.8916,-4.579,-4.2423,-3.9032,0.0,0.0,0.0,0.0,0.0,0.0,0.0,0.0,0.0,0.0,0.0,0.0,0.0,0.0,0.0,0.0,0.0,0.0,0.0,0.0,0.0,0.0,0.0,0.0,0.0,0.0,0.0,0.0,0.0,0.0,0.0,0.0,0.0,0.0,0.0,0.0,0.0,0.0,0.0,0.0,0.0,0.0,0.0,0.0,0.0,0.0,0.0,0.0,0.0,0.0,0.0,0.0,0.0,0.0,0.0,0.0,0.0,0.0,0.0,0.0,0.0,0.0,0.0,0.0,0.0,0.0,0.0,0.0,0.0,0.0,0.0,0.0,0.0,0.0,0.0,0.0,0.0,0.0,0.0,0.0,0.0,0.0,0.0,0.0,0.0,0.0,0.0,0.0,0.0,0.0,0.0,0.0,0.0,0.0,0.0,0.0,0.0,0.0,0.0,0.0,0.0,0.0,-3.5497,-3.9681,-4.3313,-4.5525,-4.7858,-4.894,-4.8195,-4.5597,-4.2351,-3.8407,0.0,0.0,0.0,0.0,0.0,0.0,0.0,0.0,0.0,0.0,0.0,0.0,0.0,0.0,0.0,0.0,0.0,0.0,0.0,0.0,0.0,0.0,0.0,0.0,0.0,0.0,0.0,0.0,0.0,0.0,0.0,0.0,0.0,0.0,0.0,0.0,0.0,0.0,0.0,0.0,0.0,0.0,0.0,0.0,0.0,0.0,0.0,0.0,0.0,0.0,0.0,0.0,0.0,0.0,0.0,0.0,0.0,0.0,0.0,0.0,0.0,0.0,0.0,0.0,0.0,0.0,0.0,0.0,0.0,0.0,0.0,0.0,0.0,0.0,0.0,0.0,0.0,0.0,0.0,0.0,0.0,0.0,0.0,0.0,0.0,0.0,0.0,0.0,0.0,0.0,0.0,0.0,0.0,0.0,0.0,0.0,0.0,0.0,0.0,0.0,0.0,0.0,-3.4823,-3.9152,-4.2663,-4.4261,-4.6776,-4.7858,-4.68,-4.478,-4.1798,-3.7613,0.0,0.0,0.0,0.0,0.0,0.0,0.0,0.0,0.0,0.0,0.0,0.0,0.0,0.0,0.0,0.0,0.0,0.0,0.0,0.0,0.0,0.0,0.0,0.0,0.0,0.0,0.0,0.0,0.0,0.0,0.0,0.0,0.0,0.0,0.0,0.0,0.0,0.0,0.0,0.0,0.0,0.0,0.0,0.0,0.0,0.0,0.0,0.0,0.0,0.0,0.0,0.0,0.0,0.0,0.0,0.0,0.0,0.0,0.0,0.0,-3.428,-3.1613,0.0,0.0,0.0,0.0,0.0,0.0,0.0,0.0,0.0,0.0,0.0,0.0,0.0,0.0,0.0,0.0,0.0,0.0,0.0,0.0,0.0,0.0,0.0,0.0,0.0,0.0,0.0,0.0,0.0,0.0,0.0,0.0,0.0,0.0,0.0,0.0,0.0,0.0,0.0,0.0,-3.6386,-4.0138,-4.3361,-4.5381,-4.7209,-4.7858,-4.68,-4.514,-4.2543,-3.8719,-3.5593,0.0,0.0,0.0,0.0,0.0,0.0,0.0,0.0,0.0,0.0,0.0,0.0,0.0,0.0,0.0,0.0,0.0,0.0,0.0,0.0,0.0,0.0,0.0,0.0,0.0,0.0,0.0,0.0,0.0,0.0,0.0,0.0,0.0,0.0,0.0,0.0,0.0,0.0,0.0,0.0,0.0,0.0,0.0,0.0,0.0,0.0,0.0,0.0,0.0,0.0,0.0,0.0,0.0,0.0,0.0,0.0,0.0,0.0,0.0,-3.7195,-3.5057,0.0,0.0,0.0,0.0,0.0,0.0,0.0,0.0,0.0,0.0,0.0,0.0,0.0,0.0,0.0,0.0,0.0,0.0,0.0,0.0,0.0,0.0,0.0,0.0,0.0,0.0,0.0,0.0,0.0,0.0,0.0,0.0,0.0,0.0,0.0,0.0,0.0,0.0,0.0,0.0,-3.6892,-4.0451,-4.3577,-4.5694,-4.7112,-4.7473,-4.6415,-4.4876,-4.2471,-3.9032,-3.5999,0.0,0.0,0.0,0.0,0.0,0.0,0.0,0.0,0.0,0.0,0.0,0.0,0.0,0.0,0.0,0.0,0.0,0.0,0.0,0.0,0.0,0.0,0.0,0.0,0.0,0.0,0.0,0.0,0.0,0.0,0.0,0.0,0.0,0.0,0.0,0.0,0.0,0.0,0.0,0.0,0.0,0.0,0.0,0.0,0.0,0.0,0.0,0.0,0.0,0.0,0.0,0.0,0.0,-4.439,-4.4836,-4.4335,-4.4963,-4.4988,-4.4395,-4.1653,-4.0269,-3.9745,-3.7297,0.0,0.0,0.0,0.0,0.0,0.0,0.0,0.0,0.0,0.0,0.0,0.0,0.0,0.0,0.0,0.0,0.0,0.0,0.0,0.0,0.0,0.0,-3.6074,-3.7132,-3.8647,-3.8864,-3.5088,0.0,0.0,0.0,0.0,0.0,0.0,0.0,0.0,0.0,0.0,0.0,-3.718,-4.0571,-4.3577,-4.5694,-4.6704,-4.68,-4.5742,-4.4347,-4.2206,-3.9152,-3.6627,-3.4294,0.0,0.0,0.0,0.0,0.0,0.0,0.0,0.0,0.0,0.0,0.0,0.0,0.0,0.0,0.0,0.0,0.0,0.0,0.0,0.0,0.0,0.0,0.0,0.0,0.0,0.0,0.0,0.0,0.0,0.0,0.0,0.0,-3.5517,-3.4845,0.0,0.0,0.0,0.0,0.0,0.0,0.0,0.0,0.0,0.0,0.0,0.0,0.0,-4.492,-4.6466,-4.9034,-4.9085,-4.673,-5.0489,-5.0943,-4.8385,-4.9362,-5.0524,-5.1634,-5.0768,0.0,-4.22,-3.9977,0.0,0.0,0.0,0.0,0.0,0.0,0.0,0.0,0.0,0.0,0.0,0.0,0.0,0.0,0.0,0.0,0.0,0.0,0.0,0.0,0.0,0.0,-3.9922,-4.098,-4.11,-4.1052,-4.1398,-3.8551,-3.5665,-3.4607,-3.3861,-3.3164,0.0,0.0,0.0,0.0,0.0,0.0,-3.8262,-4.1028,-4.3577,-4.5694,-4.6054,-4.5694,-4.4573,-4.3914,-4.2351,-3.9681,-3.7853,-3.593,-3.3766,-3.1769,0.0,0.0,0.0,0.0,0.0,0.0,0.0,0.0,0.0,0.0,0.0,0.0,0.0,0.0,0.0,0.0,0.0,0.0,0.0,0.0,0.0,0.0,0.0,0.0,0.0,0.0,0.0,0.0,0.0,-3.5489,-3.6473,-3.4843,-3.6416,-3.7017,0.0,0.0,0.0,0.0,0.0,0.0,0.0,0.0,0.0,-4.7937,-4.864,-4.997,-5.2072,-5.324,-5.3794,-5.3681,-5.4666,-5.4672,-5.386,-5.4124,-5.4616,-5.5265,-5.5049,-5.3365,-5.0455,-4.6223,-4.3192,-4.0956,0.0,0.0,0.0,0.0,-3.9008,-4.0379,-4.0812,-4.1653,-4.2375,-4.1365,0.0,0.0,0.0,0.0,0.0,0.0,0.0,-3.8046,-3.9224,-4.1293,-4.3337,-4.4395,-4.514,-4.5501,-4.5068,-4.3048,-4.0571,-3.7998,-3.7156,-3.629,-3.4559,-3.3549,0.0,0.0,0.0,-3.7012,-3.9393,-4.1749,-4.389,-4.5742,-4.5934,-4.5621,-4.4789,-4.401,-4.2639,-4.0619,-3.8695,-3.6964,-3.5425,-3.3356,-3.1841,0.0,0.0,0.0,0.0,0.0,0.0,0.0,0.0,0.0,0.0,0.0,0.0,0.0,0.0,0.0,0.0,0.0,0.0,0.0,0.0,0.0,0.0,0.0,0.0,0.0,0.0,0.0,0.0,-3.6613,-3.7878,-3.5199,-3.8383,-3.9633,0.0,0.0,0.0,0.0,0.0,0.0,-4.6616,-4.7965,-5.0129,-5.3388,-5.4091,-5.558,-5.8081,-5.7676,-5.8196,-5.9536,-5.8102,-5.7604,-5.8034,-5.7715,-5.7694,-5.7814,-5.7694,-5.755,-5.6997,-5.1417,-4.7882,-4.563,-4.276,-4.1701,-4.1846,-4.2086,-4.312,-4.4491,-4.5261,-4.6223,-4.6824,-4.4972,-4.3481,-4.1966,-3.9705,0.0,0.0,0.0,0.0,-4.0475,-4.2471,-4.4251,-4.5886,-4.7209,-4.8411,-4.8916,-4.7593,-4.6583,-4.4852,-4.1124,-4.009,-3.908,-3.6819,-3.5615,0.0,-3.4823,-3.6531,-3.8527,-4.0547,-4.2279,-4.389,-4.5357,-4.5285,-4.49,-4.4371,-4.3577,-4.2447,-4.0884,-3.9272,-3.7853,-3.6651,-3.4727,-3.3188,-3.2151,0.0,0.0,0.0,0.0,0.0,0.0,0.0,0.0,0.0,0.0,0.0,0.0,0.0,0.0,0.0,0.0,0.0,0.0,0.0,0.0,0.0,0.0,0.0,0.0,0.0,0.0,0.0,0.0,0.0,-3.7203,-4.2233,0.0,0.0,0.0,0.0,-4.4911,-4.774,-5.0604,-5.3135,-5.4372,-5.6732,-6.0469,-6.1172,-6.2689,-6.5134,-6.3645,-6.2691,-6.2391,-6.1188,-6.0224,-5.935,-5.9316,-5.9546,-5.9979,-5.9498,-5.8993,-5.8151,-5.3317,-5.096,-5.0022,-4.6343,-4.5213,-4.5597,-4.5053,-4.6559,-4.8555,-4.7136,-4.7329,-4.8267,-4.8628,-4.7353,-4.5477,-4.4261,-4.2904,0.0,0.0,-4.2856,-4.3649,-4.5309,-4.6175,-4.7161,-4.9229,-4.9782,-4.9662,-4.9084,-4.8531,-4.704,-4.3373,-4.1389,-3.9994,-3.8864,0.0,-3.7613,-3.7108,-3.8431,-4.0066,-4.1677,-4.2482,-4.3216,-4.4261,-4.3529,-4.2771,-4.2182,-4.2086,-4.1365,-3.9777,-3.9585,-3.8815,-3.7228,-3.5617,-3.427,-3.3236,-3.1144,0.0,0.0,0.0,0.0,0.0,0.0,0.0,0.0,0.0,0.0,0.0,0.0,0.0,0.0,0.0,0.0,0.0,0.0,0.0,0.0,0.0,0.0,0.0,0.0,0.0,0.0,0.0,0.0,-4.3694,-4.8331,0.0,-4.7235,-4.8471,-4.982,-5.0635,-5.322,-5.5833,-5.8306,-5.9626,-6.1621,-6.4544,-6.4853,-6.5237,-6.5846,-6.5671,-6.4376,-6.2084,-6.2084,-6.1293,-5.9883,-5.9883,-6.0003,-6.0171,-5.9979,-5.9786,-5.945,-5.7405,-5.5433,-5.3534,-5.1513,-5.0648,-5.0503,-5.0311,-5.1032,-5.1994,-5.1105,-5.1056,-5.1008,-4.8772,-4.7088,-4.5718,-4.4621,-4.4178,-4.4202,-4.5068,-4.5934,-4.6872,-4.8147,-4.8868,-4.9469,-5.0215,-5.0407,-5.0167,-4.9277,-4.894,-4.8195,-4.6199,-4.4251,-4.2495,-4.11,-4.0403,-3.9874,-3.9345,-4.0331,-4.1461,-4.2434,-4.2928,-4.3385,-4.377,-4.3168,-4.2747,-4.2554,-4.1846,-4.0932,-3.9681,-3.896,-3.7853,-3.6242,-3.5304,-3.4174,-3.2803,-3.1336,-3.0678,0.0,0.0,0.0,0.0,0.0,0.0,0.0,0.0,0.0,0.0,0.0,0.0,0.0,0.0,0.0,0.0,0.0,0.0,0.0,0.0,0.0,0.0,0.0,0.0,0.0,0.0,-4.8977,-4.878,-5.3697,-5.5945,-5.3023,-5.4456,-5.5889,-5.6732,-5.9093,-6.1397,-6.3476,-6.4544,-6.5949,-6.7775,-6.7831,-6.7402,-6.6589,-6.6362,-6.4926,-6.2064,-6.1975,-6.1267,-6.0171,-6.0171,-6.0171,-6.0171,-6.0171,-6.0171,-6.0147,-5.9786,-5.8512,-5.6612,-5.5385,-5.4688,-5.4351,-5.3991,-5.4183,-5.452,-5.3822,-5.3125,-5.2139,-4.9662,-4.8122,-4.7161,-4.6655,-4.6607,-4.692,-4.781,-4.8555,-4.9253,-4.9974,-5.0431,-5.0696,-5.0696,-5.0696,-5.0407,-4.9301,-4.9084,-4.8724,-4.7473,-4.6102,-4.4708,-4.3289,-4.2591,-4.2062,-4.1533,-4.2038,-4.2615,-4.2976,-4.3168,-4.3192,-4.3,-4.2543,-4.2217,-4.199,-4.1317,-4.0306,-3.8888,-3.8118,-3.7012,-3.5425,-3.4799,-3.4006,-3.2779,-3.1641,-3.1133,-3.1293,0.0,0.0,0.0,0.0,0.0,0.0,0.0,0.0,0.0,0.0,0.0,0.0,0.0,0.0,0.0,0.0,0.0,0.0,0.0,0.0,0.0,0.0,0.0,-4.2879,-4.8668,-5.2742,-5.2264,-5.8109,-6.075,-5.7126,-6.061,-6.3111,-6.3111,-6.5359,-6.7241,-6.8478,-6.9096,-6.9686,-7.0202,-7.023,-6.9354,-6.763,-6.6053,-6.4366,-6.2615,-6.1042,-6.0255,-6.0171,-6.0171,-6.0171,-6.0171,-6.0171,-6.0171,-6.0171,-6.0171,-5.9883,-5.9257,-5.7694,-5.7069,-5.6925,-5.5866,-5.5794,-5.6083,-5.4977,-5.3269,-5.1562,-5.1513,-5.0792,-5.0022,-5.0551,-5.0335,-4.9998,-5.0551,-5.0696,-5.0696,-5.0696,-5.0696,-5.0696,-5.0696,-5.0696,-5.0407,-4.9301,-4.9084,-4.8603,-4.704,-4.6728,-4.6367,-4.5245,-4.4645,-4.4117,-4.3625,-4.3529,0.0,-4.3505,-4.3072,-4.2602,-4.2097,-4.1509,-4.098,-4.0451,-4.0355,-3.9441,-3.73,-3.7132,-3.6386,-3.4775,-3.4222,-3.3694,-3.3212,-3.1981,-3.1069,-3.0518,0.0,0.0,0.0,0.0,0.0,0.0,0.0,0.0,0.0,0.0,0.0,0.0,0.0,0.0,0.0,0.0,0.0,0.0,0.0,0.0,0.0,0.0,-4.9258,-4.9258,-5.3978,-5.8362,-6.0891,-6.4038,-6.5583,-6.4544,-6.5977,-6.696,-6.696,-6.8393,-6.9433,-6.9798,-6.9967,-6.9588,-6.8497,-6.8497,-6.7064,-6.4126,-6.4844,-6.375,-6.0876,-6.1656,-6.135,-6.0171,-6.0171,-6.0171,-6.0171,-6.0171,-6.0171,-6.0171,-6.0171,-6.0075,-5.9883,-5.9065,-5.8271,-5.755,-5.7261,-5.6756,-5.6083,-5.4977,-5.3991,-5.298,-5.185,-5.1297,-5.1008,-5.0768,-5.06,-5.0503,-5.0648,-5.0696,-5.0696,-5.0696,-5.0696,-5.0696,-5.0696,-5.0696,-5.0407,-4.9301,-4.9084,-4.8724,-4.7521,-4.6968,-4.6367,-4.5245,-4.4957,-4.4669,-4.4141,-4.377,-4.3505,-4.3505,-4.2735,-4.2193,-4.2049,-4.1846,-4.1389,-4.0475,-3.9705,-3.8503,-3.6723,-3.5545,-3.4318,-3.3188,-3.2996,-3.2491,-3.1553,-3.1783,-3.1646,0.0,0.0,0.0,0.0,0.0,0.0,0.0,0.0,0.0,0.0,0.0,0.0,0.0,0.0,0.0,0.0,0.0,0.0,0.0,0.0,0.0,0.0,-5.1393,-5.5243,-5.7322,-6.0104,-6.2998,-6.5977,-6.7719,-6.8674,-6.8674,-6.9011,-6.8944,-6.8226,-6.8891,-6.8978,-6.8165,-6.8165,-6.7707,-6.6754,-6.6677,-6.5398,-6.2697,-6.3644,-6.2778,-6.0171,-6.1208,-6.1125,-6.0171,-6.0171,-6.0171,-6.0171,-6.0171,-6.0171,-6.0171,-6.0171,-6.0051,-5.9786,0.0,0.0,0.0,0.0,-5.6275,-5.5458,-5.4832,-5.3966,-5.3029,-5.2115,-5.1513,-5.1105,-5.0792,-5.0696,-5.0696,-5.0696,-5.0696,-5.0696,-5.0696,-5.0696,-5.0696,-5.0696,-5.0527,-5.0119,-4.9253,-4.8892,-4.8435,-4.7377,-4.692,0.0,-4.5597,-4.5221,-4.4885,-4.4357,-4.4021,-4.377,-4.3553,-4.2976,-4.2447,-4.2073,-4.1966,-4.1461,-4.0186,-3.9296,0.0,0.0,0.0,-3.3477,-3.2202,-3.2154,0.0,0.0,0.0,-3.2137,-3.1477,-3.2618,0.0,0.0,-3.2561,-3.2836,0.0,0.0,0.0,0.0,0.0,0.0,0.0,0.0,0.0,0.0,0.0,0.0,0.0,0.0,0.0,0.0,-5.6648,-6.075,-6.5443,-6.6145,-6.682,-6.8478,-6.9714,-7.0314,-7.0082,-7.0007,-6.9279,-6.763,-6.7476,-6.6832,-6.524,-6.5161,0.0,0.0,0.0,-6.4126,-6.2452,-6.2452,-6.168,-6.0171,-6.0171,-6.0171,-6.0171,-6.0171,-6.0171,-6.0171,-6.0171,-6.0147,-6.0075,-6.0147,-5.9834,-5.9233,-5.8656,-5.8127,-5.7526,-5.5963,-5.5097,-5.4688,-5.464,0.0,0.0,-5.2331,-5.161,-5.0792,-5.072,-5.0696,-5.0696,-5.0696,-5.0696,-5.0696,-5.0696,-5.0648,-5.06,-5.06,-5.0191,-4.9638,-4.9109,-4.8628,-4.8002,-4.6992,-4.6752,-4.6559,-4.6102,-4.5525,-4.4909,-4.4453,-4.4261,-4.4021,-4.3577,-4.3409,-4.2976,-4.2062,-4.1966,0.0,-3.9753,-3.9128,-3.7733,-3.5111,-3.4342,-3.3404,-3.203,-3.1934,-3.191,-3.1982,-3.2665,-3.269,-3.2054,-3.3406,-3.3725,-3.3034,-3.329,-3.3409,0.0,0.0,0.0,0.0,0.0,0.0,0.0,0.0,0.0,0.0,0.0,0.0,0.0,0.0,0.0,-5.7266,-6.1481,-6.5274,-6.8253,-6.9096,-6.9545,-6.9911,-7.0613,-7.0286,-6.8475,-6.8269,-6.7553,-6.5791,-6.5713,-6.5556,-6.524,-6.5161,-6.4605,-6.324,-6.3159,-6.2395,-6.0733,-6.065,-6.0482,-6.0171,-6.0171,0.0,-6.0171,-6.0171,-6.0171,-6.0171,-6.0171,-5.9931,-5.957,-6.0003,-5.9618,-5.8656,-5.7694,-5.7261,-5.7021,-5.5842,-5.5337,-5.5193,-5.476,-5.4135,-5.3389,-5.2548,-5.185,-5.1249,-5.084,-5.0696,0.0,-5.0696,-5.0696,-5.0696,-5.0696,-5.0359,-5.0022,-5.0022,-4.9614,-4.9084,-4.8555,-4.8363,-4.8098,-4.7473,-4.7016,-4.668,-4.6583,-4.5766,-4.5029,-4.4933,-4.4227,-4.3625,-4.3529,-4.2784,-4.2206,-4.199,-4.1966,-4.1341,-3.9753,-3.9128,-3.8046,-3.6218,-3.4751,-3.3862,-3.355,-3.3188,-3.3164,-3.3573,-3.3713,-3.3931,-3.4222,-3.4047,-3.3946,-3.3782,-3.3911,-3.3965,0.0,0.0,0.0,0.0,0.0,0.0,0.0,0.0,0.0,0.0,0.0,-4.7853,0.0,0.0,-5.8587,-6.2296,-6.5246,-6.7719,-6.9602,-6.9662,-6.9385,-6.9081,-6.9302,-6.8749,-6.6704,-6.6521,-6.5791,-6.4046,-6.3966,-6.3563,-6.2722,-6.2722,-6.2313,-6.1515,-6.1432,-6.1042,-6.0171,-6.0171,-6.0171,-6.0171,-6.0171,-6.0171,-6.0171,-6.0171,-6.0171,-6.0171,-6.0171,-5.9883,-5.9353,-5.9113,-5.868,-5.8079,-5.6732,-5.6203,-5.6107,-5.5289,-5.4832,-5.4568,-5.4303,-5.387,-5.3317,-5.2524,-5.1922,-5.1393,-5.0864,-5.0696,-5.0696,-5.0696,-5.0696,-5.0696,-5.0696,-5.0503,-5.0215,-4.9926,-4.9469,-4.894,-4.8411,-4.8074,-4.781,-4.7545,-4.7281,-4.7016,-4.6752,-4.6054,-4.539,-4.5101,-4.4381,-4.3818,-4.3553,-4.3072,-4.2543,-4.2014,-4.1966,-4.1341,-3.9753,-3.8383,-3.7156,-3.6074,-3.4967,-3.439,-3.439,-3.4198,-3.4174,-3.439,-3.4655,-3.4919,-3.5232,-3.5232,-3.5232,-3.5208,-3.5223,-3.4973,0.0,0.0,0.0,0.0,0.0,0.0,0.0,0.0,-4.2991,-4.5351,-4.9253,-5.3134,-5.6195,-5.9711,-6.3223,-6.6426,-6.7785,-6.8713,-6.9691,-6.8755,-6.7679,-6.6885,-6.7172,-6.6732,-6.4844,-6.4685,-6.4046,-6.237,-6.2206,-6.1598,-6.0255,-6.0171,-6.0171,-6.0171,-6.0171,-6.0171,-6.0171,-6.0171,-6.0171,-6.0171,-6.0171,-6.0171,-6.0171,-6.0171,-6.0171,-6.0171,-5.9955,-5.9618,-5.9161,-5.8103,-5.7646,-5.7526,-5.6107,-5.5433,-5.5169,-5.464,-5.4183,-5.3822,-5.3822,-5.3413,-5.2836,-5.2427,-5.185,-5.1249,-5.084,-5.0696,-5.0696,-5.0696,-5.0696,-5.0696,-5.0696,-5.0551,-5.0263,-4.983,-4.9229,-4.8652,-4.8219,-4.781,-4.7497,-4.7497,-4.7497,-4.7329,-4.68,-4.6271,-4.5742,-4.5149,-4.4621,-4.4093,-4.3577,-4.3433,-4.3,-4.2062,-4.1798,-4.1076,-3.9585,-3.7757,-3.6531,-3.6098,-3.5569,-3.528,-3.528,-3.5184,-3.5184,-3.528,-3.5713,-3.5978,-3.6074,-3.629,-3.6459,-3.6555,-3.6338,-3.5857,-3.1168,-3.0922,-3.2006,-3.5855,-3.6852,-3.864,0.0,0.0,-4.8041,-5.2776,-5.5447,-5.7843,-6.0746,-6.3841,-6.6483,-6.8028,-6.8059,-6.7953,-6.8089,-6.6652,-6.5001,-6.3508,-6.5151,-6.5496,-6.321,-6.2997,-6.2288,-6.0566,-6.0482,-6.0423,-6.0171,-6.0171,-6.0171,-6.0171,-6.0171,-6.0171,-6.0171,-6.0171,-6.0171,-6.0171,-6.0171,-6.0171,-6.0171,-6.0171,-6.0171,-6.0123,-5.9185,-5.8728,-5.8608,-5.755,-5.7117,-5.7045,-5.6395,-5.5554,-5.464,-5.4111,-5.387,-5.3822,-5.3822,-5.3173,-5.2355,-5.2307,-5.161,-5.0792,-5.072,-5.0696,-5.0696,-5.0696,-5.0696,-5.0696,-5.0696,-4.9974,-4.9229,-4.9181,-4.8411,-4.7666,-4.7593,-4.7545,-4.7497,-4.7497,-4.7497,-4.7329,-4.68,-4.6271,-4.5742,-4.5149,-4.4621,-4.4093,-4.3577,-4.312,-4.2615,-4.2038,-4.1124,-4.0114,-3.9008,-3.8238,-3.7781,-3.7733,-3.7228,-3.6916,-3.6916,-3.6483,-3.6459,-3.6916,-3.6988,-3.7252,-3.7709,-3.6843,-3.6651,-3.7084,-3.6146,-3.5881,-3.3741,-3.3645,0.0,0.0,-3.9541,-4.194,-4.6464,-4.8812,-5.0969,-5.4438,-5.7704,-6.0403,-6.1997,-6.423,-6.5975,0.0,-6.6434,-6.6288,-6.6288,-6.4558,-6.277,-6.1475,-6.1332,-6.1297,-6.13,-6.0997,-6.0642,-6.0231,-6.0171,-6.0171,-6.0171,-6.0171,-6.0171,-6.0171,-6.0171,-6.0171,-6.0171,-6.0171,-6.0171,-6.0171,-6.0171,-6.0171,-6.0171,-6.0171,-6.0003,-5.9642,-5.8271,-5.7694,-5.7598,-5.6516,-5.6083,-5.6035,-5.5506,-5.5001,-5.4592,-5.4351,-5.4087,-5.3822,-5.3822,-5.3341,-5.2692,-5.2379,-5.1778,-5.1105,-5.0792,-5.0696,-5.0696,-5.0696,-5.0696,-5.0624,-5.0311,-4.9878,-4.9373,-4.8772,-4.8291,-4.7882,-4.7569,-4.7497,-4.7497,-4.7497,-4.7497,-4.7233,-4.6391,-4.6078,-4.5525,-4.4371,-4.4213,-4.4034,-4.3192,-4.294,-4.2386,-4.1172,-4.0379,-3.9633,-3.8888,-3.831,-3.7974,-3.7974,-3.7781,-3.7661,-3.7661,-3.7445,-3.7421,-3.7637,-3.7661,-3.7757,-3.7974,-3.7541,-3.7276,-3.718,-3.6747,-3.6651,-3.504,0.0,0.0,-3.9657,-4.2711,-4.5694,-4.8122,-5.0934,-5.3821,-5.6523,-5.926,-6.1527,-6.2657,-6.3672,-6.4429,-6.4508,-6.4272,-6.406,-6.406,-6.2168,-6.0402,-5.9309,-5.7716,-5.7213,-5.8512,-5.8969,-5.9378,-5.9907,-6.0099,-6.0171,-6.0171,-6.0171,-6.0171,-6.0171,-6.0171,-6.0171,-6.0171,-6.0171,-6.0171,-6.0171,-6.0171,-6.0171,-6.0171,-6.0027,-5.9522,-5.8656,-5.7526,-5.6852,-5.6516,-5.5722,-5.5313,-5.5145,-5.476,-5.4423,-5.4183,-5.4183,-5.3942,-5.3606,-5.3606,-5.3173,-5.2572,-5.2187,-5.1706,-5.1201,-5.0816,-5.0696,-5.0696,-5.0696,-5.06,-5.0383,-4.9974,-4.9758,-4.9421,-4.8507,-4.8291,-4.8147,-4.7617,-4.7497,-4.7473,-4.7305,-4.7281,-4.6944,-4.5886,-4.5694,-4.5261,-4.3938,-4.3962,-4.3746,-4.2747,-4.2482,-4.1822,-4.0547,-3.9922,-3.9393,-3.8864,-3.831,-3.7974,-3.7974,-3.7974,-3.7974,-3.7974,-3.7974,-3.7974,-3.7974,-3.7974,-3.7974,-3.7974,-3.7829,-3.7565,-3.7204,-3.7204,-3.7204,0.0,0.0,-3.8905,-4.3084,-4.6559,-4.9734,-5.2884,-5.4856,-5.7163,-6.0896,-6.0968,-6.1065,-6.3231,-6.2854,-6.2329,-6.288,-6.1967,-6.1248,-6.1248,-5.9336,-5.7534,-5.6474,-5.488,-5.4159,0.0,-5.7117,-5.8848,-5.9378,-5.9883,-6.0171,-6.0171,-6.0171,-6.0171,-6.0171,-6.0171,-6.0171,-6.0171,-6.0171,-6.0171,-6.0171,-6.0171,-6.0171,-6.0147,-5.9642,-5.856,-5.7093,-5.7045,-5.6419,-5.5433,-5.5409,-5.5097,-5.464,-5.4616,-5.3991,-5.3125,-5.3125,-5.3101,-5.3101,-5.3101,-5.2403,-5.1537,-5.1513,-5.1153,-5.072,-5.072,-5.0696,-5.0696,-5.0696,-5.0311,-4.9878,-4.9878,-4.9493,-4.8964,-4.8411,-4.8291,-4.8147,-4.7617,-4.7497,-4.7353,-4.6848,-4.6728,-4.6391,-4.5269,-4.5101,-4.4909,-4.4333,-4.3866,-4.3168,-4.2134,-4.1557,-4.1028,-4.0451,-3.9922,-3.9393,-3.8864,-3.831,-3.7974,-3.7974,-3.7974,-3.7974,-3.7974,-3.7974,-3.7974,-3.7974,-3.7974,-3.7974,-3.7974,-3.7469,-3.7204,-3.7204,-3.7204,-3.7204,0.0,0.0,-4.318,-4.7497,-5.0672,-5.3485,-5.6347,-5.767,-5.8579,-5.9488,-5.799,-5.6535,-5.6624,-5.5781,-5.5334,-5.6253,-5.7232,-5.7966,-5.8332,-5.8072,-5.69,-5.4423,-5.4255,0.0,0.0,0.0,0.0,-5.7718,-5.8632,-5.9281,-5.9642,-5.9979,-6.0171,-6.0171,-6.0171,-6.0171,-6.0171,-6.0171,-6.0171,-6.0171,-6.0171,-6.0171,-6.0123,-5.8897,-5.8055,-5.7454,-5.5674,-5.4688,-5.4327,-5.3991,-5.3534,-5.3125,-5.3822,-5.3461,-5.2596,-5.2932,-5.262,-5.2067,-5.2427,-5.2091,-5.1489,-5.1489,-5.1129,-5.0696,-5.0696,-5.0696,-5.0696,-5.0696,-5.0576,-5.0335,-4.9974,-4.9469,-4.894,-4.8411,-4.8026,-4.7714,-4.7545,-4.7497,-4.7449,-4.7281,-4.6944,-4.6487,-4.579,-4.5357,-4.4765,-4.3914,-4.3337,-4.276,-4.2062,-4.1509,-4.098,-4.0451,-4.0234,-3.9777,-3.8888,-3.8647,-3.8383,-3.7998,-3.7974,-3.7974,-3.7974,-3.7974,-3.7974,-3.7974,-3.7974,-3.7805,-3.7469,-3.7637,-3.718,-3.617,-3.6867,-3.6819,-3.9729,-4.3505,-4.7305,-5.1369,-5.4231,-5.654,-5.844,-5.8848,-5.856,-5.7646,-5.5025,-5.2475,-5.1056,-4.9614,-4.906,-5.0311,-5.2139,-5.3918,-5.5409,-5.5746,-5.5217,-5.3534,-5.3437,-5.3053,0.0,0.0,0.0,-5.6612,-5.8079,-5.9041,-5.9378,-5.9883,-6.0171,-6.0171,-6.0171,-6.0171,-6.0171,-6.0171,-6.0171,-6.0171,-6.0171,-5.9979,-5.957,-5.8367,-5.7381,-5.6564,-5.464,-5.3606,-5.3245,-5.2932,-5.2596,-5.2355,-5.3004,-5.274,-5.2043,-5.2379,-5.1946,-5.1297,-5.1826,-5.1658,-5.1201,-5.1201,-5.0984,-5.0696,-5.0696,-5.0696,-5.0696,-5.0696,-5.0551,-5.0311,-4.995,-4.9614,-4.9181,-4.8459,-4.8171,-4.7954,-4.7569,-4.7497,-4.7449,-4.7257,-4.68,-4.6271,-4.5742,-4.5149,-4.4501,-4.3649,-4.3072,-4.2627,-4.2038,-4.1509,-4.1052,-4.0715,-4.0499,-4.0114,-3.9441,-3.9224,-3.8864,-3.831,-3.8286,-3.819,-3.7998,-3.7974,-3.7974,-3.7974,-3.7974,-3.7733,-3.7204,-3.7733,-3.7252,-3.593,-3.6988,-3.6916,-4.3372,-4.7305,-5.1008,-5.4664,-5.7093,-5.8728,-5.9209,-5.844,-5.7141,-5.5385,-5.2067,-4.8796,0.0,0.0,-4.3903,-4.5501,-4.7233,-4.9469,-5.2668,-5.274,-5.2836,0.0,0.0,0.0,0.0,0.0,0.0,-5.6107,-5.8127,-5.9305,-5.9378,-5.9883,-6.0171,-6.0171,-6.0171,-6.0171,-6.0171,-6.0171,-6.0171,-6.0171,-6.0147,-5.9618,-5.8608,-5.8007,-5.6588,-5.4616,-5.3991,-5.3173,-5.2235,-5.2235,-5.2235,-5.2211,-5.2259,-5.1946,-5.1441,-5.1489,-5.1153,-5.0768,-5.1273,-5.1129,-5.0696,-5.0696,-5.0696,-5.0696,-5.0696,-5.0696,-5.0696,-5.0696,-5.0311,-4.9902,-4.9902,-4.9878,-4.9614,-4.8603,-4.8724,-4.8772,-4.7762,-4.7521,-4.7353,-4.6848,-4.6295,-4.5766,-4.5173,-4.4645,-4.4093,-4.3601,-4.3072,-4.2651,-4.2145,-4.1533,-4.1196,-4.122,-4.0739,-4.0427,-4.0403,-3.9922,-3.9369,-3.8839,-3.8791,-3.8527,-3.7998,-3.7974,-3.7974,-3.7974,-3.7974,-3.7733,-3.7204,-3.7733,-3.7445,-3.6435,-3.7469,-3.7372,-4.6944,-5.0864,-5.4592,-5.7141,-5.8199,-5.8536,-5.8271,-5.6756,-5.4423,-5.084,-4.6848,-4.3096,0.0,0.0,0.0,-4.3168,-4.6896,0.0,-5.3245,-5.4544,0.0,-5.4471,0.0,-5.476,-5.4087,-5.5217,0.0,0.0,-5.7309,-5.8151,-5.9329,-5.9883,-6.0171,-6.0171,-6.0171,-6.0171,-6.0171,-6.0171,-6.0171,-6.0171,-5.9762,-5.945,-5.9137,-5.7405,-5.6107,-5.5097,-5.3413,-5.2307,-5.1682,-5.1682,-5.1465,-5.1177,-5.197,-5.173,-5.096,-5.1345,-5.1153,-5.072,-5.0864,-5.0816,-5.0696,-5.0696,-5.0696,-5.0696,-5.0696,-5.0696,-5.0696,-5.0696,-5.06,-5.0503,-5.0503,-5.0191,-4.9806,-4.9517,-4.8964,-4.8411,-4.8147,-4.7786,-4.7473,-4.7329,-4.6559,-4.5766,-4.5173,-4.4645,-4.4093,-4.3601,-4.3072,-4.2771,-4.2627,-4.1749,-4.1341,-4.1725,-4.1293,-4.0812,-4.0427,-3.9922,-3.9369,-3.8839,-3.8431,-3.8142,-3.7998,-3.7974,-3.7974,-3.7974,-3.7974,-3.7733,-3.7204,-3.7733,-3.7445,-3.6411,-3.7084,-3.6819,-5.0576,-5.4087,-5.7141,-5.8584,-5.8608,-5.7814,-5.6107,-5.3534,-5.0215,-4.5742,-4.1822,0.0,0.0,0.0,0.0,0.0,0.0,0.0,-5.1922,-5.3437,-5.452,0.0,-5.6011,0.0,-5.6035,-5.6828,-5.755,0.0,-5.8055,-5.844,-5.9329,-5.9883,-6.0171,-6.0171,-6.0171,-6.0171,-6.0171,-6.0171,-6.0171,-6.0171,-5.9642,-5.9257,-5.8969,-5.7093,-5.5674,-5.4616,-5.298,-5.185,-5.1153,-5.1153,-5.096,-5.0768,-5.1345,-5.1225,-5.0744,-5.1032,-5.096,-5.0696,-5.0696,-5.0696,-5.0696,-5.0696,-5.0696,-5.0696,-5.0696,-5.0696,-5.0696,-5.0696,-5.0696,-5.0696,-5.0696,-5.0479,-5.0119,-4.9638,-4.906,-4.8507,-4.805,-4.7714,-4.7425,-4.7209,-4.6487,-4.5766,-4.5173,-4.4645,-4.4189,-4.3938,-4.3433,-4.3096,-4.3096,-4.1966,-4.1293,-4.1605,-4.1365,-4.1076,-4.0763,-4.0475,-3.997,-3.9224,-3.8864,-3.8479,-3.7998,-3.7974,-3.7974,-3.7974,-3.7974,-3.7733,-3.7204,-3.7733,-3.7445,-3.6411,-3.694,-3.6627,-5.4063,-5.6828,-5.88,-5.9257,-5.8416,-5.6636,-5.3389,-4.9662,-4.5501,-4.0643,0.0,-3.4438,-3.2346,-3.2923,-3.4535,-3.7012,0.0,-4.4635,-5.0046,-5.1441,-5.3173,-5.6612,-5.6804,-5.7045,-5.8031,-5.8127,-5.8512,-5.9426,-5.9498,-5.9498,-5.9498,-5.9931,-6.0171,-6.0171,-6.0171,-6.0171,-6.0171,-6.0171,-6.0147,-6.0075,-5.9546,-5.9017,-5.844,-5.6852,-5.5313,-5.387,-5.2764,-5.173,-5.0816,-5.0744,-5.0696,-5.0696,-5.0696,-5.0696,-5.0696,-5.0696,-5.0696,-5.0696,-5.0696,-5.0696,-5.0696,-5.0696,-5.0696,-5.0696,-5.0696,-5.0696,-5.0696,-5.0696,-5.0696,-5.0696,-5.0696,-5.0696,-5.0455,-4.9421,-4.9133,-4.882,-4.781,-4.7545,-4.7377,-4.692,-4.6343,-4.579,-4.5309,-4.4669,-4.4261,-4.4189,-4.377,-4.3385,-4.3313,-4.2134,-4.1293,-4.1293,-4.122,-4.1148,-4.1076,-4.1076,-4.0643,-3.9561,-3.9513,-3.9056,-3.8022,-3.7974,-3.7974,-3.7974,-3.7974,-3.7757,-3.73,-3.7757,-3.7469,-3.6507,-3.6916,-3.6555,-5.6492,-5.8223,-5.9257,-5.9353,-5.7574,-5.488,-5.1273,-4.6896,0.0,0.0,0.0,-3.1697,-2.9605,-3.0783,0.0,-3.7829,0.0,0.0,0.0,0.0,-5.4808,0.0,0.0,0.0,0.0,0.0,0.0,0.0,-6.0027,-6.0027,-6.0027,-6.0123,-6.0171,-6.0171,-6.0171,-6.0171,-6.0171,-6.0171,-5.9955,-5.9522,-5.8993,-5.8464,-5.7886,-5.6275,-5.5145,-5.4399,-5.2908,-5.1922,-5.1321,-5.0888,-5.0696,-5.0696,-5.0696,-5.0696,-5.0696,-5.0696,-5.0696,-5.0696,-5.0696,-5.0696,-5.0696,-5.0696,-5.0696,-5.0696,-5.0696,-5.0696,-5.0696,-5.0696,-5.0696,-5.0696,-5.0696,-5.0696,-5.0527,-4.9878,-4.9397,-4.8916,-4.8291,-4.781,-4.7473,-4.7377,-4.6583,-4.5886,-4.5814,-4.4933,-4.4117,-4.3721,-4.3216,-4.2735,-4.2303,-4.2014,-4.1846,-4.1846,-4.1437,-4.1004,-4.0571,-4.0523,-4.009,-3.9032,-3.896,-3.8671,-3.8022,-3.7974,-3.7974,-3.7974,-3.7974,-3.7926,-3.7853,-3.7926,-3.7661,-3.706,-3.6699,-3.6218,-5.7237,-5.8776,-5.9738,-5.945,-5.6564,-5.2596,-4.805,0.0,0.0,0.0,0.0,-2.9725,-2.8691,0.0,0.0,0.0,0.0,0.0,0.0,0.0,0.0,0.0,0.0,0.0,0.0,0.0,-6.0171,-6.0171,-6.0171,-6.0171,-6.0171,-6.0171,-6.0171,-6.0171,-6.0171,-6.0171,-6.0171,-6.0171,-5.9907,-5.9378,-5.8848,-5.8175,-5.7357,-5.6011,-5.4952,-5.4135,-5.2836,-5.197,-5.1441,-5.0912,-5.0696,-5.0696,-5.0696,-5.0696,-5.0696,-5.0696,-5.0696,-5.0696,-5.0696,-5.0696,-5.0696,-5.0696,-5.0696,-5.0696,-5.0696,-5.0696,-5.0696,-5.0696,-5.0696,-5.0648,-5.0335,-5.0263,-5.007,-4.9229,-4.8652,-4.8195,-4.793,-4.769,-4.7497,-4.7497,-4.6655,-4.5934,-4.5934,-4.4981,-4.4189,-4.3925,-4.3481,-4.2976,-4.2506,-4.2134,-4.187,-4.1581,-4.1341,-4.098,-4.0451,-4.0403,-3.9946,-3.8888,-3.8815,-3.8575,-3.7998,-3.7974,-3.7974,-3.7974,-3.7974,-3.7974,-3.7974,-3.7974,-3.7565,-3.6771,-3.6531,-3.5978,-5.7478,-5.8969,-5.9859,-5.9209,-5.5458,-5.0551,-4.5213,-3.9898,0.0,0.0,-2.8883,-2.8522,-2.8522,0.0,0.0,0.0,0.0,0.0,0.0,0.0,0.0,0.0,0.0,0.0,0.0,0.0,0.0,-6.0171,-6.0171,-6.0171,-6.0171,-6.0171,-6.0171,-6.0171,-6.0171,-6.0171,-6.0171,-6.0171,-5.9859,-5.9209,-5.88,-5.7983,-5.6828,-5.5842,-5.488,-5.3918,-5.2788,-5.2043,-5.161,-5.096,-5.0696,-5.0696,-5.0696,-5.0696,-5.0696,-5.0696,-5.0696,-5.0696,-5.0696,-5.0696,-5.0696,-5.0696,-5.0696,-5.0696,-5.0696,-5.0696,-5.0696,-5.0696,-5.0624,-5.0431,-4.9974,-4.9782,-4.9469,-4.8507,-4.7882,-4.7497,-4.7497,-4.7497,-4.7497,-4.7497,-4.6655,-4.5934,-4.5934,-4.4981,-4.4285,-4.4285,-4.3866,-4.3337,-4.2891,-4.2362,-4.1774,-4.1244,-4.1172,-4.098,-4.0451,-4.0403,-3.9946,-3.8888,-3.8815,-3.8575,-3.7998,-3.7974,-3.7974,-3.7974,-3.7974,-3.7974,-3.7974,-3.7974,-3.7445,-3.6411,-3.6411,-3.5833,-5.7814,-5.8993,-5.9209,-5.8199,-5.4375,-4.9445,-4.413,0.0,0.0,0.0,-2.8883,-2.8522,-2.8522,-2.8667,0.0,0.0,0.0,0.0,0.0,0.0,0.0,0.0,0.0,0.0,0.0,0.0,-6.0171,-6.0171,-6.0171,-6.0171,-6.0171,-6.0171,-6.0171,-6.0171,-6.0171,-6.0171,-6.0171,-6.0171,-5.9666,-5.8656,-5.8608,-5.779,-5.6275,-5.5674,-5.5073,-5.4447,-5.2932,-5.2259,-5.2139,-5.1129,-5.0696,-5.0696,-5.0696,-5.0696,-5.0696,-5.0696,-5.0696,-5.0696,-5.0696,-5.0696,-5.0696,-5.0696,-5.0696,-5.0696,-5.0696,-5.0696,-5.0696,-5.0696,-5.0335,-4.9926,-4.9878,-4.9517,-4.9012,-4.8435,-4.7882,-4.7497,-4.7497,-4.7497,-4.7497,-4.7497,-4.6655,-4.5934,-4.5934,-4.4981,-4.4285,-4.4285,-4.3866,-4.3337,-4.2891,-4.2362,-4.1774,-4.1244,-4.1172,-4.098,-4.0451,-4.0403,-3.9946,-3.8888,-3.8815,-3.8575,-3.7998,-3.7974,-3.7974,-3.7974,-3.7974,-3.7974,-3.7974,-3.7974,-3.7445,-3.6411,-3.6411,-3.5833,-5.5217,-5.7526,-5.8584,-5.7213,-5.3029,-4.7954,-4.2952,0.0,0.0,-2.946,-2.8667,-2.8522,-2.8522,-2.8522,-2.8931,0.0,0.0,0.0,0.0,0.0,0.0,0.0,0.0,0.0,0.0,0.0,-6.0171,-6.0171,-6.0171,-6.0171,-6.0171,-6.0171,-6.0171,-6.0171,-6.0171,-6.0027,-5.969,-5.969,-5.9161,-5.8127,-5.8127,-5.7285,-5.5722,-5.5506,-5.476,-5.363,-5.2692,-5.2091,-5.1754,-5.1008,-5.0696,-5.0696,-5.0696,-5.0696,-5.0696,-5.0696,-5.0696,-5.0696,-5.0696,-5.0696,-5.0696,-5.0696,-5.0696,-5.0696,-5.0696,-5.0455,-5.0191,-5.0191,-4.9806,-4.9325,-4.8988,-4.8531,-4.8074,-4.7858,-4.7666,-4.7497,-4.7497,-4.7497,-4.7497,-4.7497,-4.6896,-4.6295,-4.5982,-4.5309,-4.4645,-4.4333,-4.3601,-4.2976,-4.2843,-4.2073,-4.1413,-4.1196,-4.1172,-4.098,-4.0451,-4.0403,-3.9946,-3.8888,-3.8815,-3.8575,-3.7998,-3.7974,-3.7974,-3.7974,-3.7974,-3.7974,-3.7974,-3.7974,-3.7589,-3.6867,-3.6555,-3.6002,-5.1994,-5.5265,-5.7309,-5.5866,-5.1513,-4.6415,0.0,0.0,0.0,-2.9027,-2.8522,-2.8522,-2.8522,-2.8522,-2.8522,0.0,0.0,0.0,0.0,0.0,0.0,0.0,0.0,0.0,0.0,-5.8921,-6.0171,-6.0171,-6.0171,-6.0171,-6.0171,-6.0027,-6.0027,-6.0171,-6.0027,-5.9762,-5.9378,-5.9233,-5.8608,-5.7574,-5.7574,-5.6732,-5.5169,-5.5001,-5.4255,-5.3029,-5.2355,-5.1826,-5.1441,-5.0912,-5.0696,-5.0696,-5.0696,-5.0696,-5.0696,-5.0696,-5.0696,-5.0696,-5.0696,-5.0696,-5.0696,-5.0696,-5.06,-5.0455,-5.0455,-5.0191,-4.983,-4.9686,-4.9253,-4.8724,-4.8195,-4.7786,-4.7497,-4.7497,-4.7497,-4.7497,-4.7497,-4.7497,-4.7497,-4.7497,-4.7064,-4.6535,-4.6006,-4.5477,-4.4885,-4.4357,-4.3577,-4.2988,-4.2843,-4.1966,-4.1365,-4.1196,-4.1172,-4.1028,-4.0667,-4.0475,-4.0018,-3.9104,-3.8912,-3.8575,-3.7998,-3.7974,-3.7974,-3.7974,-3.7974,-3.7974,-3.7974,-3.7974,-3.7709,-3.718,-3.6651,-3.6026,-4.8555,-5.2211,-5.5169,-5.4111,-4.9854,-4.4972,0.0,0.0,-3.1115,-2.8955,-2.8522,-2.8522,-2.8522,-2.8522,-2.8522,-2.8522,0.0,0.0,0.0,0.0,0.0,0.0,0.0,0.0,0.0,-5.7405,-6.0171,-6.0171,-6.0171,-6.0171,-6.0171,-5.969,-5.9642,-6.0147,-5.9666,-5.9402,-5.9378,-5.8872,-5.8079,-5.7021,-5.7021,-5.6179,-5.4592,-5.4063,-5.3558,-5.3004,-5.1946,-5.1489,-5.1441,-5.0912,-5.0696,-5.0696,-5.0696,-5.0696,-5.0696,-5.0696,-5.0696,-5.0696,-5.0696,-5.0696,-5.0696,-5.0696,-5.0335,-4.9948,-4.9948,-4.9878,-4.9758,-4.9229,-4.87,-4.8171,-4.7642,-4.7497,-4.7497,-4.7497,-4.7497,-4.7497,-4.7497,-4.7497,-4.7497,-4.7497,-4.7064,-4.6535,-4.6006,-4.5477,-4.4885,-4.4357,-4.3866,-4.3313,-4.2891,-4.2362,-4.1774,-4.1244,-4.1172,-4.1172,-4.1172,-4.0691,-4.0162,-3.9633,-3.9104,-3.8575,-3.7998,-3.7974,-3.7974,-3.7974,-3.7974,-3.7974,-3.7974,-3.7974,-3.7709,-3.718,-3.6651,-3.5833,-4.2279,-4.49,-4.6511,-4.5453,-4.2832,-3.9705,-3.6723,0.0,-3.0182,-2.8787,-2.8522,-2.8522,-2.8522,-2.8522,-2.8859,-2.9941,0.0,0.0,0.0,0.0,0.0,0.0,0.0,0.0,0.0,0.0,-6.0171,-6.0171,-5.9834,-5.9642,-5.9642,-5.9137,-5.9089,-5.9618,-5.9113,-5.868,-5.8319,-5.8151,-5.7718,-5.7021,-5.666,-5.6011,-5.5121,-5.4592,-5.3678,-5.2499,-5.2187,-5.161,-5.0936,-5.0768,-5.0696,-5.0696,-5.0696,-5.0696,-5.0696,-5.0696,-5.0696,-5.0696,-5.0696,-5.0455,-5.0143,-5.0143,-4.9758,-4.9253,-4.8892,-4.8796,-4.8676,-4.8147,-4.7882,-4.7714,-4.7545,-4.7497,-4.7497,-4.7497,-4.7497,-4.7497,-4.7497,-4.7497,-4.7497,-4.7497,-4.7064,-4.6535,-4.6006,-4.5477,-4.4765,-4.3914,-4.3337,-4.2867,-4.2338,-4.1749,-4.1365,-4.1196,-4.1172,-4.1172,-4.1172,-4.1028,-4.0715,-4.0186,-3.9657,-3.9104,-3.8575,-3.819,-3.7974,-3.7974,-3.7974,-3.7974,-3.7974,-3.7974,-3.7709,-3.718,-3.7012,-3.6386,0.0,-4.0042,-4.1677,-4.0812,-3.8815,0.0,0.0,0.0,-2.9532,-2.8691,-2.8522,-2.8522,-2.8522,-2.8522,-2.8835,0.0,0.0,0.0,0.0,0.0,0.0,0.0,0.0,0.0,0.0,-5.9353,-6.0171,-6.0171,-5.969,-5.9378,-5.9378,-5.8704,-5.8367,-5.8488,-5.8367,-5.8055,-5.7526,-5.7309,-5.6852,-5.6107,-5.577,-5.5241,-5.4496,-5.3966,-5.3101,-5.197,-5.1778,-5.1321,0.0,-5.0696,-5.0696,-5.0696,-5.0696,-5.0696,-5.0696,-5.0696,-5.0696,-5.0672,-5.0455,-5.0167,-4.983,-4.9638,-4.9205,-4.8676,-4.8147,-4.8002,-4.793,-4.7593,-4.7497,-4.7497,-4.7497,-4.7497,-4.7497,-4.7497,-4.7497,-4.7497,-4.7497,-4.7497,-4.7497,-4.7497,-4.7064,-4.6535,-4.6006,-4.5477,-4.4765,-4.3962,-4.3216,-4.2699,-4.2362,-4.1629,-4.1172,-4.1172,-4.1172,-4.1172,-4.1172,-4.1172,-4.0956,-4.0427,-4.009,-3.9657,-3.9128,-3.8599,-3.831,-3.831,-3.8094,-3.7974,-3.7974,-3.7974,-3.7709,-3.7204,-3.7204,-3.6627,0.0,0.0,0.0,0.0,0.0,0.0,0.0,0.0,0.0,-2.8619,-2.8522,-2.8522,-2.857,-2.8546,0.0,0.0,0.0,0.0,0.0,0.0,0.0,0.0,0.0,0.0,-5.4736,-5.8079,-6.0147,-6.0123,-5.9642,-5.9305,-5.9281,-5.8271,-5.7478,-5.6973,-5.7357,-5.7357,-5.69,-5.6419,-5.565,-5.4616,-5.4568,-5.4039,-5.3053,-5.2524,-5.1994,-5.1465,-5.096,-5.0744,-5.0696,-5.0696,-5.0696,-5.0696,-5.0696,-5.0696,-5.0696,-5.0648,-5.0672,-5.0624,-5.0022,-4.9806,-4.971,-4.9157,-4.8628,-4.8147,-4.7642,-4.7497,-4.7497,-4.7497,-4.7497,-4.7497,-4.7497,-4.7497,-4.7497,-4.7497,-4.7497,-4.7497,-4.7497,-4.7497,-4.7497,-4.7497,-4.704,-4.6487,-4.6006,-4.5453,-4.4837,-4.4309,-4.3457,-4.2867,-4.2819,-4.187,-4.1244,-4.1244,-4.1196,-4.1172,-4.1172,-4.1172,-4.098,-4.0475,-4.0427,-4.0186,-3.9681,-3.9128,-3.8815,-3.8815,-3.8262,-3.7974,-3.7974,-3.7974,-3.7733,-3.7252,-3.7252,-3.6699,-2.9725,0.0,-3.1264,-3.1144,0.0,0.0,0.0,0.0,0.0,0.0,0.0,0.0,0.0,0.0,0.0,0.0,0.0,0.0,0.0,0.0,0.0,0.0,-5.5554,-5.767,-5.7117,-5.8945,-6.0003,-5.9594,-5.9089,-5.8608,-5.8199,-5.7189,-5.654,-5.6419,-5.5722,-5.5482,-5.577,-5.565,-5.5265,-5.4592,-5.4207,-5.3678,-5.3053,-5.2524,-5.1994,-5.1489,-5.1369,-5.1081,-5.0696,-5.0696,-5.0696,-5.0696,-5.0696,-5.0696,-5.0648,-5.0215,-5.0335,-5.0551,-4.9589,-4.9277,-4.9109,-4.8171,-4.7786,-4.7666,-4.7545,-4.7497,-4.7497,-4.7497,-4.7497,-4.7497,-4.7497,-4.7497,-4.7497,-4.7497,-4.7497,-4.7497,-4.7497,-4.7497,-4.7497,-4.7497,-4.6752,-4.6078,-4.5958,-4.5077,-4.4285,-4.3794,-4.3505,-4.3192,-4.2867,-4.2182,-4.1774,-4.1774,-4.1437,-4.1172,-4.1172,-4.1172,-4.1124,-4.1004,-4.0619,-4.0331,-4.021,-3.932,-3.8815,-3.8815,-3.8262,-3.7974,-3.7974,-3.7974,-3.7926,-3.7781,-3.7781,-3.7445,-2.8018,-2.8179,-2.8522,-2.8522,-2.8522,-2.8522,0.0,0.0,0.0,0.0,0.0,0.0,0.0,0.0,0.0,0.0,0.0,0.0,0.0,0.0,0.0,0.0,-5.6756,-5.8464,-5.8848,-5.9666,-5.9955,-5.9426,-5.8897,-5.8367,-5.7838,-5.6804,-5.6107,-5.5866,-5.4808,-5.4375,-5.4664,-5.4447,-5.4063,-5.3534,-5.3245,-5.2836,-5.2331,-5.2043,-5.1634,-5.1129,-5.1129,-5.096,-5.0672,-5.0431,-5.0479,-5.0672,-5.0431,-5.0311,-5.0287,-4.9974,-4.9902,-4.983,-4.9012,-4.8555,-4.8267,-4.769,-4.7497,-4.7497,-4.7497,-4.7497,-4.7497,-4.7497,-4.7497,-4.7497,-4.7497,-4.7497,-4.7497,-4.7497,-4.7497,-4.7497,-4.7497,-4.7497,-4.7497,-4.7497,-4.6655,-4.5934,-4.5934,-4.4981,-4.4189,-4.3938,-4.3673,-4.3409,-4.3144,-4.2663,-4.2289,-4.2049,-4.1725,-4.1437,-4.1196,-4.1172,-4.1172,-4.1172,-4.0908,-4.0763,-4.0763,-3.997,-3.932,-3.8815,-3.8262,-3.7974,-3.7974,-3.7974,-3.7974,-3.7974,-3.7974,-3.7685,-2.7481,-2.8022,-2.8675,-2.8387,-2.8299,-2.8339,0.0,0.0,0.0,0.0,0.0,0.0,0.0,0.0,0.0,0.0,0.0,0.0,0.0,0.0,0.0,0.0,-5.6684,0.0,-5.9546,-5.9907,-5.981,-5.9185,-5.8656,-5.8127,-5.7598,-5.6564,-5.5722,-5.5169,-5.4135,-5.3558,-5.3461,-5.3125,-5.2692,-5.2163,-5.2163,-5.1874,-5.1369,-5.1369,-5.1129,-5.0696,-5.0696,-5.0696,-5.0648,-5.0095,-5.0143,-5.0527,-4.9974,-4.9758,-4.9803,-4.9662,-4.9397,-4.8988,-4.8483,-4.7954,-4.7497,-4.7497,-4.7497,-4.7497,-4.7497,-4.7497,-4.7497,-4.7497,-4.7497,-4.7497,-4.7497,-4.7497,-4.7497,-4.7497,-4.7497,-4.7497,-4.7497,-4.7497,-4.7473,-4.7401,-4.6655,-4.6006,-4.5838,-4.5005,-4.4381,-4.4309,-4.3877,-4.3649,-4.3649,-4.3192,-4.2711,-4.2254,-4.2134,-4.187,-4.1341,-4.1293,-4.1268,-4.1196,-4.1172,-4.1148,-4.1076,-4.0643,-3.9898,-3.8839,-3.8359,-3.807,-3.7974,-3.7974,-3.7974,-3.7974,-3.7974,-3.7733,-2.7649,-2.8756,-2.9463,-2.7825,-2.7389,-2.7592,0.0,0.0,0.0,0.0,0.0,0.0,0.0,0.0,0.0,0.0,0.0,0.0,0.0,0.0,-5.3149,-5.5794,0.0,-5.9113,-5.7646,-5.8704,-5.9113,-5.8127,-5.7574,-5.7021,-5.6492,-5.5458,-5.4616,-5.4087,-5.3053,-5.2307,-5.185,-5.2211,-5.2139,-5.161,-5.161,-5.1345,-5.0816,-5.0816,-5.0792,-5.0696,-5.0696,-5.0696,-5.0648,-5.0095,-4.9926,-4.995,-4.9397,-4.9205,-4.9133,-4.87,-4.8772,-4.8988,-4.8483,-4.7954,-4.7497,-4.7497,-4.7497,-4.7497,-4.7497,-4.7497,-4.7497,-4.7497,-4.7497,-4.7497,-4.7497,-4.7497,-4.7497,-4.7497,-4.7497,-4.7497,-4.7497,-4.7497,-4.7377,-4.692,-4.6704,-4.6319,-4.5342,-4.5053,-4.4789,-4.4357,-4.4213,-4.4165,-4.4165,-4.3746,-4.3361,-4.3289,-4.2904,-4.2482,-4.1894,-4.1846,-4.1653,-4.122,-4.1172,-4.098,-4.0547,-4.0427,-3.9898,-3.8839,-3.8743,-3.8455,-3.7974,-3.7974,-3.7974,-3.7974,-3.7974,-3.7926,-2.6103,-2.6872,-2.758,-2.6669,-2.7833,-2.9093,0.0,0.0,0.0,0.0,0.0,0.0,0.0,0.0,0.0,0.0,0.0,-4.668,-5.0239,-5.2307,-5.4255,-5.6395,-5.7983,-5.8728,-5.8343,-5.8969,-5.8824,-5.7478,-5.69,-5.6347,-5.5818,-5.4496,-5.3774,-5.3822,-5.2548,-5.173,-5.1489,-5.1441,-5.1297,-5.1056,-5.1056,-5.0936,-5.0696,-5.0696,-5.0696,-5.0696,-5.0696,-5.0527,-5.0215,-4.9662,-4.9445,-4.9373,-4.8868,-4.8652,-4.8579,-4.805,-4.8002,-4.8195,-4.7954,-4.7714,-4.7497,-4.7497,-4.7497,-4.7497,-4.7497,-4.7497,-4.7497,-4.7497,-4.7497,-4.7497,-4.7497,-4.7497,-4.7497,-4.7497,-4.7497,-4.7497,-4.7497,-4.7497,-4.7425,-4.7185,-4.692,-4.6559,-4.6078,-4.5742,-4.5414,-4.5173,-4.4885,-4.4717,-4.4717,-4.4237,-4.3842,-4.3553,-4.3313,-4.2832,-4.2038,-4.1966,-4.1749,-4.122,-4.1172,-4.1076,-4.0836,-4.0547,-4.0162,-3.9681,-3.9393,-3.8984,-3.8431,-3.8431,-3.8286,-3.7974,-3.7974,-3.7974,-2.4784,-2.5402,-2.6044,-2.5454,0.0,-2.9953,-2.9635,0.0,0.0,0.0,0.0,0.0,0.0,0.0,0.0,0.0,-4.7858,-5.0527,-5.2499,-5.4039,-5.5602,-5.7357,-5.7935,-5.8392,-5.8969,-5.8897,-5.8223,-5.6756,-5.6035,-5.5433,-5.488,-5.3606,-5.3004,-5.3269,-5.2115,-5.1441,-5.1297,-5.0912,-5.0696,-5.0696,-5.0576,-5.0576,-5.0696,-5.0576,-5.0576,-5.0696,-5.0576,-5.0263,-4.983,-4.9157,-4.8892,-4.8844,-4.8315,-4.8098,-4.805,-4.7642,-4.7497,-4.7497,-4.7497,-4.7497,-4.7497,-4.7497,-4.7497,-4.7497,-4.7497,-4.7497,-4.7497,-4.7497,-4.7497,-4.7497,-4.7497,-4.7497,-4.7497,-4.7497,-4.7497,-4.7497,-4.7497,-4.7497,-4.7473,-4.7353,-4.7088,-4.6824,-4.6583,-4.6295,-4.6054,-4.5934,-4.5414,-4.5077,-4.5077,-4.4621,-4.4117,-4.3746,-4.3697,-4.3289,-4.2254,-4.2038,-4.1749,-4.122,-4.1172,-4.1172,-4.1172,-4.0787,-4.0523,-4.0403,-3.9994,-3.9537,-3.9008,-3.9008,-3.8791,-3.8359,-3.8359,-3.8286,-2.4962,-2.6148,-2.6757,-2.4491,0.0,0.0,-3.1433,-3.263,0.0,0.0,0.0,0.0,0.0,0.0,0.0,0.0,-4.9349,-5.3125,-5.6179,-5.7574,-5.8488,-5.9137,-5.9257,-5.8921,-5.8007,-5.7478,-5.6732,-5.5602,-5.4568,-5.3774,-5.3269,-5.2668,-5.2139,-5.1682,-5.1562,-5.1249,-5.0768,-5.072,-5.0696,-5.0696,-5.0191,-5.0191,-5.0696,-5.0167,-5.0215,-5.0672,-5.0143,-4.9902,-4.9782,-4.8772,-4.8339,-4.8291,-4.7762,-4.7569,-4.7545,-4.7521,-4.7497,-4.7497,-4.7497,-4.7497,-4.7497,-4.7497,-4.7497,-4.7497,-4.7497,-4.7497,-4.7497,-4.7497,-4.7497,-4.7497,-4.7497,-4.7497,-4.7497,-4.7497,-4.7497,-4.7497,-4.7497,-4.7497,-4.7353,-4.6872,-4.7136,-4.7136,-4.615,-4.6367,-4.6487,-4.6006,-4.5414,-4.5077,-4.5077,-4.4621,-4.4261,-4.4237,-4.4213,-4.3866,-4.2867,-4.2313,-4.1749,-4.122,-4.1172,-4.1172,-4.1172,-4.1148,-4.0908,-4.0403,-4.0355,-4.009,-3.9561,-3.9561,-3.9537,-3.9489,-3.9489,-3.9224,-2.3803,-2.5098,-2.6062,-2.4519,0.0,0.0,0.0,0.0,0.0,0.0,0.0,0.0,0.0,0.0,0.0,-4.8435,-5.2187,-5.5385,-5.7261,-5.8127,-5.856,-5.8416,-5.8127,-5.7622,-5.69,-5.666,-5.5938,-5.452,-5.375,-5.3125,-5.2596,-5.1778,-5.1345,-5.1489,-5.1177,-5.0912,-5.0696,-5.0359,-5.0191,-5.0191,-4.9974,-4.9806,-4.9686,-4.9469,-4.9493,-4.9686,-4.9469,-4.9181,-4.8844,-4.8459,-4.8098,-4.7786,-4.7569,-4.7497,-4.7497,-4.7497,-4.7497,-4.7497,-4.7497,-4.7497,-4.7497,-4.7497,-4.7497,-4.7497,-4.7497,-4.7497,-4.7497,-4.7497,-4.7497,-4.7497,-4.7497,-4.7497,-4.7497,-4.7497,-4.7497,-4.7497,-4.7497,-4.7497,-4.7449,-4.7233,-4.7377,-4.7377,-4.6968,-4.7064,-4.7136,-4.6944,-4.6175,-4.5621,-4.5621,-4.4813,-4.4285,-4.4285,-4.3973,-4.3673,-4.3265,-4.276,-4.2289,-4.1701,-4.1365,-4.1172,-4.1172,-4.1172,-4.1076,-4.0884,-4.0884,-4.0475,-3.9609,-3.9946,-3.9753,-3.9128,-3.9465,-3.9489,-2.3101,-2.3998,-2.4836,0.0,0.0,0.0,0.0,0.0,0.0,0.0,0.0,0.0,0.0,0.0,0.0,0.0,-5.3654,-5.6347,-5.7405,-5.8007,-5.8031,-5.7141,-5.6732,-5.6227,-5.553,-5.5337,-5.4712,-5.3437,-5.286,-5.2331,-5.1802,-5.1105,-5.0864,-5.1225,-5.072,-5.0431,-5.0431,-4.9902,-4.9541,-4.9373,-4.9205,-4.9109,-4.906,-4.8892,-4.8916,-4.906,-4.8892,-4.8628,-4.8267,-4.8098,-4.7738,-4.7257,-4.7257,-4.7136,-4.7016,-4.7185,-4.7136,-4.7016,-4.7185,-4.7136,-4.7016,-4.7209,-4.7257,-4.7257,-4.7257,-4.7377,-4.7497,-4.7497,-4.7497,-4.7497,-4.7497,-4.7497,-4.7497,-4.7497,-4.7497,-4.7497,-4.7497,-4.7497,-4.7497,-4.7497,-4.7497,-4.7497,-4.7497,-4.7353,-4.7257,-4.7257,-4.6343,-4.5669,-4.5669,-4.4837,-4.4285,-4.4285,-4.3949,-4.3697,-4.3529,-4.3192,-4.2711,-4.2014,-4.1798,-4.1533,-4.1196,-4.1172,-4.1172,-4.1172,-4.1172,-4.0836,-4.0114,-4.0475,-4.0282,-3.9585,-3.9946,-4.0018,-2.3101,-2.3101,0.0,0.0,0.0,0.0,0.0,0.0,0.0,0.0,0.0,-4.2022,-4.4634,-4.5101,0.0,-5.0095,-5.3341,-5.577,-5.6852,-5.7454,-5.7189,-5.5578,-5.5361,-5.4952,-5.3918,-5.3365,-5.2836,-5.2307,-5.1778,-5.1249,-5.072,-5.0696,-5.0696,-5.0696,-5.0143,-4.9854,-4.9854,-4.9325,-4.8796,-4.8267,-4.7738,-4.805,-4.9036,-4.8507,-4.8555,-4.9036,-4.8507,-4.8291,-4.8243,-4.7714,-4.7185,-4.6704,-4.6704,-4.6391,-4.5982,-4.6511,-4.6367,-4.6006,-4.6535,-4.6367,-4.6006,-4.6535,-4.6704,-4.6704,-4.6704,-4.7064,-4.7497,-4.7497,-4.7497,-4.7497,-4.7497,-4.7497,-4.7497,-4.7497,-4.7497,-4.7497,-4.7497,-4.7497,-4.7497,-4.7497,-4.7497,-4.7497,-4.7497,-4.7064,-4.6704,-4.6704,-4.5814,-4.5077,-4.5053,-4.4621,-4.4285,-4.4285,-4.4285,-4.4069,-4.3553,-4.3529,-4.3072,-4.2062,-4.253,-4.2338,-4.122,-4.1196,-4.1196,-4.1172,-4.1172,-4.1172,-4.1172,-4.1172,-4.1172,-4.1172,-4.1172,-4.0908,-2.3101,0.0,0.0,0.0,0.0,0.0,0.0,0.0,0.0,0.0,0.0,-4.2861,-4.4743,-4.6052,-4.756,-4.9787,-5.2764,-5.4952,-5.5289,-5.5458,-5.5121,-5.3894,-5.3437,-5.3077,-5.2764,-5.2596,-5.2283,-5.1778,-5.1586,-5.1081,-5.0167,-5.0119,-4.995,-4.9565,-4.9397,-4.9133,-4.8772,-4.8243,-4.7714,-4.7185,-4.6631,-4.6944,-4.7954,-4.7425,-4.7473,-4.7954,-4.781,-4.7738,-4.769,-4.7161,-4.6631,-4.615,-4.615,-4.6054,-4.5934,-4.6102,-4.6054,-4.5958,-4.6102,-4.6054,-4.5958,-4.6102,-4.615,-4.6223,-4.6607,-4.6824,-4.7016,-4.7401,-4.7497,-4.7497,-4.7497,-4.7497,-4.7497,-4.7497,-4.7497,-4.7497,-4.7497,-4.7497,-4.7497,-4.7497,-4.7497,-4.7497,-4.7497,-4.7064,-4.6704,-4.6704,-4.5814,-4.4933,-4.4573,-4.4381,-4.4285,-4.4285,-4.4285,-4.4213,-4.4045,-4.4045,-4.3794,-4.3096,-4.2856,-4.2338,-4.122,-4.1533,-4.1557,-4.1196,-4.1172,-4.1004,-4.0643,-4.1004,-4.1004,-4.0643,-4.1004,-4.11,-2.3101,0.0,0.0,0.0,0.0,0.0,0.0,0.0,0.0,0.0,0.0,-4.2563,-4.5225,-4.6368,-4.7559,-4.9533,-5.1686,-5.3286,-5.3915,-5.3437,-5.2906,-5.2498,-5.2163,-5.1874,-5.1682,-5.1441,-5.1177,-5.0864,-5.0648,-5.0239,-4.9589,-4.9541,-4.9397,-4.9084,-4.8676,-4.8291,-4.7978,-4.7233,-4.6704,-4.6391,-4.5862,-4.6054,-4.6872,-4.6535,-4.6583,-4.6872,-4.6872,-4.6872,-4.6824,-4.6295,-4.591,-4.5597,-4.5597,-4.5414,-4.5269,-4.5525,-4.5477,-4.5269,-4.5549,-4.5414,-4.5269,-4.5486,-4.5597,-4.5718,-4.6247,-4.6535,-4.6824,-4.7353,-4.7497,-4.7497,-4.7497,-4.7497,-4.7497,-4.7497,-4.7497,-4.7497,-4.7497,-4.7497,-4.7497,-4.7497,-4.7497,-4.7497,-4.7497,-4.6896,-4.6391,-4.6391,-4.5501,-4.4645,-4.4333,-4.4285,-4.4285,-4.4285,-4.4285,-4.4285,-4.4285,-4.4285,-4.3983,-4.337,-4.3251,-4.2568,-4.1184,-4.1489,-4.1509,-4.1196,-4.1172,-4.1028,-4.0715,-4.1028,-4.1028,-4.0715,-4.1028,-4.1172,0.0,0.0,0.0,0.0,0.0,0.0,0.0,0.0,0.0,0.0,0.0,-4.171,-4.5578,-4.5973,-4.6598,-4.9216,-5.0093,-5.0943,-5.2538,-5.1522,-5.0774,-5.1393,-5.1417,-5.1201,-5.0672,-5.0167,-4.9924,-4.9806,-4.9301,-4.8988,-4.894,-4.8892,-4.8844,-4.8796,-4.781,-4.7257,-4.7209,-4.6199,-4.5694,-4.5621,-4.514,-4.5164,-4.5645,-4.579,-4.5886,-4.5934,-4.5934,-4.591,-4.5814,-4.5269,-4.5053,-4.5005,-4.5005,-4.4717,-4.4333,-4.4813,-4.4693,-4.4357,-4.4837,-4.4693,-4.4357,-4.4837,-4.5005,-4.5101,-4.563,-4.6199,-4.668,-4.7257,-4.7425,-4.7449,-4.7497,-4.7497,-4.7497,-4.7497,-4.7497,-4.7497,-4.7497,-4.7497,-4.7497,-4.7497,-4.7497,-4.7497,-4.7497,-4.659,-4.5894,-4.5734,-4.487,-4.4223,-4.4223,-4.4223,-4.4223,-4.4223,-4.4223,-4.4223,-4.4223,-4.4223,-4.3883,-4.3075,-4.3431,-4.2928,-4.1187,-4.1197,-4.1211,-4.1115,-4.1115,-4.1115,-4.1115,-4.1115,-4.1115,-4.1115,-4.1115,-4.1115,0.0,0.0,0.0,0.0,0.0,0.0,0.0,0.0,0.0,0.0,-4.1721,-4.1642,-4.3746,-4.4395,-4.5223,-4.7078,-4.7813,-4.8597,-4.9827,-4.9684,-4.977,-5.0723,-5.0864,-5.0648,-5.0095,-4.9926,-4.9755,-4.9277,-4.8748,-4.8291,-4.7858,-4.7449,-4.7016,-4.6607,-4.5982,-4.539,-4.4957,-4.4371,-4.3842,-4.3433,-4.3337,-4.3337,-4.3481,-4.4732,-4.5525,-4.5934,-4.5934,-4.5694,-4.5221,-4.5125,-4.4837,-4.4453,-4.4453,-4.4381,-4.4309,-4.4405,-4.4381,-4.4309,-4.4429,-4.4381,-4.4309,-4.4429,-4.4453,-4.4549,-4.5077,-4.5317,-4.5669,-4.6607,-4.6896,-4.6968,-4.7401,-4.7497,-4.7497,-4.7497,-4.7497,-4.7497,-4.7497,-4.7497,-4.7497,-4.7497,-4.7497,-4.7497,-4.7497,-4.6705,-4.5752,-4.4664,-4.3939,-4.3514,-4.3514,-4.3514,-4.3514,-4.3514,-4.3514,-4.3514,-4.3514,-4.3514,-4.3467,-4.3224,-4.2941,-4.2612,-4.216,-4.1872,-4.1271,-4.0421,-4.0397,-4.0397,-4.0397,-4.0397,-4.0397,-4.0397,-4.0397,-4.0397,0.0,0.0,0.0,0.0,0.0,0.0,0.0,0.0,0.0,0.0,-4.0943,-4.1542,-4.2476,-4.3346,-4.4127,-4.4805,-4.5126,-4.5793,-4.7112,-4.6279,-4.6417,-4.8633,-4.8708,-4.8685,-4.8882,-4.8824,-4.8507,-4.7978,-4.7449,-4.704,-4.6752,-4.6247,-4.5838,-4.5549,-4.478,-4.4227,-4.3901,-4.3409,-4.3024,-4.2819,-4.2819,-4.2819,-4.2843,-4.3625,-4.4154,-4.4419,-4.4419,-4.4395,-4.4347,-4.4106,-4.413,-4.4237,-4.3794,-4.3746,-4.3914,-4.3673,-4.3577,-4.3577,-4.3577,-4.3746,-4.3938,-4.3938,-4.4069,-4.4381,-4.4909,-4.5077,-4.5245,-4.6102,-4.6511,-4.6776,-4.704,-4.7305,-4.7497,-4.7497,-4.7497,-4.7497,-4.7497,-4.7497,-4.7431,-4.7298,-4.7232,-4.7165,-4.7032,-4.6191,-4.5143,-4.389,-4.3514,-4.3326,-4.3326,-4.3326,-4.3326,-4.3326,-4.3326,-4.3326,-4.3326,-4.3326,-4.3263,-4.3075,-4.2818,-4.2436,-4.2079,-4.1823,-4.1378,-4.0622,-4.0599,-4.0481,-4.0223,-4.0223,-4.0223,-4.0223,-4.0223,-4.0223,0.0,0.0,0.0,0.0,0.0,0.0,0.0,0.0,0.0,-3.8891,-4.0039,-4.1055,-4.1406,-4.2216,-4.2672,-4.2454,-4.2242,-4.2745,-4.4521,-4.2942,-4.2774,-4.6016,-4.5969,-4.5963,-4.6674,-4.6567,-4.6272,-4.5942,-4.5484,-4.5278,-4.5398,-4.4861,-4.4587,-4.4587,-4.3529,-4.2976,-4.2976,-4.2471,-4.2265,-4.2265,-4.2362,-4.241,-4.241,-4.2506,-4.2651,-4.2819,-4.2819,-4.3,-4.3337,-4.2928,-4.3289,-4.3986,-4.3096,-4.3024,-4.3337,-4.2904,-4.2819,-4.2819,-4.2819,-4.3096,-4.3505,-4.3505,-4.3829,-4.4295,-4.4813,-4.4933,-4.4966,-4.5582,-4.6038,-4.6333,-4.6429,-4.6837,-4.7178,-4.7178,-4.7178,-4.7245,-4.7245,-4.7293,-4.7208,-4.687,-4.6779,-4.667,-4.6405,-4.5423,-4.4372,-4.3512,-4.3255,-4.3137,-4.3137,-4.3137,-4.3137,-4.3137,-4.3137,-4.3137,-4.3137,-4.3137,-4.3012,-4.2696,-4.2696,-4.2385,-4.1719,-4.1696,-4.1507,-4.1101,-4.1008,-4.0703,-4.0188,-4.0188,-4.0142,-4.0048,-4.0048,-4.0048,0.0,0.0,0.0,0.0,0.0,0.0,0.0,0.0,0.0,0.0,-3.8918,-4.0078,-4.0137,-4.0002,-3.9944,-4.0282,-3.9715,-4.0073,-4.2269,-4.173,-4.1804,-4.3692,-4.349,-4.301,-4.2391,-4.2351,-4.2412,-4.2583,-4.2385,-4.2587,-4.3398,-4.2808,-4.2399,-4.2399,-4.1365,-4.0812,-4.0812,-4.0282,-4.0018,-4.0042,-4.0499,-4.0715,-4.0739,-4.1172,-4.1894,-4.2819,-4.2819,-4.2867,-4.2916,-4.2843,-4.2916,-4.3012,-4.2867,-4.2867,-4.2916,-4.2843,-4.2819,-4.2819,-4.2819,-4.3096,-4.3505,-4.3505,-4.3682,-4.395,-4.4295,-4.4194,-4.4165,-4.4966,-4.5031,-4.4984,-4.546,-4.5788,-4.5903,-4.5903,-4.5903,-4.6035,-4.6299,-4.6433,-4.6422,-4.5931,-4.5837,-4.5912,-4.5955,-4.4724,-4.3734,-4.3752,-4.3019,-4.2466,-4.2466,-4.2466,-4.2466,-4.2466,-4.2466,-4.2466,-4.2466,-4.2466,-4.2402,-4.2402,-4.2402,-4.2316,-4.2247,-4.2224,-4.1948,-4.1499,-4.1061,-4.0577,-4.0131,-4.0131,-3.9841,-3.9426,-3.9426,-3.9426,0.0,0.0,0.0,0.0,0.0,0.0,0.0,0.0,0.0,-3.5341,-3.6272,-3.7504,-3.8596,-3.8547,-3.8322,-3.8461,-3.8054,-3.8035,-3.9023,-3.8504,-3.8648,-4.0442,-4.0243,-3.9983,-4.0216,-4.0184,-4.0018,-3.9658,-3.9371,-3.9312,-3.9498,-3.8896,-3.8571,-3.8571,-3.8008,-3.7679,-3.7702,-3.7611,-3.7917,-3.8615,-3.885,-3.9448,-4.0403,-4.0643,-4.1148,-4.187,-4.187,-4.2038,-4.2362,-4.2049,-4.2289,-4.2771,-4.2169,-4.2121,-4.2338,-4.199,-4.1753,-4.1635,-4.1635,-4.1994,-4.2413,-4.2759,-4.3092,-4.3422,-4.3855,-4.3826,-4.3624,-4.3986,-4.4183,-4.4404,-4.464,-4.496,-4.5272,-4.5272,-4.5099,-4.494,-4.4789,-4.5183,-4.5423,-4.508,-4.5003,-4.4897,-4.4394,-4.4002,-4.3567,-4.3028,-4.255,-4.2275,-4.2275,-4.2275,-4.2275,-4.2275,-4.2275,-4.2275,-4.2275,-4.2275,-4.2275,-4.2275,-4.2275,-4.2275,-4.2275,-4.2275,-4.2224,-4.1994,-4.1489,-4.0846,-4.0126,-4.0341,-4.0089,-3.9308,-3.9607,-3.9584,0.0,0.0,0.0,0.0,0.0,0.0,0.0,0.0,-3.3218,0.0,-3.3624,-3.4637,-3.6169,-3.6694,-3.6888,-3.6942,-3.6622,-3.6353,-3.6474,-3.5811,-3.5817,-3.7117,-3.6888,-3.6776,-3.7328,-3.7348,-3.7149,-3.6556,-3.6348,-3.626,-3.6277,-3.5865,-3.5586,-3.5586,-3.5309,-3.5129,-3.5071,-3.5266,-3.5839,-3.6827,-3.7302,-3.8199,-3.9522,-4.0146,-4.0619,-4.098,-4.1124,-4.1413,-4.1749,-4.1341,-4.1653,-4.2338,-4.1485,-4.1437,-4.1725,-4.1317,-4.1024,-4.085,-4.085,-4.1221,-4.1781,-4.2161,-4.2587,-4.3056,-4.3497,-4.3451,-4.32,-4.3263,-4.3545,-4.3763,-4.3763,-4.4097,-4.4407,-4.4407,-4.4212,-4.3993,-4.3878,-4.4142,-4.4459,-4.4592,-4.4513,-4.4199,-4.3579,-4.3556,-4.3372,-4.2637,-4.2431,-4.2275,-4.2275,-4.2275,-4.2275,-4.2275,-4.2275,-4.2275,-4.2275,-4.2275,-4.2275,-4.2275,-4.2275,-4.2275,-4.2275,-4.2275,-4.2275,-4.2275,-4.1971,-4.1329,-4.0494,-4.0823,-4.0479,-3.9515,-4.002,-3.9905,0.0,0.0,0.0,0.0,0.0,0.0,0.0,0.0,0.0,-3.0859,-3.1507,-3.2086,-3.2179,-3.3804,-3.5271,-3.5622,-3.5377,-3.5203,-3.559,-3.4966,-3.4365,-3.4108,-3.3677,-3.3132,-3.2458,-3.2403,-3.255,-3.2995,-3.3267,-3.3902,-3.5099,-3.4956,-3.4869,-3.4869,-3.4337,-3.3931,-3.3628,-3.3628,-3.3818,-3.4211,-3.5826,-3.6767,-3.7271,-3.9418,-4.0403,-4.0475,-4.0956,-4.1196,-4.122,-4.1196,-4.122,-4.1268,-4.1196,-4.1196,-4.122,-4.1196,-4.1196,-4.1172,-4.1172,-4.1635,-4.2257,-4.228,-4.2541,-4.2862,-4.324,-4.3075,-4.2886,-4.32,-4.3098,-4.2869,-4.2869,-4.3008,-4.3184,-4.3184,-4.3184,-4.346,-4.4336,-4.3851,-4.3621,-4.507,-4.4497,-4.3992,-4.4451,-4.3739,-4.3119,-4.3051,-4.2637,-4.2275,-4.2275,-4.2275,-4.2275,-4.2275,-4.2275,-4.2275,-4.2275,-4.2275,-4.2275,-4.2275,-4.2275,-4.2275,-4.2275,-4.2275,-4.2275,-4.2275,-4.2316,-4.204,-4.1489,-4.1512,-4.1069,-4.008,-4.0548,-4.0249,0.0,0.0,0.0,0.0,0.0,0.0,0.0,0.0,-2.8707,-2.8846,-2.9651,-3.0482,-3.0759,-3.205,-3.32,-3.3621,-3.3552,-3.339,-3.3322,-3.3021,-3.2696,-3.2337,-3.206,-3.1891,-3.1551,-3.131,-3.1108,-3.11,-3.0963,-3.0997,-3.1171,-3.1113,-3.1094,-3.1094,-3.1112,-3.1265,-3.1496,-3.1496,-3.1957,-3.2851,-3.3452,-3.4649,-3.6465,-3.7277,-3.8265,-3.9258,-3.8663,-3.9473,-4.1172,-4.1172,-4.1172,-4.1172,-4.1172,-4.1081,-4.0908,-4.0908,-4.0619,-4.0328,-4.0328,-4.0446,-4.0809,-4.1466,-4.1728,-4.1963,-4.2739,-4.2759,-4.2529,-4.2633,-4.257,-4.2466,-4.2466,-4.254,-4.2614,-4.2614,-4.2614,-4.2798,-4.3487,-4.3349,-4.3257,-4.3808,-4.413,-4.4176,-4.3716,-4.3579,-4.3326,-4.2706,-4.2454,-4.2275,-4.2275,-4.2275,-4.2275,-4.2275,-4.2275,-4.2275,-4.2275,-4.2275,-4.2275,-4.2275,-4.2275,-4.2275,-4.2275,-4.2275,-4.2275,-4.2275,-4.2275,-4.2086,-4.1581,-4.1903,-4.1535,-4.0548,-4.1076,-4.0755,0.0,0.0,0.0,0.0,0.0,0.0,0.0,0.0,-2.6604,-2.7068,-2.7911,-2.8773,-2.947,-3.0259,-3.1038,-3.1847,-3.2124,-3.2056,-3.1653,-3.1598,-3.1451,-3.1029,-3.0943,-3.0909,-3.0761,-3.0501,-3.0185,-2.9777,-2.9499,-2.9255,-2.8969,-2.908,-2.9098,-2.895,-2.8938,-2.9212,-2.9713,-2.983,-3.0335,-3.1323,-3.1785,-3.2939,-3.4658,-3.5207,-3.6094,-3.7189,-3.655,-3.7805,-4.0359,-4.0124,-4.0253,-4.0645,-4.0813,-4.0711,-4.0537,-4.0537,-4.0246,-3.9896,-3.9896,-3.9954,-4.0197,-4.1033,-4.1344,-4.1523,-4.2378,-4.2466,-4.2275,-4.2275,-4.2275,-4.2275,-4.2275,-4.2275,-4.2275,-4.2275,-4.2275,-4.2431,-4.2775,-4.2844,-4.2982,-4.351,-4.3992,-4.4176,-4.3693,-4.3716,-4.3533,-4.2706,-4.2454,-4.2275,-4.2275,-4.2275,-4.2275,-4.2275,-4.2275,-4.2275,-4.2275,-4.2275,-4.2275,-4.2275,-4.2275,-4.2275,-4.2275,-4.2275,-4.2344,-4.2591,-4.2591,-4.2431,-4.2086,-4.2247,-4.1903,-4.1076,-4.1604,-4.1374,0.0,0.0,0.0,0.0,0.0,0.0,-2.2785,0.0,-2.4514,-2.569,-2.6296,-2.6921,-2.8095,-2.8333,-2.8865,-3.0424,-3.1047,-3.1194,-3.0791,-3.0754,-3.0607,-3.0204,-3.0149,-2.9984,-2.9562,-2.9586,-2.936,-2.8975,-2.8938,-2.8891,-2.8777,-2.9189,-2.9226,-2.8758,-2.8138,-2.8024,-2.837,-2.8661,-2.9021,-2.949,-3.0917,-3.1669,-3.1727,-3.3403,-3.4246,-3.4268,-3.4773,-3.6321,-3.848,-3.7884,-3.8308,-3.9403,-3.9895,-4.0083,-4.0048,-4.0048,-4.0048,-4.0048,-4.0048,-4.0199,-4.0472,-4.0982,-4.1307,-4.1565,-4.2028,-4.2189,-4.2189,-4.2212,-4.2212,-4.2275,-4.2275,-4.2275,-4.2275,-4.2275,-4.2275,-4.2275,-4.2275,-4.2298,-4.2798,-4.429,-4.4176,-4.3992,-4.4497,-4.413,-4.3625,-4.3142,-4.266,-4.2275,-4.2275,-4.2275,-4.2275,-4.2275,-4.2275,-4.2275,-4.2275,-4.2275,-4.2275,-4.2298,-4.2275,-4.2275,-4.2298,-4.2298,-4.2591,-4.3074,-4.3096,-4.3119,-4.3119,-4.2614,-4.2086,-4.1604,-4.2086,-4.2063,-2.1687,0.0,0.0,0.0,0.0,0.0,0.0,0.0,-2.3455,-2.4079,-2.5014,-2.5894,-2.6572,-2.6885,-2.7325,-2.8058,-2.925,-2.9929,-2.9544,-2.9727,-2.9654,-2.8975,-2.8902,-2.8718,-2.8373,-2.8318,-2.8281,-2.8171,-2.8095,-2.8116,-2.8102,-2.8212,-2.8212,-2.8102,-2.7877,-2.7934,-2.8234,-2.8628,-2.889,-2.9002,-2.9751,-3.0412,-3.1053,-3.1558,-3.2235,-3.3038,-3.2319,-3.288,-3.4375,-3.5403,-3.618,-3.6743,-3.6875,-3.6959,-3.7023,-3.7023,-3.6864,-3.6703,-3.6703,-3.6728,-3.686,-3.7372,-3.7567,-3.7761,-3.8595,-3.8851,-3.911,-4.0428,-4.0797,-4.1013,-4.2061,-4.2275,-4.2275,-4.2275,-4.2275,-4.2275,-4.2275,-4.2614,-4.3119,-4.3877,-4.4222,-4.4313,-4.4061,-4.3625,-4.3119,-4.2614,-4.2431,-4.2275,-4.2275,-4.2275,-4.2275,-4.2275,-4.2275,-4.2275,-4.2275,-4.2275,-4.25,-4.2867,-4.2545,-4.25,-4.2867,-4.289,-4.2936,-4.3096,-4.3441,-4.3602,-4.3602,-4.3119,-4.2614,-4.2132,-4.1903,-4.1903,0.0,0.0,0.0,0.0,0.0,0.0,-2.1687,-2.2053,-2.2565,-2.3133,-2.381,-2.4592,-2.5378,-2.5527,-2.5819,-2.6388,-2.727,-2.8024,-2.8407,-2.8663,-2.8704,-2.8187,-2.8132,-2.804,-2.784,-2.7822,-2.7822,-2.7822,-2.7822,-2.7822,-2.7822,-2.7453,-2.7399,-2.7508,-2.7417,-2.7474,-2.7808,-2.8144,-2.8423,-2.8661,-2.9018,-2.9498,-3.0079,-3.0079,-3.0412,-3.1091,-3.0353,-3.047,-3.1169,-3.2133,-3.3423,-3.4745,-3.4935,-3.5173,-3.5329,-3.5329,-3.5374,-3.5376,-3.5376,-3.5376,-3.55,-3.5936,-3.6081,-3.6267,-3.718,-3.747,-3.7749,-3.8997,-3.9322,-3.954,-4.0344,-4.0991,-4.1399,-4.1399,-4.187,-4.2275,-4.2275,-4.2729,-4.3165,-4.3464,-4.4107,-4.4428,-4.39,-4.3579,-4.3211,-4.2729,-4.2477,-4.2344,-4.2614,-4.266,-4.2729,-4.2936,-4.2959,-4.2959,-4.2959,-4.2959,-4.3074,-4.3372,-4.3119,-4.2982,-4.3096,-4.328,-4.3395,-4.3395,-4.3877,-4.413,-4.413,-4.3441,-4.2821,-4.2252,-4.1811,-4.1857,0.0,0.0,0.0,-2.1705,-2.1797,0.0,-2.1723,-2.176,-2.2016,-2.2638,-2.2803,-2.3169,-2.4317,-2.4293,-2.4312,-2.5051,-2.5161,-2.5729,-2.7399,-2.7656,-2.7693,-2.7693,-2.7693,-2.7675,-2.762,-2.7656,-2.7675,-2.762,-2.762,-2.7638,-2.7693,-2.6921,-2.6701,-2.7105,-2.6774,-2.6756,-2.7105,-2.7419,-2.7808,-2.826,-2.8623,-2.8787,-2.892,-2.892,-2.892,-2.892,-2.892,-2.892,-2.892,-2.8975,-3.0544,-3.3018,-3.3466,-3.3877,-3.4227,-3.4268,-3.4554,-3.4882,-3.4922,-3.4943,-3.5004,-3.5435,-3.5578,-3.5722,-3.6603,-3.6889,-3.7098,-3.7657,-3.8001,-3.8067,-3.8067,-3.8993,-3.9997,-3.9997,-4.0926,-4.1806,-4.1806,-4.2256,-4.2597,-4.2529,-4.3565,-4.429,-4.3808,-4.3716,-4.3556,-4.3074,-4.2729,-4.2637,-4.3028,-4.3142,-4.3326,-4.3762,-4.3808,-4.3808,-4.3808,-4.3808,-4.3831,-4.39,-4.3831,-4.3648,-4.328,-4.3671,-4.39,-4.39,-4.4428,-4.4635,-4.452,-4.3556,-4.2867,-4.2408,-4.1903,-4.1903,-2.1797,-2.1925,-2.2089,-2.1778,-2.2419,0.0,-2.1906,-2.2199,-2.2529,-2.2034,-2.2181,-2.2474,-2.2758,-2.2968,-2.3297,-2.3773,-2.3846,-2.4464,-2.6131,-2.6609,-2.6811,-2.6811,-2.6811,-2.6683,-2.6407,-2.6609,-2.6683,-2.6388,-2.637,-2.6517,-2.6793,-2.6407,-2.6279,-2.6683,-2.6628,-2.6628,-2.6701,-2.7068,-2.7307,-2.7416,-2.8134,-2.8483,-2.8517,-2.8517,-2.8517,-2.8517,-2.8517,-2.8517,-2.8535,-2.8847,-2.9513,-3.0347,-3.0423,-3.0705,-3.1138,-3.1458,-3.1628,-3.1759,-3.2079,-3.2192,-3.2211,-3.2286,-3.2305,-3.2399,-3.2908,-3.3303,-3.3965,-3.579,-3.7199,-3.8067,-3.8067,-3.8333,-3.8531,-3.8531,-3.8729,-3.8927,-3.8927,-3.9308,-3.952,-3.9139,-4.1418,-4.3349,-4.3257,-4.3234,-4.3051,-4.2568,-4.3074,-4.3418,-4.3119,-4.3418,-4.3716,-4.3808,-4.3808,-4.3808,-4.3808,-4.3808,-4.3992,-4.4428,-4.4038,-4.3969,-4.429,-4.4405,-4.4451,-4.4451,-4.4956,-4.4796,-4.3969,-4.3372,-4.3028,-4.2936,-4.2431,-4.2247,-2.1851,-2.1833,-2.2034,-2.2254,-2.2455,0.0,0.0,-2.2291,-2.2236,-2.2034,-2.198,-2.2053,-2.2236,-2.2291,-2.2419,-2.2821,-2.2895,-2.3242,-2.4317,-2.4996,-2.5381,-2.5381,-2.5381,-2.5381,-2.5414,-2.5564,-2.5674,-2.5708,-2.5708,-2.5819,-2.5968,-2.5837,-2.5819,-2.5968,-2.5986,-2.6078,-2.6279,-2.6517,-2.6774,-2.7178,-2.7581,-2.7893,-2.8077,-2.8077,-2.8077,-2.8095,-2.8297,-2.8388,-2.8425,-2.8828,-2.9104,-2.9269,-2.9269,-2.9525,-2.991,-3.0112,-3.0442,-3.0809,-3.1011,-3.1212,-3.1377,-3.1377,-3.1377,-3.1451,-3.1873,-3.2423,-3.3163,-3.4508,-3.5412,-3.5937,-3.5937,-3.6479,-3.7018,-3.7018,-3.7534,-3.8067,-3.8067,-3.8253,-3.8403,-3.8175,-3.9448,-4.0629,-4.0629,-4.0956,-4.1109,-4.0585,-4.1108,-4.1544,-4.1544,-4.1762,-4.2274,-4.3376,-4.2764,-4.2901,-4.4432,-4.3645,-4.3579,-4.4956,-4.4497,-4.4313,-4.4589,-4.4841,-4.4979,-4.4979,-4.4979,-4.4727,-4.4199,-4.3464,-4.2959,-4.2706,-4.2454,-4.2275,-2.2144,-2.2034,-2.2254,-2.2675,-2.2529,-2.2346,0.0,0.0,0.0,-2.2126,-2.1906,-2.1797,-2.2108,-2.1906,-2.1797,-2.2108,-2.2163,-2.2291,-2.262,-2.3272,-2.3816,-2.4055,-2.4091,-2.417,-2.45,-2.4537,-2.4702,-2.5157,-2.5069,-2.5051,-2.5176,-2.5194,-2.5231,-2.5304,-2.5378,-2.5617,-2.6002,-2.6021,-2.6388,-2.7068,-2.7141,-2.7343,-2.7711,-2.7711,-2.7711,-2.773,-2.8022,-2.8205,-2.8315,-2.87,-2.892,-2.8975,-2.8975,-2.9177,-2.947,-2.9544,-3.0039,-3.0681,-3.0754,-3.1047,-3.1377,-3.1377,-3.1377,-3.1469,-3.1964,-3.2588,-3.3193,-3.367,-3.3817,-3.3817,-3.3817,-3.4609,-3.548,-3.548,-3.6412,-3.7266,-3.7266,-3.7266,-3.7266,-3.7266,-3.7266,-3.7467,-3.8001,-3.875,-3.9144,-3.8641,-3.9034,-3.9488,-3.984,-3.9964,-4.0703,-4.2473,-4.153,-4.1933,-4.4709,-4.3139,-4.2823,-4.4687,-4.4188,-4.3759,-4.3759,-4.4233,-4.4458,-4.4414,-4.3962,-4.3714,-4.3624,-4.2722,-4.2328,-4.2477,-4.2321,-4.2148,-2.2986,-2.3327,-2.3687,-2.2648,-2.3419,-2.3987,-2.2217,0.0,-2.2565,-2.1906,0.0,-2.1705,-2.1742,0.0,0.0,-2.1742,-2.176,-2.1778,-2.1815,-2.1906,-2.2364,-2.3425,-2.3553,-2.359,-2.3627,-2.3627,-2.3859,-2.4312,-2.395,-2.3914,-2.433,-2.4349,-2.4514,-2.4831,-2.5179,-2.5617,-2.6002,-2.6021,-2.6188,-2.6664,-2.7013,-2.7196,-2.7289,-2.7289,-2.7289,-2.7251,-2.7288,-2.7508,-2.7932,-2.8297,-2.8663,-2.8975,-2.8975,-2.9012,-2.9085,-2.9452,-2.9874,-3.0314,-3.0662,-3.1047,-3.1377,-3.1377,-3.1377,-3.1524,-3.2294,-3.2588,-3.2826,-3.3596,-3.3817,-3.3817,-3.3817,-3.3955,-3.4006,-3.4006,-3.4144,-3.4283,-3.4283,-3.4283,-3.4283,-3.4283,-3.4283,-3.507,-3.7668,-3.8569,-3.8688,-3.8212,-3.8942,-3.9523,-3.9495,-3.9917,-4.0423,-4.0971,-4.0871,-4.1509,-4.3236,-4.189,-4.1488,-4.2738,-4.146,-4.0724,-4.0724,-4.1116,-4.1179,-4.0808,-4.0745,-4.0465,-3.9977,-3.9542,-4.056,-4.2982,-4.2545,-4.1591,-2.3059,-2.3547,-2.4073,-2.3558,-2.373,-2.384,-2.2931,-2.2455,-2.2163,-2.2053,0.0,0.0,0.0,0.0,0.0,0.0,-2.1687,-2.1614,-2.1357,-2.1365,-2.1658,-2.2364,-2.2455,-2.2547,-2.2767,-2.3004,-2.3224,-2.3437,-2.3242,-2.3224,-2.3455,-2.3455,-2.3639,-2.4042,-2.4225,-2.4629,-2.5323,-2.5271,-2.5543,-2.5894,-2.6041,-2.6296,-2.6517,-2.6517,-2.6609,-2.6848,-2.7068,-2.7454,-2.7858,-2.8223,-2.8627,-2.8975,-2.8975,-2.8975,-2.9012,-2.9177,-2.9635,-3.0222,-3.0387,-3.0846,-3.1377,-3.1377,-3.1377,-3.1488,-3.2074,-3.2258,-3.2423,-3.3248,-3.3468,-3.3523,-3.3762,-3.3817,-3.3817,-3.3817,-3.3817,-3.3817,-3.3817,-3.3817,-3.3817,-3.3817,-3.3817,-3.4214,-3.5412,-3.5965,-3.6178,-3.6004,-3.6487,-3.6894,-3.6823,-3.7048,-3.7559,-3.8657,-3.7987,-3.8513,-4.1228,-3.9491,-3.9118,-4.105,-4.0333,-3.9966,-4.0215,-4.0104,-4.0104,-4.0166,-3.9647,-3.9295,-3.904,-3.8585,-3.9024,-4.0214,-3.9758,-3.9347,-2.3455,-2.395,-2.4587,-2.4097,-2.3767,-2.3444,-2.3206,-2.2565,-2.2034,-2.2108,-2.2071,0.0,0.0,0.0,-2.1687,-2.1687,0.0,-2.1595,-2.1328,-2.1273,-2.1346,-2.1504,-2.1632,-2.1797,-2.2089,-2.24,-2.2565,-2.2565,-2.2565,-2.2565,-2.2565,-2.2675,-2.2876,-2.3151,-2.3279,-2.3718,-2.4661,-2.4661,-2.4867,-2.5414,-2.5414,-2.5635,-2.6021,-2.6021,-2.6241,-2.6609,-2.7013,-2.7454,-2.7858,-2.8223,-2.8627,-2.8975,-2.8975,-2.8975,-2.8975,-2.8975,-2.9434,-3.0039,-3.0167,-3.0717,-3.1377,-3.1377,-3.1377,-3.1451,-3.1873,-3.2001,-3.2184,-3.2991,-3.3138,-3.3138,-3.3541,-3.3651,-3.3651,-3.3651,-3.3725,-3.3817,-3.3817,-3.3817,-3.3817,-3.3817,-3.3817,-3.3817,-3.3817,-3.4055,-3.4238,-3.4238,-3.4495,-3.4733,-3.4844,-3.4862,-3.5309,-3.6521,-3.5635,-3.6176,-3.912,-3.7389,-3.6833,-3.8517,-3.8326,-3.8246,-3.8427,-3.8366,-3.8427,-3.8608,-3.7915,-3.7594,-3.7594,-3.7152,-3.6931,-3.6931,-3.7406,-3.7563,-2.4496,-2.5047,-2.5527,-2.395,-2.3499,-2.3297,-2.2492,-2.2602,-2.2638,-2.187,-2.2327,-2.2638,-2.1851,-2.1705,-2.1687,-2.1687,-2.1687,0.0,0.0,-2.1668,-2.1522,-2.1181,-2.1449,-2.1705,-2.1705,-2.1723,-2.1723,-2.1723,-2.1723,-2.1723,-2.1723,-2.2089,-2.2355,-2.2355,-2.2712,-2.3363,-2.422,-2.422,-2.4624,-2.5414,-2.5414,-2.5635,-2.6021,-2.6021,-2.6241,-2.6609,-2.7013,-2.7454,-2.7858,-2.8223,-2.8627,-2.8975,-2.8975,-2.8975,-2.8975,-2.8975,-2.9232,-2.9654,-3.0057,-3.0717,-3.1377,-3.1377,-3.1377,-3.1451,-3.1873,-3.2001,-3.2184,-3.2991,-3.2936,-3.2716,-3.3138,-3.3248,-3.3248,-3.3248,-3.3541,-3.3817,-3.3817,-3.3817,-3.3817,-3.3817,-3.3817,-3.3817,-3.3817,-3.3817,-3.3835,-3.3835,-3.3853,-3.3982,-3.4367,-3.4422,-3.4568,-3.5062,-3.5027,-3.5653,-3.7226,-3.5991,-3.4915,-3.46,-3.4563,-3.4397,-3.401,-3.4747,-3.4986,-3.4581,-3.4544,-3.4544,-3.4544,-3.4139,-3.3937,-3.4006,-3.6796,-3.709,-2.5506,-2.6278,-2.6829,-2.5161,-2.4959,-2.4721,-2.3059,-2.3004,-2.2986,-2.1906,-2.2346,-2.2657,-2.1833,-2.1687,-2.1687,0.0,-2.1687,-2.1595,0.0,-2.1328,-2.1273,-2.1126,-2.1236,-2.1394,-2.1668,-2.1211,-2.1119,-2.165,-2.1431,-2.1394,-2.1668,-2.1815,-2.2016,-2.2272,-2.2419,-2.2748,-2.3345,-2.362,-2.3877,-2.417,-2.4477,-2.4973,-2.5617,-2.5617,-2.6131,-2.6976,-2.7123,-2.7563,-2.8187,-2.8333,-2.8627,-2.8975,-2.8975,-2.8975,-2.8975,-2.8975,-2.9232,-2.9733,-3.0351,-3.0937,-3.1377,-3.1377,-3.1377,-3.1396,-3.1543,-3.1598,-3.1763,-3.257,-3.2514,-3.2423,-3.3376,-3.3413,-3.3285,-3.3541,-3.3725,-3.3817,-3.3817,-3.3817,-3.3817,-3.3817,-3.3817,-3.3817,-3.3817,-3.3817,-3.3817,-3.3817,-3.3817,-3.3853,-3.4,-3.4018,-3.4073,-3.4202,-3.422,-3.4523,-3.5327,-3.4889,-3.444,-3.4037,-3.4018,-3.4073,-3.4202,-3.422,-3.4275,-3.4403,-3.4147,-3.4018,-3.4018,-3.3872,-3.3817,-3.3817,-3.4815,-3.4926,-2.6058,-2.6793,-2.7289,-2.5966,-2.5708,-2.5378,-2.3749,-2.3584,-2.3492,-2.2529,-2.2638,-2.2785,-2.24,-2.198,-2.1742,0.0,0.0,-2.1595,0.0,-2.1328,-2.1328,-2.1328,-2.1328,-2.1438,-2.1668,-2.1083,-2.1016,-2.1632,-2.1346,-2.1291,-2.1668,-2.1687,-2.1815,-2.2053,-2.2071,-2.2272,-2.2675,-2.3078,-2.3352,-2.3499,-2.395,-2.4624,-2.5414,-2.5414,-2.6076,-2.7178,-2.7325,-2.7765,-2.8407,-2.8535,-2.8755,-2.8975,-2.8975,-2.8975,-2.8975,-2.8975,-2.9232,-2.9672,-3.0351,-3.0846,-3.1194,-3.1322,-3.1377,-3.1377,-3.1377,-3.1377,-3.1524,-3.2203,-3.2203,-3.2184,-3.2973,-3.3193,-3.3211,-3.3175,-3.3505,-3.378,-3.3633,-3.3707,-3.3817,-3.3817,-3.3817,-3.3817,-3.3817,-3.3817,-3.3817,-3.3817,-3.3817,-3.3817,-3.3817,-3.3817,-3.3817,-3.3817,-3.3817,-3.3908,-3.4165,-3.4202,-3.4092,-3.3835,-3.3817,-3.3927,-3.4183,-3.3945,-3.4073,-3.4623,-3.4092,-3.3963,-3.4257,-3.3963,-3.3817,-3.3817,-3.3817,-3.3817]}]]